[[{"header":{"parameterUnit":"m.s-1","parameterCategory":1,"la1":30.6,"la2":29.2853,"lo1":-89.7004,"lo2":-87.6739,"dy":0.0162,"dx":0.0183,"nx":112,"ny":82,"refTime":"2023-08-08T12:00:00:Z","depth":0,"parameterNumber":2,"parameterNumberName":"U-component_of_WINDS"},"data":[0.0,0.0,0.0,0.0,0.0,0.0,0.0,0.0,0.0,0.0,0.0,0.0,0.0,0.0,0.0,0.0,0.0,0.0,0.0,0.0,0.0,0.0,0.0,0.0,0.0,0.0,0.0,0.0,0.0,0.0,0.0,0.0,0.0,0.0,0.0,0.0,0.0,0.0,0.0,0.0,0.0,0.0,0.0,0.0,0.0,0.0,0.0,0.0,0.0,0.0,0.0,0.0,0.0,0.0,0.0,0.0,0.0,0.0,0.0,0.0,0.0,0.0,0.0,0.0,0.0,0.0,0.0,0.0,0.0,0.0,0.0,0.0,0.0,0.0,0.0,0.0,0.0,0.0,0.0,0.0,0.0,0.0,0.0,0.0,0.0,0.0,0.0,0.0,0.0,0.0,-2.1133,-2.3809,-2.6992,-2.9141,-2.9726,-3.0273,-2.9414,-2.666,0.0,0.0,0.0,0.0,0.0,0.0,0.0,0.0,0.0,0.0,0.0,0.0,0.0,0.0,0.0,0.0,0.0,0.0,0.0,0.0,0.0,0.0,0.0,0.0,0.0,0.0,0.0,0.0,0.0,0.0,0.0,0.0,0.0,0.0,0.0,0.0,0.0,0.0,0.0,0.0,0.0,0.0,0.0,0.0,0.0,0.0,0.0,0.0,0.0,0.0,0.0,0.0,0.0,0.0,0.0,0.0,0.0,0.0,0.0,0.0,0.0,0.0,0.0,0.0,0.0,0.0,0.0,0.0,0.0,0.0,0.0,0.0,0.0,0.0,0.0,0.0,0.0,0.0,0.0,0.0,0.0,0.0,0.0,0.0,0.0,0.0,0.0,0.0,0.0,0.0,0.0,0.0,0.0,0.0,0.0,0.0,0.0,0.0,0.0,0.0,0.0,0.0,0.0,0.0,-2.2126,-2.5089,-2.7519,-2.9394,-3.0586,-2.9785,-2.8555,-2.7012,0.0,0.0,0.0,0.0,0.0,0.0,0.0,0.0,0.0,0.0,0.0,0.0,0.0,0.0,0.0,0.0,0.0,0.0,0.0,0.0,0.0,0.0,0.0,0.0,0.0,0.0,0.0,0.0,0.0,0.0,0.0,0.0,0.0,0.0,0.0,0.0,0.0,0.0,0.0,0.0,0.0,0.0,0.0,0.0,0.0,0.0,0.0,0.0,0.0,0.0,0.0,0.0,0.0,0.0,0.0,0.0,0.0,0.0,0.0,0.0,0.0,0.0,0.0,0.0,0.0,0.0,0.0,0.0,0.0,0.0,0.0,0.0,0.0,0.0,0.0,0.0,0.0,0.0,0.0,0.0,0.0,0.0,0.0,0.0,0.0,0.0,0.0,0.0,0.0,0.0,0.0,0.0,0.0,0.0,0.0,0.0,0.0,0.0,0.0,0.0,0.0,0.0,0.0,-2.2266,-2.3769,-2.5859,-2.8008,-2.9609,-3.0449,-2.9746,-2.8633,-2.7109,-2.6406,0.0,0.0,0.0,0.0,0.0,0.0,0.0,0.0,0.0,0.0,0.0,0.0,0.0,0.0,0.0,0.0,0.0,0.0,0.0,0.0,0.0,0.0,0.0,0.0,0.0,0.0,0.0,0.0,0.0,0.0,0.0,0.0,0.0,0.0,0.0,0.0,0.0,0.0,0.0,0.0,0.0,0.0,0.0,0.0,0.0,0.0,0.0,0.0,0.0,0.0,0.0,0.0,0.0,0.0,0.0,0.0,0.0,0.0,0.0,0.0,0.0,0.0,0.0,0.0,0.0,0.0,0.0,0.0,0.0,0.0,0.0,0.0,0.0,0.0,0.0,0.0,0.0,0.0,0.0,0.0,0.0,0.0,0.0,0.0,0.0,0.0,0.0,0.0,0.0,0.0,0.0,0.0,0.0,0.0,0.0,0.0,0.0,0.0,0.0,0.0,0.0,0.0,-2.3398,-2.4844,-2.6367,-2.8262,-2.959,-3.0019,-2.9394,-2.8418,-2.709,-2.5918,0.0,0.0,0.0,0.0,0.0,0.0,0.0,0.0,0.0,0.0,0.0,0.0,0.0,0.0,0.0,0.0,0.0,0.0,0.0,0.0,0.0,0.0,0.0,0.0,0.0,0.0,0.0,0.0,0.0,0.0,0.0,0.0,0.0,0.0,0.0,0.0,0.0,0.0,0.0,0.0,0.0,0.0,0.0,0.0,0.0,0.0,0.0,0.0,0.0,0.0,0.0,0.0,0.0,0.0,0.0,0.0,0.0,0.0,0.0,0.0,0.0,0.0,0.0,0.0,0.0,0.0,0.0,0.0,0.0,0.0,0.0,0.0,0.0,0.0,0.0,0.0,0.0,0.0,0.0,0.0,0.0,0.0,0.0,0.0,0.0,0.0,0.0,0.0,0.0,0.0,0.0,0.0,0.0,0.0,0.0,0.0,0.0,0.0,0.0,0.0,0.0,0.0,-2.3516,-2.4648,-2.6738,-2.8164,-2.9141,-2.957,-2.8125,-2.7148,-2.7031,-2.5078,0.0,0.0,0.0,0.0,0.0,0.0,0.0,0.0,0.0,0.0,0.0,0.0,0.0,0.0,0.0,0.0,0.0,0.0,0.0,0.0,0.0,0.0,0.0,0.0,0.0,0.0,0.0,0.0,0.0,0.0,0.0,0.0,0.0,0.0,0.0,0.0,0.0,0.0,0.0,0.0,0.0,0.0,0.0,0.0,0.0,0.0,0.0,0.0,0.0,0.0,0.0,0.0,0.0,0.0,0.0,0.0,0.0,0.0,0.0,0.0,0.0,0.0,0.0,0.0,0.0,0.0,0.0,0.0,0.0,0.0,0.0,0.0,0.0,0.0,0.0,0.0,0.0,0.0,0.0,0.0,0.0,0.0,0.0,0.0,0.0,0.0,0.0,0.0,0.0,0.0,0.0,0.0,0.0,0.0,0.0,0.0,0.0,0.0,0.0,0.0,0.0,0.0,-2.3984,-2.5215,-2.6836,-2.8164,-2.9101,-2.9531,-2.8496,-2.7461,-2.668,0.0,0.0,0.0,0.0,0.0,0.0,0.0,0.0,0.0,0.0,0.0,0.0,0.0,0.0,0.0,0.0,0.0,0.0,0.0,0.0,0.0,0.0,0.0,0.0,0.0,0.0,0.0,0.0,0.0,0.0,0.0,0.0,0.0,0.0,0.0,0.0,0.0,0.0,0.0,0.0,0.0,0.0,0.0,0.0,0.0,0.0,0.0,0.0,0.0,0.0,0.0,0.0,0.0,0.0,0.0,0.0,0.0,0.0,0.0,0.0,0.0,0.0,0.0,0.0,0.0,0.0,0.0,0.0,0.0,0.0,0.0,0.0,0.0,0.0,0.0,0.0,0.0,0.0,0.0,0.0,0.0,0.0,0.0,0.0,0.0,0.0,0.0,0.0,0.0,0.0,0.0,0.0,0.0,0.0,0.0,0.0,0.0,0.0,0.0,0.0,0.0,0.0,-2.3242,-2.4355,-2.5566,-2.6875,-2.8047,-2.8848,-2.9141,-2.8125,-2.7168,-2.6445,0.0,0.0,0.0,0.0,0.0,0.0,0.0,0.0,0.0,0.0,0.0,0.0,0.0,0.0,0.0,0.0,0.0,0.0,0.0,0.0,0.0,0.0,0.0,0.0,0.0,0.0,0.0,0.0,0.0,0.0,0.0,0.0,0.0,0.0,0.0,0.0,0.0,0.0,0.0,0.0,0.0,0.0,0.0,0.0,0.0,0.0,0.0,0.0,0.0,0.0,0.0,0.0,0.0,0.0,0.0,0.0,0.0,0.0,0.0,0.0,0.0,0.0,0.0,0.0,0.0,0.0,0.0,0.0,0.0,0.0,0.0,0.0,0.0,0.0,0.0,0.0,0.0,0.0,0.0,0.0,0.0,0.0,0.0,0.0,0.0,0.0,0.0,0.0,0.0,0.0,0.0,0.0,0.0,0.0,0.0,0.0,0.0,0.0,0.0,0.0,0.0,0.0,-2.3691,-2.4531,-2.5566,-2.6875,-2.7793,-2.8301,-2.8301,-2.6738,-2.5937,0.0,0.0,0.0,0.0,0.0,0.0,0.0,0.0,0.0,0.0,0.0,0.0,0.0,0.0,0.0,0.0,0.0,0.0,0.0,0.0,0.0,0.0,0.0,0.0,0.0,0.0,0.0,0.0,0.0,0.0,0.0,0.0,0.0,0.0,0.0,0.0,0.0,0.0,0.0,0.0,0.0,0.0,0.0,0.0,0.0,0.0,0.0,0.0,0.0,0.0,0.0,0.0,0.0,0.0,0.0,0.0,0.0,0.0,0.0,0.0,0.0,0.0,0.0,0.0,0.0,0.0,0.0,0.0,0.0,0.0,0.0,0.0,0.0,0.0,0.0,0.0,0.0,0.0,0.0,0.0,0.0,0.0,0.0,0.0,0.0,0.0,0.0,0.0,0.0,0.0,0.0,0.0,0.0,0.0,0.0,0.0,0.0,0.0,0.0,0.0,0.0,0.0,0.0,-2.4082,-2.4727,-2.5566,-2.6875,-2.8047,-2.873,-2.873,-2.8008,-2.7344,-2.6855,0.0,0.0,0.0,0.0,0.0,0.0,0.0,0.0,0.0,0.0,0.0,0.0,0.0,0.0,0.0,0.0,0.0,0.0,0.0,0.0,0.0,0.0,0.0,0.0,0.0,0.0,0.0,0.0,0.0,0.0,0.0,0.0,0.0,0.0,0.0,0.0,0.0,0.0,0.0,0.0,0.0,0.0,0.0,0.0,0.0,0.0,0.0,0.0,0.0,0.0,0.0,0.0,0.0,0.0,0.0,0.0,0.0,0.0,0.0,0.0,0.0,0.0,0.0,0.0,0.0,0.0,0.0,0.0,0.0,0.0,0.0,0.0,0.0,0.0,0.0,0.0,0.0,0.0,0.0,0.0,0.0,0.0,0.0,0.0,0.0,0.0,0.0,0.0,0.0,0.0,0.0,0.0,0.0,0.0,0.0,0.0,0.0,0.0,0.0,0.0,0.0,0.0,-2.4512,-2.5059,-2.584,-2.7129,-2.8262,-2.8926,-2.8926,-2.8535,-2.7851,-2.6836,0.0,0.0,0.0,0.0,0.0,0.0,0.0,0.0,0.0,0.0,0.0,0.0,0.0,0.0,0.0,0.0,0.0,0.0,0.0,0.0,0.0,0.0,0.0,0.0,0.0,0.0,0.0,0.0,0.0,0.0,0.0,0.0,0.0,0.0,0.0,0.0,0.0,0.0,0.0,0.0,0.0,0.0,0.0,0.0,0.0,0.0,0.0,0.0,0.0,0.0,0.0,0.0,0.0,0.0,0.0,0.0,0.0,0.0,0.0,0.0,0.0,0.0,0.0,0.0,0.0,0.0,0.0,0.0,0.0,0.0,0.0,0.0,0.0,0.0,0.0,0.0,0.0,0.0,0.0,0.0,0.0,0.0,0.0,0.0,0.0,0.0,0.0,0.0,0.0,0.0,0.0,0.0,0.0,0.0,0.0,0.0,0.0,0.0,0.0,0.0,0.0,0.0,-2.4949,-2.5488,-2.6269,-2.7591,-2.8457,-2.8984,-2.8984,-2.8633,-2.7891,-2.6641,0.0,0.0,0.0,0.0,0.0,0.0,0.0,0.0,0.0,0.0,0.0,0.0,0.0,0.0,0.0,0.0,0.0,0.0,0.0,0.0,0.0,0.0,0.0,0.0,0.0,0.0,0.0,0.0,0.0,0.0,0.0,0.0,0.0,0.0,0.0,0.0,0.0,0.0,0.0,0.0,0.0,0.0,0.0,0.0,0.0,0.0,0.0,0.0,0.0,0.0,0.0,0.0,0.0,0.0,0.0,0.0,0.0,0.0,0.0,0.0,-2.2817,-2.1774,0.0,0.0,0.0,0.0,0.0,0.0,0.0,0.0,0.0,0.0,0.0,0.0,0.0,0.0,0.0,0.0,0.0,0.0,0.0,0.0,0.0,0.0,0.0,0.0,0.0,0.0,0.0,0.0,0.0,0.0,0.0,0.0,0.0,0.0,0.0,0.0,0.0,0.0,0.0,0.0,-2.4988,-2.5762,-2.6621,-2.7611,-2.873,-2.9434,-2.9434,-2.9355,-2.8887,-2.7949,-2.6523,0.0,0.0,0.0,0.0,0.0,0.0,0.0,0.0,0.0,0.0,0.0,0.0,0.0,0.0,0.0,0.0,0.0,0.0,0.0,0.0,0.0,0.0,0.0,0.0,0.0,0.0,0.0,0.0,0.0,0.0,0.0,0.0,0.0,0.0,0.0,0.0,0.0,0.0,0.0,0.0,0.0,0.0,0.0,0.0,0.0,0.0,0.0,0.0,0.0,0.0,0.0,0.0,0.0,0.0,0.0,0.0,0.0,0.0,0.0,-2.4732,-2.3845,0.0,0.0,0.0,0.0,0.0,0.0,0.0,0.0,0.0,0.0,0.0,0.0,0.0,0.0,0.0,0.0,0.0,0.0,0.0,0.0,0.0,0.0,0.0,0.0,0.0,0.0,0.0,0.0,0.0,0.0,0.0,0.0,0.0,0.0,0.0,0.0,0.0,0.0,0.0,0.0,-2.5566,-2.6094,-2.6875,-2.8125,-2.9238,-2.9863,-2.9863,-3.0078,-2.9648,-2.8379,-2.7266,0.0,0.0,0.0,0.0,0.0,0.0,0.0,0.0,0.0,0.0,0.0,0.0,0.0,0.0,0.0,0.0,0.0,0.0,0.0,0.0,0.0,0.0,0.0,0.0,0.0,0.0,0.0,0.0,0.0,0.0,0.0,0.0,0.0,0.0,0.0,0.0,0.0,0.0,0.0,0.0,0.0,0.0,0.0,0.0,0.0,0.0,0.0,0.0,0.0,0.0,0.0,0.0,0.0,-2.5804,-2.6658,-2.7053,-2.823,-2.913,-2.9705,-2.7939,-2.7336,-2.7559,-2.7402,0.0,0.0,0.0,0.0,0.0,0.0,0.0,0.0,0.0,0.0,0.0,0.0,0.0,0.0,0.0,0.0,0.0,0.0,0.0,0.0,0.0,0.0,-2.8086,-2.8384,-2.8579,-2.8242,-2.6317,0.0,0.0,0.0,0.0,0.0,0.0,0.0,0.0,0.0,0.0,0.0,-2.625,-2.6582,-2.7324,-2.8867,-2.9726,-3.0195,-3.0195,-3.0547,-3.0098,-2.8496,-2.8008,-2.7226,0.0,0.0,0.0,0.0,0.0,0.0,0.0,0.0,0.0,0.0,0.0,0.0,0.0,0.0,0.0,0.0,0.0,0.0,0.0,0.0,0.0,0.0,0.0,0.0,0.0,0.0,0.0,0.0,0.0,0.0,0.0,0.0,-2.334,-2.3809,0.0,0.0,0.0,0.0,0.0,0.0,0.0,0.0,0.0,0.0,0.0,0.0,0.0,-2.3607,-2.437,-2.6389,-2.7739,-2.8368,-3.0057,-3.0925,-3.1043,-3.2175,-3.3121,-3.3889,-3.3617,0.0,-2.9726,-2.8965,0.0,0.0,0.0,0.0,0.0,0.0,0.0,0.0,0.0,0.0,0.0,0.0,0.0,0.0,0.0,0.0,0.0,0.0,0.0,0.0,0.0,0.0,-2.928,-2.8986,-2.9754,-3.0314,-2.9313,-2.797,-2.6816,-2.6387,-2.5723,-2.5243,0.0,0.0,0.0,0.0,0.0,0.0,-2.6367,-2.7363,-2.8418,-2.9375,-2.9902,-3.0195,-3.0195,-3.0254,-2.9863,-2.8906,-2.8437,-2.7793,-2.6894,-2.6445,0.0,0.0,0.0,0.0,0.0,0.0,0.0,0.0,0.0,0.0,0.0,0.0,0.0,0.0,0.0,0.0,0.0,0.0,0.0,0.0,0.0,0.0,0.0,0.0,0.0,0.0,0.0,0.0,0.0,-2.401,-2.4766,-2.4199,-2.4202,-2.4337,0.0,0.0,0.0,0.0,0.0,0.0,0.0,0.0,0.0,-2.5507,-2.6534,-2.7463,-2.8277,-3.0241,-3.1611,-3.2296,-3.4,-3.4958,-3.5256,-3.6238,-3.6875,-3.7226,-3.7226,-3.6348,-3.4707,-3.2148,-3.0488,-2.9394,0.0,0.0,0.0,0.0,-2.8652,-2.9355,-3.0508,-3.0742,-3.0527,-3.0371,0.0,0.0,0.0,0.0,0.0,0.0,0.0,-2.7734,-2.8672,-2.9966,-3.1069,-3.12,-3.1658,-3.1884,-3.1032,-2.9968,-2.8978,-2.7994,-2.7109,-2.6573,-2.6573,-2.5771,0.0,0.0,0.0,-2.6367,-2.7324,-2.7949,-2.8711,-2.9805,-3.0312,-3.0488,-3.0215,-3.043,-3.0117,-2.8984,-2.8516,-2.8008,-2.7402,-2.6973,-2.6543,0.0,0.0,0.0,0.0,0.0,0.0,0.0,0.0,0.0,0.0,0.0,0.0,0.0,0.0,0.0,0.0,0.0,0.0,0.0,0.0,0.0,0.0,0.0,0.0,0.0,0.0,0.0,0.0,-2.4902,-2.5586,-2.4266,-2.4602,-2.4969,0.0,0.0,0.0,0.0,0.0,0.0,-2.7921,-2.8514,-2.9071,-2.9511,-3.0631,-3.1671,-3.2498,-3.4385,-3.5732,-3.6541,-3.7731,-3.8457,-3.8769,-3.9297,-3.9492,-3.9375,-3.9375,-3.9199,-3.8633,-3.4961,-3.3008,-3.2168,-3.043,-3.0019,-3.043,-3.0762,-3.123,-3.1894,-3.3281,-3.3535,-3.3184,-3.2559,-3.1758,-3.0625,-2.8516,0.0,0.0,0.0,0.0,-2.9883,-3.1191,-3.2018,-3.2694,-3.3283,-3.3348,-3.3095,-3.2358,-3.1717,-3.0815,-2.9286,-2.8345,-2.7832,-2.7832,-2.671,0.0,-2.6894,-2.6758,-2.6973,-2.8144,-2.8574,-2.918,-3.0254,-3.0684,-3.0762,-3.041,-3.0586,-3.0254,-2.916,-2.8789,-2.8379,-2.7904,-2.7519,-2.709,-2.6562,0.0,0.0,0.0,0.0,0.0,0.0,0.0,0.0,0.0,0.0,0.0,0.0,0.0,0.0,0.0,0.0,0.0,0.0,0.0,0.0,0.0,0.0,0.0,0.0,0.0,0.0,0.0,0.0,0.0,-2.3474,-2.5267,0.0,0.0,0.0,0.0,-2.711,-2.9075,-3.0469,-3.1059,-3.2023,-3.2862,-3.3555,-3.4981,-3.6275,-3.7403,-3.9261,-4.0607,-4.1445,-4.1152,-4.0996,-4.0996,-4.0625,-4.0234,-3.9863,-3.9863,-3.9844,-3.959,-3.6523,-3.498,-3.4375,-3.2676,-3.2266,-3.2637,-3.2656,-3.3203,-3.3984,-3.4473,-3.4629,-3.4805,-3.5996,-3.4961,-3.3086,-3.2168,-3.0996,0.0,0.0,-3.1055,-3.168,-3.2969,-3.3315,-3.3666,-3.4573,-3.4505,-3.4126,-3.3605,-3.2803,-3.1543,-2.9507,-2.8629,-2.8262,-2.8262,0.0,-2.7422,-2.707,-2.8008,-2.8652,-2.834,-2.9355,-3.0293,-3.0801,-3.0879,-3.0879,-3.0859,-3.0469,-3.0039,-2.957,-2.9567,-2.9121,-2.8301,-2.8242,-2.7832,-2.6992,-2.5742,0.0,0.0,0.0,0.0,0.0,0.0,0.0,0.0,0.0,0.0,0.0,0.0,0.0,0.0,0.0,0.0,0.0,0.0,0.0,0.0,0.0,0.0,0.0,0.0,0.0,0.0,0.0,0.0,-2.7691,-2.8634,0.0,-2.9893,-2.9712,-3.0223,-3.1923,-3.302,-3.4239,-3.5451,-3.64,-3.7456,-3.8533,-3.9337,-4.0067,-4.0777,-4.1424,-4.1894,-4.2207,-4.2051,-4.1973,-4.1973,-4.1543,-4.1269,-4.1094,-4.0547,-4.0469,-4.0586,-3.8965,-3.7851,-3.7031,-3.5312,-3.4902,-3.5293,-3.5293,-3.5644,-3.625,-3.6953,-3.7012,-3.6621,-3.5703,-3.4011,-3.2169,-3.188,-3.1281,-3.0895,-3.1941,-3.2646,-3.3398,-3.4434,-3.4536,-3.4488,-3.4808,-3.4465,-3.3829,-3.3422,-3.3256,-3.2758,-3.1465,-3.0123,-2.9199,-2.9473,-2.8496,-2.7943,-2.8555,-2.8574,-2.8652,-2.9062,-2.9746,-3.0254,-3.043,-3.0449,-3.0332,-3.0059,-2.9629,-2.9199,-2.8769,-2.8496,-2.8256,-2.7963,-2.7363,-2.6797,-2.6211,-2.5742,-2.5,0.0,0.0,0.0,0.0,0.0,0.0,0.0,0.0,0.0,0.0,0.0,0.0,0.0,0.0,0.0,0.0,0.0,0.0,0.0,0.0,0.0,0.0,0.0,0.0,0.0,-2.8262,-2.9946,-3.0429,-3.1775,-3.2975,-3.3635,-3.3745,-3.4528,-3.6298,-3.7012,-3.7949,-3.9375,-3.998,-4.0762,-4.1777,-4.209,-4.2441,-4.2851,-4.2851,-4.2851,-4.2851,-4.2851,-4.2773,-4.2637,-4.2363,-4.2368,-4.2524,-4.1269,-4.117,-4.1713,-4.0393,-3.9658,-3.9129,-3.7643,-3.7266,-3.75,-3.7363,-3.748,-3.7812,-3.8234,-3.818,-3.7656,-3.5791,-3.4247,-3.3078,-3.2925,-3.2724,-3.2691,-3.3876,-3.4367,-3.4763,-3.5772,-3.5475,-3.496,-3.5092,-3.4529,-3.3941,-3.3613,-3.3573,-3.3463,-3.3084,-3.1728,-3.0664,-3.0644,-2.959,-2.8984,-2.9668,-2.9297,-2.9141,-2.9707,-3.0156,-3.043,-3.043,-3.043,-3.0254,-2.9824,-2.9394,-2.8828,-2.8125,-2.7676,-2.7324,-2.7031,-2.6621,-2.6191,-2.5693,-2.5586,-2.5019,-2.4004,0.0,0.0,0.0,0.0,0.0,0.0,0.0,0.0,0.0,0.0,0.0,0.0,0.0,0.0,0.0,0.0,0.0,0.0,0.0,0.0,0.0,0.0,0.0,-2.7266,-2.9746,-3.153,-3.1269,-3.4547,-3.6205,-3.4607,-3.7072,-3.9101,-3.9941,-4.0801,-4.1621,-4.2422,-4.2461,-4.2656,-4.3086,-4.3105,-4.3301,-4.3691,-4.3711,-4.3711,-4.3711,-4.3711,-4.3496,-4.3105,-4.3086,-4.346,-4.4024,-4.2073,-4.1817,-4.2673,-4.0724,-4.0137,-4.0375,-3.9576,-3.9219,-3.918,-3.873,-3.8574,-3.8574,-3.8136,-3.799,-3.7782,-3.6632,-3.615,-3.6008,-3.5604,-3.5472,-3.5586,-3.6406,-3.6161,-3.5847,-3.7061,-3.6204,-3.5149,-3.5451,-3.4944,-3.4357,-3.4282,-3.3908,-3.3671,-3.4031,-3.3398,-3.2539,-3.1699,-3.1211,-3.0781,-3.0312,-3.0234,0.0,-3.0195,-3.0605,-3.0879,-3.0879,-3.0859,-3.0684,-3.0215,-2.9785,-2.9059,-2.7806,-2.7246,-2.6621,-2.5752,-2.6133,-2.6152,-2.5674,-2.5273,-2.4844,-2.4434,0.0,0.0,0.0,0.0,0.0,0.0,0.0,0.0,0.0,0.0,0.0,0.0,0.0,0.0,0.0,0.0,0.0,0.0,0.0,0.0,0.0,-2.9375,-3.0547,-3.0312,-3.2617,-3.4848,-3.634,-3.8219,-3.9751,-4.0608,-4.1678,-4.2402,-4.2637,-4.3183,-4.3457,-4.3359,-4.3359,-4.3418,-4.3535,-4.3535,-4.3594,-4.3711,-4.3711,-4.3711,-4.3711,-4.3711,-4.3633,-4.3516,-4.3223,-4.3016,-4.2843,-4.1676,-4.1209,-4.1094,-4.0294,-3.9981,-4.0042,-3.9452,-3.9387,-3.9609,-3.8848,-3.8574,-3.8535,-3.8078,-3.7961,-3.7753,-3.6828,-3.634,-3.6008,-3.5604,-3.5461,-3.5491,-3.5722,-3.6073,-3.6355,-3.6425,-3.5927,-3.5355,-3.5186,-3.4524,-3.3898,-3.3879,-3.3728,-3.3551,-3.363,-3.3422,-3.3086,-3.2539,-3.209,-3.166,-3.1211,-3.1152,-3.0918,-3.0273,-3.0605,-3.0762,-3.043,-3.0391,-3.0215,-2.9785,-2.9062,-2.8359,-2.7767,-2.6973,-2.6465,-2.6211,-2.5703,-2.5371,-2.5254,-2.4824,-2.4687,0.0,0.0,0.0,0.0,0.0,0.0,0.0,0.0,0.0,0.0,0.0,0.0,0.0,0.0,0.0,0.0,0.0,0.0,0.0,0.0,0.0,0.0,-3.2031,-3.3926,-3.4629,-3.5879,-3.7461,-3.9434,-4.0801,-4.1992,-4.2988,-4.3633,-4.3984,-4.3984,-4.4258,-4.4277,-4.4004,-4.3808,-4.3711,-4.3711,-4.3711,-4.3711,-4.3711,-4.3711,-4.3711,-4.3711,-4.3711,-4.3711,-4.3691,-4.3262,-4.3236,-4.332,-4.1636,-4.1052,-4.1171,-3.9883,-3.9415,-3.9346,0.0,0.0,0.0,0.0,-3.8574,-3.8535,-3.8083,-3.7914,-3.7778,-3.6784,-3.6425,-3.6239,-3.5662,-3.5606,-3.5713,-3.5976,-3.6073,-3.6208,-3.6328,-3.594,-3.5489,-3.5041,-3.4558,-3.4127,-3.3992,-3.3699,-3.3546,-3.374,-3.3583,0.0,-3.3105,-3.2559,-3.2012,-3.1582,-3.1367,-3.1074,-3.0547,-3.0723,-3.0781,-3.0508,-3.0488,-3.0234,-2.9685,-2.8945,0.0,0.0,0.0,-2.6035,-2.584,-2.5399,0.0,0.0,0.0,-2.5098,-2.5352,-2.5098,0.0,0.0,-2.4668,-2.4609,0.0,0.0,0.0,0.0,0.0,0.0,0.0,0.0,0.0,0.0,0.0,0.0,0.0,0.0,0.0,0.0,-3.5059,-3.7578,-3.9316,-3.9336,-3.9726,-4.1269,-4.2422,-4.3144,-4.3281,-4.3965,-4.4414,-4.4473,-4.4433,-4.4394,-4.4394,-4.3965,0.0,0.0,0.0,-4.3711,-4.3711,-4.3652,-4.3633,-4.3633,-4.3633,-4.3633,-4.3633,-4.3301,-4.3659,-4.4406,-4.1812,-4.1208,-4.1848,-3.955,-3.8582,-3.8489,-3.8652,-3.8861,-3.9028,-3.8701,-3.8574,-3.8574,-3.8097,0.0,0.0,-3.6756,-3.6611,-3.679,-3.5954,-3.5898,-3.623,-3.6582,-3.62,-3.5789,-3.6451,-3.6055,-3.5426,-3.4997,-3.4846,-3.4697,-3.425,-3.3796,-3.3598,-3.394,-3.3691,-3.3418,-3.3418,-3.2793,-3.2168,-3.1719,-3.1309,-3.1016,-3.0957,-3.0918,-3.0898,-3.0898,-3.0898,0.0,-2.9648,-2.916,-2.8242,-2.6641,-2.6133,-2.5684,-2.5282,-2.5262,-2.541,-2.5752,-2.5752,-2.5791,-2.583,-2.583,-2.6074,-2.6426,-2.5215,-2.5031,0.0,0.0,0.0,0.0,0.0,0.0,0.0,0.0,0.0,0.0,0.0,0.0,0.0,0.0,0.0,-3.4902,-3.7207,-3.9434,-4.1504,-4.2324,-4.2832,-4.3183,-4.3125,-4.3496,-4.4551,-4.4492,-4.4531,-4.4883,-4.459,-4.4394,-4.4394,-4.3965,-4.3711,-4.3711,-4.3711,-4.3711,-4.3711,-4.3359,-4.3203,-4.3203,-4.3203,0.0,-4.3203,-4.3457,-4.3327,-4.2822,-4.1967,-4.1128,-4.0275,-3.9114,-3.8016,-3.729,-3.8254,-3.8473,-3.824,-3.8487,-3.8574,-3.8516,-3.8111,-3.8454,-3.8888,-3.7535,-3.7659,-3.8138,-3.7252,-3.6981,0.0,-3.6738,-3.6621,-3.6444,-3.6251,-3.5843,-3.5379,-3.5009,-3.4613,-3.4183,-3.3712,-3.3527,-3.3408,-3.3555,-3.3476,-3.3418,-3.3418,-3.3281,-3.3027,-3.2617,-3.2187,-3.1797,-3.1445,-3.1094,-3.0898,-3.0898,-3.0898,-3.0527,-2.9648,-2.916,-2.8496,-2.748,-2.7012,-2.6582,-2.6152,-2.6133,-2.6172,-2.625,-2.6269,-2.6426,-2.6758,-2.6758,-2.6816,-2.6875,-2.6289,-2.6289,0.0,0.0,0.0,0.0,0.0,0.0,0.0,0.0,0.0,0.0,0.0,-3.0625,-3.1914,0.0,-3.5684,-3.7637,-3.957,-4.1269,-4.2578,-4.3301,-4.3789,-4.4023,-4.3867,-4.4004,-4.4648,-4.4707,-4.4883,-4.5312,-4.4961,-4.4707,-4.4707,-4.4062,-4.3711,-4.3711,-4.3711,-4.3711,-4.3711,-4.3281,-4.3086,-4.3086,-4.3086,-4.2969,-4.2754,-4.3203,-4.2965,-4.204,-4.1456,-4.0712,-3.979,-3.8762,-3.7942,-3.7484,-3.8023,-3.8054,-3.7789,-3.8355,-3.8574,-3.8555,-3.832,-3.845,-3.8638,-3.8708,-3.8406,-3.8015,-3.8306,-3.7897,-3.7207,-3.6797,-3.668,-3.6562,-3.5928,-3.5588,-3.5269,-3.469,-3.4332,-3.4018,-3.3572,-3.3447,-3.3418,-3.3418,-3.3418,-3.3418,-3.3418,-3.3418,-3.3281,-3.2851,-3.2246,-3.1758,-3.1543,-3.1152,-3.0898,-3.0898,-3.0898,-3.0625,-2.9941,-2.9101,-2.834,-2.7767,-2.7266,-2.6914,-2.6719,-2.6699,-2.6699,-2.6699,-2.6699,-2.6797,-2.7012,-2.7012,-2.7129,-2.7344,-2.7129,-2.7148,0.0,0.0,0.0,0.0,0.0,0.0,0.0,-2.8281,-2.9313,-3.1328,-3.2519,-3.373,-3.5547,-3.6992,-3.8437,-4.0019,-4.1484,-4.2578,-4.3008,-4.3437,-4.3808,-4.4101,-4.4219,-4.4297,-4.4394,-4.4629,-4.498,-4.5508,-4.5058,-4.4844,-4.5019,-4.418,-4.3711,-4.3711,-4.3711,-4.3672,-4.3574,-4.3164,-4.291,-4.2832,-4.2832,-4.2637,-4.2324,-4.2673,-4.245,-4.1779,-4.0857,-4.0231,-3.9701,-3.8604,-3.8103,-3.7989,-3.8035,-3.799,-3.797,-3.8428,-3.8516,-3.851,-3.88,-3.866,-3.8668,-3.9795,-3.9219,-3.8287,-3.9056,-3.8487,-3.7512,-3.7262,-3.7193,-3.7045,-3.6343,-3.617,-3.593,-3.5031,-3.4812,-3.4692,-3.4253,-3.3965,-3.3796,-3.3796,-3.3607,-3.3418,-3.3418,-3.3418,-3.3301,-3.2969,-3.2266,-3.1758,-3.1758,-3.1328,-3.1016,-3.1016,-3.0937,-3.0703,-3.0234,-2.918,-2.8398,-2.8119,-2.7637,-2.7344,-2.7266,-2.7187,-2.7148,-2.7148,-2.7148,-2.7187,-2.7266,-2.7266,-2.7441,-2.7845,-2.7845,-2.7845,-2.5947,-2.6133,-2.6855,-2.8223,-2.8281,-2.8926,0.0,-3.2695,-3.2734,-3.4531,-3.5859,-3.6914,-3.7519,-3.9023,-4.0469,-4.1426,-4.2051,-4.2578,-4.3008,-4.3437,-4.3594,-4.3262,-4.3555,-4.3945,-4.4355,-4.4062,-4.4199,-4.5039,-4.4316,-4.4199,-4.498,-4.418,-4.3711,-4.3711,-4.3711,-4.3535,-4.3144,-4.2715,-4.2305,-4.1953,-4.1953,-4.1914,-4.1894,-4.1924,-4.1856,-4.1779,-4.0857,-4.0062,-3.9351,-3.8858,-3.8406,-3.7989,-3.8035,-3.8753,-3.9778,-3.8918,-3.834,-3.8132,-3.9374,-4.0124,-4.0461,-4.0146,-4.0498,-4.0767,-3.9169,-3.8563,-3.855,-3.8946,-3.9117,-3.9081,-3.8979,-3.8959,-3.8722,-3.773,-3.7453,-3.7385,-3.6972,-3.5971,-3.5191,-3.5191,-3.4215,-3.3418,-3.3418,-3.3418,-3.3398,-3.3359,-3.2949,-3.2656,-3.2656,-3.1953,-3.1445,-3.1445,-3.1113,-3.0703,-3.0234,-2.9726,-2.947,-2.9411,-2.8945,-2.8535,-2.8164,-2.7793,-2.7598,-2.7598,-2.7598,-2.7773,-2.8144,-2.8144,-2.8184,-2.8223,-2.8223,-2.8223,-2.6953,-2.6992,-2.748,-2.8945,-2.9922,-3.1172,-3.3535,-3.4375,-3.5234,-3.7207,-3.8437,-3.9531,-4.0703,-4.1523,-4.2129,-4.248,-4.2695,-4.2773,-4.2715,-4.2851,-4.2617,-4.1699,-4.2187,-4.2969,-4.3906,-4.3594,-4.3711,-4.459,-4.3848,-4.3496,-4.3867,-4.3535,-4.334,-4.334,-4.3574,-4.3613,-4.3437,-4.3027,-4.2436,-4.1769,-4.3001,-4.3192,-4.2476,-4.3708,-4.3438,-4.213,-4.1791,-4.0679,-3.9222,-3.909,-3.921,-3.9645,-3.961,-4.0514,-4.1679,-4.0392,-4.0105,-4.0557,-4.1162,-4.1284,-4.1281,-4.1293,-4.1034,-4.0604,-3.9759,-3.9454,-3.9323,-3.9055,-3.9348,-3.9728,-3.9539,-3.8971,-3.8448,-3.8117,-3.7789,-3.7284,-3.638,-3.5807,-3.5191,-3.4403,-3.3796,-3.3418,-3.3418,-3.3418,-3.334,-3.3086,-3.291,-3.2793,-3.2793,-3.2051,-3.1426,-3.1191,-3.0996,-3.082,-3.0625,-3.0195,-2.9941,-2.9941,-2.9531,-2.9219,-2.9043,-2.8922,-2.8652,-2.8398,-2.8398,-2.8359,-2.8301,-2.8535,-2.8652,-2.8652,-2.8652,-2.8652,-2.7422,-2.7885,-2.8609,-3.0078,-3.1855,-3.3594,-3.5,-3.623,-3.7598,-3.9375,-4.0351,-4.125,-4.25,-4.2812,-4.2891,-4.2891,-4.2793,-4.2617,-4.2305,-4.2051,-4.1465,-4.0293,-4.0605,-4.1308,-4.2363,-4.2617,-4.3086,-4.3965,-4.332,-4.2949,-4.3066,-4.3086,-4.3086,-4.3086,-4.3496,-4.3652,-4.3535,-4.3141,-4.2793,-4.2485,-4.3792,-4.4045,-4.3456,-4.4494,-4.3857,-4.1914,-4.2309,-4.1502,-3.9899,-4.0286,-4.0858,-4.1607,-4.1481,-4.2247,-4.325,-4.2209,-4.193,-4.2114,-4.239,-4.2171,-4.1772,-4.1854,-4.119,-4.027,-3.9581,-3.9321,-3.9208,-3.9104,-3.9619,-4.0235,-4.0159,-3.9736,-3.9181,-3.8994,-3.8657,-3.8089,-3.7188,-3.6703,-3.6154,-3.517,-3.4445,-3.3965,-3.3965,-3.367,-3.332,-3.3008,-3.2969,-3.2891,-3.2656,-3.1973,-3.1367,-3.0937,-3.0898,-3.0898,-3.0898,-3.0586,-3.0391,-3.0391,-2.998,-2.9746,-2.9746,-2.9629,-2.9414,-2.9101,-2.9101,-2.8945,-2.8652,-2.8945,-2.9101,-2.9101,-2.8965,-2.8926,-2.6797,-2.8242,-3.0019,-3.2168,-3.4316,-3.6348,-3.8047,-3.9141,-4.0039,-4.0937,-4.1465,-4.1777,-4.1836,-4.2168,-4.2441,-4.2441,-4.2109,-4.1836,-4.1816,-4.1094,-4.0254,-3.9355,-3.8906,-3.8848,-3.9297,-4.0859,-4.2187,-4.3047,-4.2695,-4.2637,-4.3047,-4.3086,-4.3086,-4.3086,-4.3496,-4.3516,-4.3105,-4.2678,-4.3019,-4.4102,-4.3694,-4.3987,-4.4708,-4.3103,-4.1698,-4.0623,-4.2072,-4.2185,-4.1534,-4.297,-4.3611,-4.3545,-4.3136,-4.3573,-4.4476,-4.4409,-4.3197,-4.1769,-4.2583,-4.2624,-4.2089,-4.1199,-4.0802,-4.0356,-3.8077,-3.7395,-3.7739,-3.9489,-4.0323,-4.0976,-4.1743,-4.2316,-4.2412,-4.1321,-4.1081,-4.1057,-4.1057,-4.0024,-3.9039,-3.9039,-3.7067,-3.5314,-3.5314,-3.4278,-3.3418,-3.3398,-3.3398,-3.3105,-3.2285,-3.1797,-3.1367,-3.0937,-3.0898,-3.0898,-3.0898,-3.0879,-3.0859,-3.0859,-3.043,-3.0176,-3.0176,-2.9785,-2.957,-2.9551,-2.9551,-2.9551,-2.9587,-2.9551,-2.9551,-2.9607,-2.9121,-2.8926,-2.7812,-2.9551,-3.1523,-3.4258,-3.6348,-3.8086,-3.9531,-4.0332,-4.082,-4.1113,-4.0586,-3.998,-3.9707,-3.9531,-3.9434,-3.9434,-4.0059,-4.0527,-4.0527,-4.0527,-4.0066,-3.892,-3.9202,-3.9514,-3.972,-3.9702,-4.0137,-4.1289,-4.125,-4.1348,-4.1797,-4.2344,-4.2773,-4.3066,-4.3496,-4.3496,-4.3086,-4.3473,-4.3739,-4.3808,-4.4951,-4.609,-4.7186,-4.6911,-4.5083,-4.2235,-4.4603,-4.4018,-4.1638,-4.3107,-4.414,-4.473,-4.4572,-4.5298,-4.6385,-4.5699,-4.4995,-4.4435,-4.4394,-4.4302,-4.393,-4.2636,-4.2452,-4.2148,-3.9108,-3.8883,-3.9685,-4.004,-4.0664,-4.1519,-4.2685,-4.288,-4.2651,-4.187,-4.1701,-4.1526,-4.0598,-3.9764,-3.9072,-3.8573,-3.6796,-3.5376,-3.5376,-3.4278,-3.332,-3.3047,-3.3008,-3.2793,-3.2246,-3.1797,-3.1367,-3.0937,-3.0898,-3.0898,-3.0898,-3.0898,-3.0898,-3.0898,-3.0742,-3.0664,-3.0664,-3.0527,-3.0293,-3.0,-2.998,-2.9707,-2.9141,-2.9707,-2.9844,-2.9626,-2.9414,-2.9355,-2.9258,-3.1445,-3.3858,-3.7021,-3.8946,-4.0404,-4.1327,-4.1666,-4.1549,-4.0484,-3.9199,-3.8066,-3.7324,-3.6719,-3.6426,-3.6719,-3.7617,-3.8496,-3.9101,-3.916,-3.8924,-3.8416,-3.8404,-3.8657,-3.8963,-3.8966,-3.9433,-4.0674,-4.1072,-4.1161,-4.0918,-4.1894,-4.2558,-4.2832,-4.3398,-4.3824,-4.3938,-4.4019,-4.4116,-4.4176,-4.5592,-4.6793,-4.7849,-4.7749,-4.6242,-4.3717,-4.5944,-4.5434,-4.2947,-4.4492,-4.5485,-4.6113,-4.6113,-4.6556,-4.7112,-4.6247,-4.5814,-4.5573,-4.4981,-4.4909,-4.4864,-4.3437,-4.3307,-4.321,-4.0378,-4.0161,-4.0826,-4.0708,-4.1185,-4.1962,-4.2734,-4.2856,-4.2675,-4.2169,-4.1966,-4.1838,-4.115,-4.0597,-4.0081,-3.9628,-3.7636,-3.6093,-3.6093,-3.457,-3.332,-3.3066,-3.2891,-3.2578,-3.2012,-3.1562,-3.1191,-3.0918,-3.0898,-3.0898,-3.0898,-3.1286,-3.1556,-3.1556,-3.1556,-3.1556,-3.1556,-3.1112,-3.0762,-3.0449,-3.0449,-3.0176,-2.9629,-3.0176,-3.0312,-3.0039,-2.9783,-2.9704,-3.1113,-3.3867,-3.6848,-4.0124,-4.197,-4.2994,-4.3194,-4.3097,-4.2076,-3.9037,-3.7434,-3.6084,-3.4648,-3.3833,-3.3598,-3.4544,-3.5237,-3.6219,-3.7928,-3.7496,-3.735,-3.8007,-3.7025,-3.6593,-3.7518,-3.8902,-4.0201,-4.1266,-4.2183,-4.2064,-4.0623,-4.1758,-4.2441,-4.2422,-4.3242,-4.4255,-4.544,-4.4281,-4.4246,-4.5298,-4.5672,-4.6156,-4.6792,-4.5817,-4.5218,-4.4967,-4.6238,-4.6242,-4.5414,-4.6874,-4.7497,-4.7497,-4.7497,-4.7185,-4.668,-4.615,-4.5621,-4.5029,-4.4501,-4.4645,-4.484,-4.363,-4.3479,-4.3516,-4.1684,-4.1133,-4.1176,-4.1519,-4.1903,-4.224,-4.2102,-4.2434,-4.2675,-4.2169,-4.199,-4.2217,-4.2747,-4.2434,-4.2014,-4.2014,-3.9488,-3.7248,-3.7127,-3.5067,-3.3418,-3.3418,-3.3066,-3.25,-3.166,-3.1191,-3.0918,-3.0898,-3.0957,-3.0995,-3.0995,-3.2133,-3.2799,-3.2799,-3.2799,-3.2799,-3.2799,-3.1672,-3.1054,-3.1054,-3.0995,-3.0995,-3.0976,-3.0937,-3.0879,-3.084,-3.0,-2.9824,-3.3652,-3.5898,-3.7766,-3.9261,-4.1556,-4.2837,-4.0764,-4.1576,-4.1517,-3.7133,-3.5346,-3.3781,-3.0916,-3.1454,-3.2837,-3.4265,-3.6896,-3.9481,-4.1395,-4.1826,-4.1544,-4.0668,-4.0265,-4.0482,-4.1353,-4.2149,-4.2613,-4.2511,-4.2659,-4.2206,-4.1073,-4.2226,-4.2754,-4.2441,-4.2949,-4.3659,-4.451,-4.5308,-4.6131,-4.6965,-4.6712,-4.6628,-4.6839,-4.7118,-4.6375,-4.5015,-4.7024,-4.6902,-4.5414,-4.6874,-4.7497,-4.7497,-4.7497,-4.7425,-4.7233,-4.6704,-4.6175,-4.5645,-4.5053,-4.4693,-4.4487,-4.4555,-4.4706,-4.4593,-4.3422,-4.2847,-4.2594,-4.2642,-4.2178,-4.1846,-4.246,-4.2723,-4.2675,-4.2169,-4.2338,-4.2771,-4.3216,-4.2928,-4.2627,-4.2627,-3.9716,-3.6703,-3.4757,-3.3839,-3.3418,-3.3418,-3.3066,-3.2598,-3.207,-3.1621,-3.123,-3.0918,-3.1672,-3.2248,-3.2248,-3.3289,-3.3944,-3.3944,-3.3944,-3.3944,-3.3944,-3.3663,-3.3494,-3.3494,-3.2685,-3.2064,-3.1697,-3.1166,-3.0703,-3.0371,-3.0137,-3.0098,-3.5293,-3.7344,-3.8994,-3.9985,-4.206,-4.3057,-4.0094,-4.0446,-4.0015,-3.5067,-3.2942,-3.1312,-2.9084,-2.9891,-3.1476,-3.3258,-3.6016,-3.8881,-4.1415,-4.2005,-4.2201,-4.2177,-4.1981,-4.2166,-4.2862,-4.405,-4.446,-4.367,-4.3491,-4.2774,-4.1288,-4.2207,-4.2676,-4.2441,-4.3558,-4.4673,-4.5748,-4.6446,-4.6929,-4.7252,-4.6747,-4.6634,-4.7005,-4.7866,-4.7609,-4.6495,-4.7964,-4.7698,-4.6315,-4.7141,-4.7497,-4.7497,-4.7497,-4.7497,-4.7401,-4.6655,-4.6175,-4.5814,-4.5005,-4.4525,-4.4381,-4.4909,-4.5221,-4.5334,-4.4889,-4.4349,-4.395,-4.395,-4.3364,-4.2753,-4.2772,-4.2819,-4.2675,-4.2169,-4.2434,-4.2964,-4.3409,-4.3289,-4.2832,-4.1732,-3.9447,-3.6939,-3.4673,-3.3796,-3.3418,-3.3418,-3.3223,-3.2851,-3.2246,-3.1797,-3.1367,-3.0937,-3.196,-3.2685,-3.2685,-3.4246,-3.5168,-3.5168,-3.5168,-3.5168,-3.5168,-3.467,-3.4391,-3.4391,-3.3289,-3.2561,-3.2327,-3.1379,-3.0762,-3.0488,-3.0293,-3.0312,-3.6799,-3.8577,-4.0042,-4.0861,-4.2576,-4.3122,-3.9819,-3.9404,-3.8188,-3.2997,-3.0727,-2.9375,-2.8326,-2.8946,-3.0281,-3.234,-3.4469,-3.6991,-4.0351,-4.095,-4.1617,-4.3002,-4.2983,-4.2916,-4.3266,-4.5025,-4.5732,-4.486,-4.4733,-4.39,-4.2024,-4.2665,-4.3081,-4.2962,-4.4769,-4.6348,-4.764,-4.7329,-4.7049,-4.6864,-4.6358,-4.6495,-4.7205,-4.8237,-4.8606,-4.8315,-4.8772,-4.8411,-4.7497,-4.7497,-4.7473,-4.7401,-4.7401,-4.7353,-4.7185,-4.6271,-4.5886,-4.5694,-4.4717,-4.4333,-4.4381,-4.4909,-4.539,-4.5838,-4.591,-4.5597,-4.5149,-4.5101,-4.4693,-4.4069,-4.312,-4.2819,-4.2627,-4.2254,-4.253,-4.2988,-4.3505,-4.3553,-4.2853,-4.0574,-3.9152,-3.7732,-3.5768,-3.4465,-3.3607,-3.3418,-3.3418,-3.3144,-3.2344,-3.1875,-3.1485,-3.1171,-3.2227,-3.3048,-3.3281,-3.5212,-3.6495,-3.6564,-3.6495,-3.6449,-3.6449,-3.5443,-3.4891,-3.4891,-3.3741,-3.3176,-3.3176,-3.1787,-3.1112,-3.1112,-3.0584,-3.0508,-3.9892,-4.0031,-3.9214,-3.8682,-4.0568,-4.1287,-3.6684,-3.7362,-3.7286,-3.1367,-3.0101,-2.9417,-2.7239,-2.8589,-3.0924,-3.3568,-3.6373,-3.9471,-4.3118,-4.4373,-4.4747,-4.4275,-4.4595,-4.4823,-4.4914,-4.5668,-4.615,-4.6302,-4.6735,-4.6597,-4.5782,-4.6575,-4.6648,-4.5877,-4.6684,-4.7038,-4.6877,-4.7074,-4.716,-4.7093,-4.6578,-4.6623,-4.725,-4.7984,-4.8324,-4.8291,-4.8387,-4.8074,-4.7497,-4.7497,-4.7233,-4.6848,-4.6848,-4.6583,-4.6175,-4.6006,-4.5645,-4.5173,-4.5005,-4.4645,-4.4381,-4.4909,-4.5125,-4.5293,-4.579,-4.5862,-4.5694,-4.5197,-4.4693,-4.4141,-4.3553,-4.2735,-4.2303,-4.3072,-4.3,-4.3024,-4.3925,-4.3842,-4.2949,-4.1014,-4.0128,-3.8768,-3.587,-3.5191,-3.4715,-3.3544,-3.3418,-3.3242,-3.2754,-3.2324,-3.2157,-3.2387,-3.3402,-3.4678,-3.6139,-3.7138,-3.7846,-3.8323,-3.7917,-3.7708,-3.7708,-3.7495,-3.7364,-3.7364,-3.6231,-3.5576,-3.5576,-3.3459,-3.2399,-3.2342,-3.1265,-3.082,-4.0406,-4.0555,-3.9991,-3.8341,-3.9391,-3.967,-3.5218,-3.5124,-3.4688,-3.0377,-2.9211,-2.8657,-2.7713,-2.9199,-3.1192,-3.3054,-3.5222,-3.8142,-4.2134,-4.3385,-4.4314,-4.5526,-4.6143,-4.6449,-4.6449,-4.7155,-4.772,-4.791,-4.8662,-4.8546,-4.7115,-4.7444,-4.7662,-4.7805,-4.73,-4.7375,-4.791,-4.7566,-4.7464,-4.7794,-4.7488,-4.7631,-4.8222,-4.8851,-4.9109,-4.9084,-4.882,-4.8411,-4.7882,-4.7617,-4.7185,-4.6704,-4.6704,-4.6391,-4.5934,-4.5934,-4.5766,-4.5501,-4.5173,-4.4909,-4.4693,-4.4669,-4.4669,-4.4813,-4.5669,-4.5742,-4.5525,-4.5549,-4.5101,-4.4501,-4.3721,-4.3144,-4.2832,-4.3072,-4.2928,-4.2964,-4.3409,-4.3505,-4.3083,-4.1672,-4.0847,-3.9749,-3.772,-3.6276,-3.5191,-3.4528,-3.4465,-3.4304,-3.3861,-3.4226,-3.4149,-3.312,-3.4432,-3.5666,-3.6521,-3.7476,-3.8094,-3.8359,-3.8407,-3.8286,-3.7998,-3.8262,-3.8286,-3.7998,-3.6231,-3.5278,-3.5278,-3.2892,-3.1787,-3.173,-3.117,-3.0898,-4.0779,-4.127,-4.1325,-3.9253,-3.9197,-3.8666,-3.471,-3.3458,-3.2347,-2.9678,-2.8392,-2.7894,-2.8243,-2.9364,-3.0591,0.0,-3.3308,-3.5785,-3.9922,-4.1341,-4.3072,-4.603,-4.704,-4.7497,-4.7497,-4.8459,-4.9084,-4.9084,-5.0095,-4.998,-4.8395,-4.8267,-4.8494,-4.9272,-4.7932,-4.7794,-4.8916,-4.7978,-4.7714,-4.8122,-4.8122,-4.8411,-4.8916,-4.9349,-4.9517,-4.9493,-4.9084,-4.8603,-4.8098,-4.7666,-4.7112,-4.6535,-4.6535,-4.6223,-4.5766,-4.5766,-4.5838,-4.5862,-4.5453,-4.5245,-4.5149,-4.4621,-4.4381,-4.4453,-4.5269,-4.5317,-4.5125,-4.5501,-4.5317,-4.4861,-4.3938,-4.3601,-4.3385,-4.294,-4.2916,-4.294,-4.2843,-4.3072,-4.3072,-4.2158,-4.1483,-4.0657,-3.9436,-3.7309,-3.5807,-3.5807,-3.5561,-3.5375,-3.5305,-3.6297,-3.6362,-3.4577,-3.5658,-3.6662,-3.6904,-3.7678,-3.8166,-3.8166,-3.8455,-3.8431,-3.7998,-3.8527,-3.8551,-3.7998,-3.5995,-3.4891,-3.4781,-3.2457,-3.1286,-3.1286,-3.0995,-3.0898,-4.288,-4.3127,-4.2579,-4.151,-4.0445,-3.8766,-3.5097,-3.3392,-3.1779,-2.9107,-2.8131,-2.7732,-2.7762,-2.7882,0.0,0.0,0.0,-3.403,-3.7757,-4.0403,-4.2808,-4.502,-4.6583,-4.7497,-4.7497,-4.8459,-4.9084,-4.9084,-5.0095,-5.0794,-5.1081,-5.1105,-5.0938,-5.0555,-4.9453,-4.8707,-4.8363,-4.7786,-4.7521,-4.7569,-4.7569,-4.7858,-4.8363,-4.8411,-4.8435,-4.8435,-4.8387,-4.805,-4.7569,-4.7521,-4.692,-4.6006,-4.6006,-4.5669,-4.5149,-4.5149,-4.5438,-4.591,-4.5862,-4.5862,-4.5766,-4.5173,-4.4669,-4.4309,-4.4405,-4.4741,-4.4981,-4.4549,-4.4741,-4.4933,-4.4357,-4.389,-4.3385,-4.294,-4.312,-4.3313,-4.2916,-4.2867,-4.2663,-4.2086,-4.1955,-4.1294,-3.9508,-3.8029,-3.7127,-3.7127,-3.6154,-3.5786,-3.6941,-3.7739,-3.8146,-3.794,-3.7771,-3.8115,-3.9165,-3.8953,-3.8743,-3.8743,-3.831,-3.8046,-3.7974,-3.8527,-3.8551,-3.7998,-3.7185,-3.6525,-3.6013,-3.3685,-3.2514,-3.2514,-3.1402,-3.0898,-4.1954,-4.2827,-4.2973,-4.1133,-3.9192,-3.7224,-3.485,-3.2346,-3.0182,-2.8787,-2.781,-2.721,-2.721,-2.7474,0.0,0.0,0.0,0.0,-3.5136,-3.7084,-3.9537,-4.3265,-4.4828,-4.6102,-4.7377,-4.8459,-4.9349,-4.9998,-5.0143,-5.0287,-5.0503,-5.084,-5.0912,-5.072,-4.9638,-4.882,-4.8291,-4.7762,-4.7497,-4.7497,-4.7497,-4.7786,-4.8291,-4.8291,-4.8459,-4.8748,-4.8435,-4.8171,-4.7954,-4.7642,-4.7064,-4.6391,-4.6391,-4.6078,-4.5645,-4.5958,-4.6223,-4.6391,-4.6391,-4.6391,-4.6319,-4.579,-4.5197,-4.4765,-4.4765,-4.4909,-4.5029,-4.4813,-4.4909,-4.4957,-4.4429,-4.4117,-4.3794,-4.3012,-4.2904,-4.2832,-4.199,-4.2121,-4.2193,-4.1605,-4.1749,-4.1681,-4.0584,-3.9298,-3.8447,-3.8447,-3.8029,-3.785,-3.8387,-3.9406,-4.009,-4.009,-3.9335,-3.8943,-3.9097,-3.8936,-3.8671,-3.8334,-3.8431,-3.8334,-3.7998,-3.8839,-3.8537,-3.6958,-3.6271,-3.5322,-3.4078,-3.2457,-3.1614,-3.1614,-3.1112,-3.0898,-4.0398,-4.204,-4.3211,-4.132,-3.8908,-3.6518,-3.4647,-3.1664,-2.9051,-2.821,-2.732,-2.6657,-2.6657,-2.6946,0.0,0.0,0.0,-3.0302,-3.3142,-3.4895,-3.7276,-4.1148,-4.2808,-4.4419,-4.6367,-4.8098,-4.9517,-5.0624,-5.0046,-4.971,-4.9854,-4.995,-5.0143,-5.0455,-4.9397,-4.8748,-4.8531,-4.7834,-4.7497,-4.7497,-4.7497,-4.769,-4.805,-4.805,-4.8267,-4.8603,-4.8219,-4.805,-4.8026,-4.7666,-4.7185,-4.6704,-4.6704,-4.6487,-4.6199,-4.6583,-4.6824,-4.6944,-4.6944,-4.6944,-4.6872,-4.6319,-4.591,-4.5573,-4.5342,-4.5101,-4.4885,-4.5029,-4.4957,-4.4765,-4.4381,-4.4285,-4.4069,-4.3192,-4.2916,-4.2578,-4.1605,-4.1581,-4.1629,-4.1244,-4.1485,-4.1629,-4.1244,-4.0083,-3.9334,-3.9709,-3.9451,-3.9334,-3.9709,-4.0629,-4.1172,-4.1172,-4.0523,-3.985,-3.932,-3.9152,-3.8815,-3.8262,-3.8455,-3.8222,-3.7518,-3.8461,-3.8026,-3.5911,-3.5238,-3.4231,-3.2892,-3.1906,-3.146,-3.146,-3.146,-3.146,-3.8665,-4.1091,-4.3348,-4.2904,-4.0355,-3.73,-3.4607,-3.1557,-2.8859,-2.7234,-2.6502,-2.6117,-2.6117,-2.6117,0.0,0.0,0.0,0.0,-3.2202,-3.4751,-3.7012,-3.8671,-4.0715,-4.2615,-4.4165,-4.7233,-4.9517,-5.0624,-4.9686,-4.9325,-4.983,-4.8892,-4.8796,-4.983,-4.8844,-4.8555,-4.906,-4.8026,-4.7497,-4.7497,-4.7497,-4.7497,-4.7521,-4.7521,-4.7521,-4.7521,-4.7521,-4.7521,-4.7521,-4.7497,-4.7185,-4.6704,-4.6704,-4.6704,-4.6704,-4.6704,-4.704,-4.7497,-4.7497,-4.7497,-4.7401,-4.6872,-4.6704,-4.6607,-4.6078,-4.5125,-4.4405,-4.4933,-4.4693,-4.4285,-4.4285,-4.4285,-4.4141,-4.3649,-4.312,-4.2675,-4.2086,-4.1557,-4.1196,-4.1172,-4.1196,-4.1196,-4.1172,-4.0083,-3.965,-4.1,-4.0083,-3.965,-4.1,-4.1196,-4.1172,-4.1172,-4.1172,-4.0956,-4.0427,-3.9898,-3.9369,-3.8839,-3.8286,-3.7495,-3.6286,-3.7219,-3.6872,-3.5168,-3.4487,-3.3841,-3.3289,-3.2892,-3.2685,-3.2685,-3.2685,-3.2685,-3.5641,-3.7348,-3.8527,-3.7998,-3.5761,-3.3403,-3.2154,-2.9412,-2.6959,-2.6454,-2.5925,-2.5564,-2.5564,-2.5853,0.0,0.0,0.0,0.0,0.0,-3.4992,-3.7276,-3.9609,-4.3673,-4.6631,-4.7497,-4.882,-4.9926,-5.0648,-5.0022,-4.9541,-4.9325,-4.8676,-4.8603,-4.9301,-4.8652,-4.8363,-4.8531,-4.7858,-4.7497,-4.7497,-4.7497,-4.7497,-4.7497,-4.7497,-4.7497,-4.7497,-4.7497,-4.7497,-4.7497,-4.7497,-4.7401,-4.7257,-4.7257,-4.7257,-4.7257,-4.7257,-4.7353,-4.7497,-4.7497,-4.7497,-4.7425,-4.6896,-4.6463,-4.615,-4.5982,-4.5429,-4.4789,-4.4597,-4.4405,-4.4189,-4.3866,-4.3997,-4.4069,-4.3216,-4.294,-4.2675,-4.2145,-4.1557,-4.1172,-4.1172,-4.1172,-4.1172,-4.1172,-4.0884,-4.0687,-4.1115,-4.0803,-4.0687,-4.1115,-4.1172,-4.1172,-4.1172,-4.1172,-4.098,-4.0451,-3.9922,-3.9369,-3.8839,-3.8286,-3.7441,-3.6231,-3.6874,-3.6173,-3.3928,-3.3705,-3.3082,-3.2097,-3.251,-3.3063,-3.3832,-3.3832,-3.3832,0.0,-3.3958,-3.4847,-3.4535,-3.2731,-3.0922,-3.0158,-2.7969,-2.6045,-2.5829,-2.554,-2.53,-2.53,-2.5564,-2.643,0.0,0.0,0.0,-3.2346,-3.4487,-3.7108,-4.0571,-4.4611,-4.7545,-4.8676,-4.9445,-5.0191,-5.0936,-5.0119,-4.9421,-4.9084,-4.8387,-4.8147,-4.8483,-4.8171,-4.8098,-4.8291,-4.7762,-4.7497,-4.7497,-4.7497,-4.7497,-4.7497,-4.7497,-4.7497,-4.7497,-4.7497,-4.7497,0.0,-4.7497,-4.7497,-4.7497,-4.7497,-4.7497,-4.7497,-4.7497,-4.7497,-4.7497,-4.7497,-4.7377,-4.7136,-4.6824,-4.6367,-4.5886,-4.5694,-4.5342,-4.4957,-4.4429,-4.4285,-4.4165,-4.3649,-4.377,-4.3818,-4.2952,-4.2675,-4.2434,-4.2038,-4.1557,-4.1172,-4.1172,-4.1172,-4.1172,-4.1172,-4.1172,-4.1172,-4.1172,-4.1172,-4.1172,-4.1172,-4.1172,-4.1172,-4.1172,-4.1172,-4.098,-4.0451,-4.009,-3.9681,-3.9152,-3.8599,-3.7655,-3.6254,-3.6271,-3.5653,-3.4297,-3.3889,-3.3479,-3.3146,-3.372,-3.45,-3.538,-3.5643,-3.5223,0.0,-3.0903,-3.2106,-3.2106,-3.0951,-2.9532,-2.857,-2.7152,0.0,-2.542,-2.5348,-2.5372,-2.5372,-2.542,-2.5997,-2.7584,-2.7921,-2.8883,-3.1476,-3.3789,-3.6988,-4.1581,-4.4082,-4.615,-4.805,-4.9253,-5.0335,-5.1369,-4.9998,-4.9109,-4.9084,-4.8098,-4.7545,-4.7497,-4.7497,-4.7738,-4.8219,-4.7738,-4.7497,-4.7497,-4.7497,-4.7497,-4.7497,-4.7497,-4.7497,-4.7497,-4.7497,-4.7497,-4.7497,-4.7497,-4.7497,-4.7497,-4.7497,-4.7497,-4.7497,-4.7497,-4.7473,-4.7449,-4.7449,-4.7088,-4.6655,-4.6607,-4.6247,-4.5718,-4.5173,-4.5053,-4.4957,-4.4429,-4.4285,-4.4141,-4.3601,-4.3481,-4.3385,-4.2832,-4.241,-4.2073,-4.199,-4.1581,-4.122,-4.1196,-4.1172,-4.1172,-4.1172,-4.1172,-4.1196,-4.122,-4.1244,-4.1244,-4.1293,-4.1268,-4.1244,-4.1244,-4.1196,-4.098,-4.0451,-4.0403,-4.0138,-3.9585,-3.908,-3.801,-3.6254,-3.5558,-3.54,-3.5823,-3.4698,-3.4757,-3.5881,-3.6127,-3.653,-3.7155,-3.7625,-3.6534,-2.6262,0.0,-2.8194,-2.8194,-2.7633,-2.6959,0.0,0.0,-2.5468,-2.5324,0.0,-2.5901,-2.5901,-2.6598,-2.7536,-2.8739,-2.9941,-3.124,-3.2707,-3.6819,-4.0715,-4.3457,-4.6367,-4.8026,-4.7714,-4.9397,-5.0624,-5.0864,-5.0143,-4.9493,-4.9109,-4.8459,-4.7906,-4.7521,-4.7497,-4.7569,-4.769,-4.7569,-4.7497,-4.7497,-4.7497,-4.7497,-4.7497,-4.7497,-4.7497,-4.7497,-4.7497,-4.7497,-4.7497,-4.7497,-4.7497,-4.7497,-4.7497,-4.7497,-4.7497,-4.7497,-4.7257,-4.6896,-4.6896,-4.6559,-4.6054,-4.5645,-4.5077,-4.4621,-4.4501,-4.4741,-4.4957,-4.4429,-4.4285,-4.4069,-4.3192,-4.3216,-4.3289,-4.2375,-4.2434,-4.253,-4.2121,-4.187,-4.1677,-4.1268,-4.1172,-4.1172,-4.1172,-4.1172,-4.1317,-4.1725,-4.1774,-4.1942,-4.2386,-4.2097,-4.1774,-4.1774,-4.1437,-4.098,-4.0451,-4.0403,-3.9994,-3.9056,-3.8888,-3.801,-3.6254,-3.6018,-3.5759,-3.5285,-3.4901,-3.5134,-3.6082,-3.6106,-3.6897,-3.8357,-3.6952,-3.5968,-2.53,-2.5925,-2.6513,-2.6513,-2.6334,-2.6093,-2.6093,0.0,0.0,0.0,0.0,0.0,-2.6045,-2.6574,-2.756,-2.9364,-3.0182,-3.1553,-3.4318,-3.8238,-4.1798,-4.4333,-4.6872,-4.8507,-4.894,-4.9782,-5.0431,-5.0672,-4.9734,-4.9012,-4.8724,-4.8219,-4.7786,-4.7521,-4.7497,-4.7497,-4.7497,-4.7497,-4.7497,-4.7497,-4.7497,-4.7497,-4.7497,-4.7497,-4.7497,-4.7497,-4.7497,-4.7497,-4.7473,-4.7233,-4.7136,-4.7112,-4.6872,-4.6776,-4.6776,-4.6776,-4.6583,-4.6343,-4.6343,-4.6006,-4.5414,-4.4885,-4.4525,-4.4285,-4.4285,-4.4477,-4.4645,-4.4357,-4.4285,-4.4045,-4.3048,-4.3144,-4.3192,-4.1918,-4.2014,-4.2313,-4.1725,-4.1605,-4.1605,-4.1557,-4.1341,-4.1341,-4.1822,-4.1701,-4.1653,-4.1942,-4.1966,-4.2049,-4.2038,-4.1798,-4.1431,-4.0799,-4.0993,-4.0402,-3.8515,-3.9614,-3.9946,-3.8888,-3.8815,-3.8281,-3.7066,-3.6503,-3.6022,-3.5565,-3.5773,-3.6362,-3.7277,-3.7071,-3.74,-3.8357,-3.6989,-3.5701,-2.5396,-2.5829,-2.619,-2.6021,-2.6045,-2.6093,-2.6093,0.0,0.0,0.0,0.0,0.0,0.0,-2.6598,-2.756,-2.9845,-3.0302,-3.1985,-3.6603,-3.9345,-4.1942,-4.4741,-4.6607,-4.8267,-4.9926,-4.9878,-4.995,-5.0407,-4.9109,-4.8291,-4.8291,-4.7786,-4.7497,-4.7497,-4.7497,-4.7497,-4.7497,-4.7497,-4.7497,-4.7497,-4.7497,-4.7497,-4.7497,-4.7497,-4.7497,-4.7497,-4.7497,-4.7497,-4.7473,-4.6944,-4.6704,-4.6655,-4.6126,-4.5934,-4.5934,-4.5934,-4.5934,-4.591,-4.5838,-4.5453,-4.4885,-4.4429,-4.4285,-4.4285,-4.4285,-4.4285,-4.4285,-4.4285,-4.4285,-4.4069,-4.312,-4.3144,-4.3048,-4.1629,-4.1653,-4.1822,-4.1293,-4.1244,-4.1413,-4.1774,-4.1557,-4.1581,-4.2554,-4.2386,-4.211,-4.2206,-4.2134,-4.1966,-4.1581,-4.1413,-4.0806,-3.9472,-4.0246,-3.9545,-3.6208,-3.8423,-3.9523,-3.8472,-3.8659,-3.8521,-3.7892,-3.6796,-3.6164,-3.6016,-3.6688,-3.7544,-3.8559,-3.8114,-3.7958,-3.8123,-3.7012,-3.5468,-2.5853,-2.6382,-2.6561,-2.5661,-2.5757,-2.6093,-2.6093,0.0,0.0,0.0,0.0,0.0,0.0,-2.8931,-3.0278,-3.073,-3.3308,-3.6675,-4.0571,-4.223,-4.3553,-4.4909,-4.6944,-4.7954,-4.7377,-4.8459,-4.9229,-4.9325,-4.8676,-4.8291,-4.8291,-4.7786,-4.7497,-4.7497,-4.7497,-4.7497,-4.7497,-4.7497,-4.7497,-4.7497,-4.7497,-4.7497,-4.7497,-4.7497,-4.7497,-4.7497,-4.7497,-4.7497,-4.7473,-4.6944,-4.6704,-4.6655,-4.6126,-4.5934,-4.5934,-4.5934,-4.5934,-4.5862,-4.5342,-4.4837,-4.4405,-4.4309,-4.4285,-4.4285,-4.4285,-4.4285,-4.4285,-4.4285,-4.4285,-4.4141,-4.3553,-4.3144,-4.2771,-4.2014,-4.1918,-4.1822,-4.1293,-4.1533,-4.1749,-4.1365,-4.1605,-4.1894,-4.2062,-4.2458,-4.2784,-4.3216,-4.2904,-4.276,-4.312,-4.2399,-4.1353,-4.0038,-3.9669,-3.8534,-3.6092,-3.7246,-3.7673,-3.6633,-3.801,-3.8359,-3.7251,-3.6634,-3.6027,-3.5523,-3.6529,-3.7321,-3.7917,-3.7791,-3.8274,-3.9244,-3.5855,-3.4658,-2.5612,-2.6069,-2.6358,-2.5853,-2.6358,-2.6911,-2.6622,-2.655,0.0,0.0,0.0,0.0,0.0,-3.0254,-3.2102,-3.439,-3.7348,-4.0018,-4.1784,-4.312,-4.4189,-4.4981,-4.6487,-4.7473,-4.7569,-4.8219,-4.8652,-4.8652,-4.8171,-4.7858,-4.7858,-4.7642,-4.7497,-4.7497,-4.7497,-4.7497,-4.7497,-4.7497,-4.7497,-4.7497,-4.7497,-4.7497,-4.7497,-4.7497,-4.7497,-4.7473,-4.7209,-4.7064,-4.7016,-4.6199,-4.5862,-4.5814,-4.5221,-4.5005,-4.5005,-4.5005,-4.5005,-4.4981,-4.4741,-4.4501,-4.4285,-4.4285,-4.4285,-4.4285,-4.4285,-4.4285,-4.4285,-4.4285,-4.4285,-4.4165,-4.3649,-4.3553,-4.3337,-4.223,-4.2182,-4.2241,-4.1365,-4.1365,-4.1653,-4.1966,-4.2014,-4.2254,-4.3096,-4.3216,-4.3241,-4.3481,-4.3313,-4.3048,-4.2711,-4.2254,-4.1377,-3.9725,-3.9966,-3.9174,-3.6582,-3.7794,-3.828,-3.722,-3.7625,-3.7672,-3.7143,-3.6603,-3.6168,-3.5872,-3.6397,-3.6902,-3.7441,-3.7664,-3.7941,-3.8176,-3.5712,-3.4488,-2.5468,-2.5877,-2.6262,-2.6117,0.0,-2.7522,-2.7618,-2.7642,-2.7882,0.0,0.0,0.0,0.0,-3.1817,-3.4006,-3.7757,-4.0595,-4.2471,-4.2856,-4.4058,-4.5029,-4.5621,-4.6415,-4.7209,-4.8026,-4.8098,-4.8098,-4.8098,-4.7738,-4.7497,-4.7497,-4.7497,-4.7497,-4.7497,-4.7497,-4.7497,-4.7497,-4.7497,-4.7497,-4.7497,-4.7497,-4.7425,-4.7329,-4.7329,-4.7257,-4.7112,-4.6704,-4.6535,-4.6463,-4.5525,-4.5077,-4.5029,-4.4501,-4.4285,-4.4285,-4.4285,-4.4285,-4.4309,-4.4429,-4.4381,-4.4285,-4.4285,-4.4285,-4.4285,-4.4285,-4.4285,-4.4285,-4.4285,-4.4189,-4.3997,-4.3625,-4.3649,-4.3505,-4.2423,-4.2338,-4.2265,-4.1509,-4.1268,-4.1413,-4.2289,-4.2217,-4.2375,-4.3577,-4.3649,-4.3505,-4.3505,-4.3505,-4.3192,-4.2279,-4.2062,-4.1282,-3.9403,-4.0141,-3.9756,-3.7303,-3.8387,-3.8902,-3.8238,-3.7512,-3.7089,-3.7089,-3.6603,-3.6332,-3.6332,-3.644,-3.6758,-3.7308,-3.7707,-3.7762,-3.7439,-3.5669,-3.4431,-2.5901,-2.6454,-2.6705,-2.6214,-2.655,-2.745,-2.9412,-2.9869,-3.0446,-3.2466,-3.2899,-3.2779,-3.2394,-3.4366,-3.6819,-3.9104,-4.1701,-4.3914,-4.5429,-4.615,-4.6728,-4.7257,-4.7401,-4.7473,-4.7545,-4.7569,-4.7569,-4.7569,-4.7521,-4.7497,-4.7497,-4.7497,-4.7497,-4.7497,-4.7497,-4.7497,-4.7497,-4.7497,-4.7497,-4.7497,-4.7497,-4.7233,-4.6776,-4.6776,-4.6511,-4.603,-4.6006,-4.5982,-4.5934,-4.5317,-4.5077,-4.5029,-4.4501,-4.4285,-4.4285,-4.4285,-4.4285,-4.4357,-4.4837,-4.4693,-4.4285,-4.4285,-4.4285,-4.4285,-4.4285,-4.4285,-4.4285,-4.4285,-4.3901,-4.3553,-4.3529,-4.2832,-4.223,-4.2675,-4.199,-4.1413,-4.1822,-4.1533,-4.1196,-4.1293,-4.1677,-4.2014,-4.2134,-4.2904,-4.3505,-4.3505,-4.3505,-4.3313,-4.2843,-4.2338,-4.1282,-3.9403,-3.9275,-3.9068,-3.8331,-3.8079,-3.8157,-3.8737,-3.7726,-3.7089,-3.7089,-3.6603,-3.6332,-3.6332,-3.6796,-3.7324,-3.7848,-3.7895,-3.8169,-3.8581,-3.5373,-3.4488,-2.6142,-2.6502,-2.6922,-2.7079,-2.7234,0.0,0.0,-3.0374,-3.1577,-3.338,-3.4294,-3.4871,-3.5328,-3.7324,-3.9465,-4.1268,-4.3794,-4.5838,-4.6776,-4.7353,-4.7642,-4.7521,-4.7497,-4.7497,-4.7497,-4.7497,-4.7497,-4.7497,-4.7497,-4.7497,-4.7497,-4.7497,-4.7497,-4.7497,-4.7497,-4.7497,-4.7497,-4.7497,-4.7329,-4.7016,-4.7016,-4.692,-4.6704,-4.6367,-4.6102,-4.5886,-4.5173,-4.4885,-4.4813,-4.401,-4.3842,-4.4106,-4.3914,-4.3818,-4.3818,-4.3818,-4.3997,-4.4309,-4.4525,-4.4453,-4.4285,-4.4285,-4.4285,-4.4213,-4.3877,-4.3818,-4.377,-4.3457,-4.2976,-4.2711,-4.3337,-4.3216,-4.2832,-4.2375,-4.2265,-4.2097,-4.1581,-4.1317,-4.1268,-4.1605,-4.1846,-4.2145,-4.2458,-4.2784,-4.3144,-4.3457,-4.3505,-4.3337,-4.2891,-4.2651,-4.1934,-4.0584,-4.0455,-4.0243,-3.9722,-3.9486,-3.926,-3.8809,-3.8058,-3.7472,-3.7089,-3.6928,-3.696,-3.7286,-3.7554,-3.7941,-3.8466,-3.8132,-3.8072,-3.8233,-3.5435,-3.4376,-2.6166,-2.6622,-2.7186,-2.7378,0.0,0.0,-3.0062,-3.1408,-3.3068,-3.5328,-3.6098,-3.6579,-3.73,-3.8936,-4.0667,-4.2313,-4.4732,-4.6704,-4.7401,-4.781,-4.7906,-4.7545,-4.7497,-4.7497,-4.7497,-4.7497,-4.7497,-4.7497,-4.7497,-4.7497,-4.7497,-4.7497,-4.7497,-4.7497,-4.7497,-4.7425,-4.7257,-4.7257,-4.6992,-4.6463,-4.6126,-4.6054,-4.6199,-4.5838,-4.5597,-4.5317,-4.4405,-4.4021,-4.3949,-4.312,-4.2952,-4.3265,-4.3096,-4.3216,-4.3481,-4.3144,-4.3481,-4.4021,-4.4021,-4.4021,-4.4045,-4.4213,-4.4165,-4.3949,-4.3625,-4.3409,-4.3192,-4.2916,-4.2434,-4.2134,-4.2832,-4.2904,-4.2639,-4.211,-4.211,-4.211,-4.1557,-4.1293,-4.1293,-4.1653,-4.1725,-4.1846,-4.2265,-4.2458,-4.2687,-4.3192,-4.3265,-4.3144,-4.2867,-4.2675,-4.2217,-4.1268,-4.1172,-4.1028,-4.0667,-4.0643,-4.0258,-3.9369,-3.8745,-3.8122,-3.7435,-3.7388,-3.7554,-3.7909,-3.7953,-3.8166,-3.8551,-3.8166,-3.7814,-3.7388,-3.5278,-3.3979,-2.5973,-2.6911,-2.757,-2.7042,0.0,0.0,-3.2274,-3.3332,-3.5136,-3.8864,-3.8767,-3.8051,-3.8022,-3.8888,-4.0138,-4.1784,-4.4202,-4.6295,-4.7353,-4.7497,-4.7497,-4.7497,-4.7497,-4.7497,-4.7497,-4.7497,-4.7497,-4.7497,-4.7497,-4.7473,-4.7473,-4.7473,-4.7473,-4.7473,-4.7473,-4.7233,-4.6704,-4.6704,-4.6439,-4.5886,-4.4789,-4.4549,-4.5077,-4.5053,-4.4765,-4.4237,-4.3746,-4.3505,-4.3457,-4.2952,-4.2819,-4.2747,-4.2241,-4.2591,-4.3361,-4.2351,-4.2615,-4.3505,-4.3505,-4.3505,-4.3601,-4.4093,-4.3962,-4.3529,-4.3505,-4.3168,-4.2819,-4.2795,-4.2434,-4.1966,-4.1966,-4.1581,-4.1317,-4.1904,-4.1581,-4.1341,-4.1846,-4.1557,-4.1196,-4.1196,-4.1196,-4.1196,-4.1196,-4.1629,-4.2134,-4.2723,-4.2819,-4.2819,-4.2819,-4.2303,-4.1774,-4.1244,-4.1172,-4.1172,-4.1172,-4.1172,-4.0956,-4.0427,-3.9898,-3.9128,-3.8046,-3.7974,-3.7974,-3.7998,-3.7974,-3.7974,-3.7998,-3.7974,-3.7388,-3.6177,-3.4703,-3.336,-2.743,-2.8017,0.0,-2.91,0.0,0.0,0.0,-3.4944,0.0,-3.9946,-4.0696,-4.0605,-4.033,-4.1647,-4.2904,-4.3107,-4.4371,-4.5862,-4.7305,-4.7185,-4.7088,-4.7449,-4.7497,-4.7497,-4.7497,-4.7161,-4.6944,-4.6944,-4.6607,-4.6391,-4.6391,-4.6391,-4.6391,-4.6391,-4.6391,-4.6319,-4.615,-4.579,-4.5269,-4.4741,-4.4106,-4.4251,-4.5029,-4.3986,-4.3577,-4.3697,-4.2808,-4.2423,-4.2423,-4.2254,-4.199,-4.1677,-4.1894,-4.2158,-4.2399,-4.2086,-4.2399,-4.2976,-4.2976,-4.3216,-4.3553,-4.3697,-4.3853,-4.3962,-4.3216,-4.294,-4.2651,-4.187,-4.1533,-4.1413,-4.1413,-4.1293,-4.122,-4.1389,-4.187,-4.2193,-4.1557,-4.1928,-4.2182,-4.1856,-4.1725,-4.1725,-4.1725,-4.1557,-4.1605,-4.2193,-4.2265,-4.2265,-4.2265,-4.1749,-4.1365,-4.1196,-4.1172,-4.1172,-4.1172,-4.1172,-4.0956,-4.0427,-4.0234,-3.9681,-3.8623,-3.819,-3.8166,-3.8551,-3.819,-3.819,-3.8575,-3.7362,-3.6557,-3.6122,-3.4056,-3.2892,-2.8129,-2.8643,0.0,-3.0513,-3.1673,-3.3356,-3.6242,-3.7541,-3.8948,-4.1809,-4.2396,-4.2494,-4.2591,-4.33,-4.3961,-4.4132,-4.4691,-4.5486,-4.6704,-4.6607,-4.6511,-4.6848,-4.7064,-4.7112,-4.6896,-4.6776,-4.6631,-4.6415,-4.6102,-4.5934,-4.5934,-4.5718,-4.5597,-4.5597,-4.5405,-4.5188,-4.4972,-4.4659,-4.4227,-4.3721,-4.3168,-4.3361,-4.4154,-4.3192,-4.2928,-4.3168,-4.2327,-4.1846,-4.1653,-4.1437,-4.1148,-4.0908,-4.122,-4.1485,-4.1653,-4.1653,-4.199,-4.2506,-4.2506,-4.2639,-4.2928,-4.3144,-4.3433,-4.3553,-4.2711,-4.2651,-4.2602,-4.1485,-4.1341,-4.1509,-4.1509,-4.1509,-4.1437,-4.122,-4.1677,-4.2024,-4.1317,-4.1677,-4.2169,-4.199,-4.1966,-4.1966,-4.1966,-4.1701,-4.1605,-4.1918,-4.1966,-4.1894,-4.1677,-4.1389,-4.1172,-4.1172,-4.1172,-4.1172,-4.1172,-4.1172,-4.1052,-4.0739,-4.0523,-4.0114,-3.9465,-3.8912,-3.8791,-3.9128,-3.8599,-3.8479,-3.8815,-3.7053,-3.5959,-3.5466,-3.3572,-3.2457,-2.8352,-2.8996,-2.9863,-3.1448,-3.3114,-3.5184,-3.8214,-4.0451,-4.2355,-4.3912,-4.3896,-4.394,-4.4873,-4.4333,-4.4053,-4.4982,-4.5061,-4.5197,-4.5838,-4.5886,-4.5862,-4.591,-4.6343,-4.6463,-4.5982,-4.6271,-4.6295,-4.5814,-4.5694,-4.5645,-4.5645,-4.5188,-4.4924,-4.4924,-4.4405,-4.3962,-4.3457,-4.3385,-4.3144,-4.2747,-4.2158,-4.2158,-4.2675,-4.2675,-4.2675,-4.2651,-4.2169,-4.1605,-4.1076,-4.0643,-4.0403,-4.0331,-4.0379,-4.0691,-4.1124,-4.1124,-4.1437,-4.1894,-4.1894,-4.1942,-4.2062,-4.2602,-4.2771,-4.2723,-4.2193,-4.241,-4.2602,-4.1533,-4.1629,-4.2038,-4.2038,-4.2038,-4.1918,-4.1437,-4.1317,-4.1293,-4.1196,-4.1268,-4.1461,-4.2,-4.2038,-4.2121,-4.211,-4.2038,-4.1966,-4.1918,-4.1894,-4.1725,-4.1244,-4.1172,-4.1172,-4.1172,-4.1172,-4.1172,-4.1172,-4.1172,-4.1172,-4.1172,-4.0739,-4.0475,-4.0475,-3.9922,-3.9609,-3.9609,-3.9128,-3.8864,-3.8815,-3.7037,-3.5533,-3.4391,-3.3275,-3.2174,-2.8924,-2.9919,0.0,-3.2543,-3.5186,-3.7802,-3.9135,-4.0427,-4.1895,-4.3837,-4.5019,-4.5955,-4.6565,-4.655,-4.6341,-4.6238,-4.5231,-4.4789,-4.579,-4.5573,-4.5453,-4.5886,-4.603,-4.6054,-4.5934,-4.5221,-4.4741,-4.4621,-4.3914,-4.3433,-4.3433,-4.3337,-4.3265,-4.3265,-4.3168,-4.3048,-4.2928,-4.2519,-4.2254,-4.2193,-4.1605,-4.1413,-4.1533,-4.1533,-4.1533,-4.1509,-4.1413,-4.1052,-4.0595,-4.0884,-4.0523,-3.9826,-4.0234,-4.0475,-4.0571,-4.0571,-4.0908,-4.1365,-4.1365,-4.1629,-4.2049,-4.211,-4.2482,-4.2723,-4.2193,-4.241,-4.2675,-4.199,-4.2182,-4.2651,-4.2651,-4.2651,-4.2627,-4.2506,-4.2482,-4.2265,-4.1365,-4.1846,-4.2506,-4.2627,-4.2651,-4.2711,-4.312,-4.2519,-4.1822,-4.1413,-4.1365,-4.1317,-4.1196,-4.1172,-4.1172,-4.1172,-4.1172,-4.1172,-4.1172,-4.1172,-4.1172,-4.1172,-4.1076,-4.1004,-4.1004,-4.0114,-3.9609,-3.9609,-3.9489,-3.9224,-3.8815,-3.6872,-3.5417,-3.4391,-3.3534,-3.2843,-2.9524,0.0,0.0,-3.3717,0.0,-3.8922,-3.9472,-4.074,-4.2307,-4.4073,-4.5253,-4.6315,-4.7486,-4.6965,-4.6287,-4.6121,-4.4691,-4.3794,-4.4323,-4.4178,-4.4106,-4.4371,-4.4611,-4.4683,-4.4443,-4.413,-4.3842,-4.3601,-4.3072,-4.2819,-4.2819,-4.2578,-4.2434,-4.2434,-4.1894,-4.1629,-4.1629,-4.11,-4.0836,-4.0836,-4.0571,-4.0427,-4.0451,-4.0956,-4.1052,-4.0812,-4.0812,-4.0643,-4.0379,-4.0138,-3.9729,-3.9248,-3.9537,-3.9801,-4.0042,-4.0306,-4.0739,-4.1172,-4.1172,-4.1365,-4.1605,-4.1605,-4.2,-4.2338,-4.1749,-4.2303,-4.2952,-4.2182,-4.2519,-4.312,-4.312,-4.312,-4.312,-4.312,-4.2928,-4.2602,-4.1725,-4.199,-4.2506,-4.2771,-4.2819,-4.2988,-4.3433,-4.2663,-4.1928,-4.1605,-4.1341,-4.1172,-4.1172,-4.1413,-4.1557,-4.1557,-4.1557,-4.1557,-4.1557,-4.1317,-4.1172,-4.1172,-4.1172,-4.1172,-4.1172,-4.0643,-4.0355,-4.0355,-4.0114,-3.985,-3.9561,-3.7724,-3.6543,-3.5994,-3.4747,-3.4125,-2.989,0.0,-3.2326,-3.4552,-3.6962,0.0,-3.9274,-4.0771,-4.2493,-4.4032,-4.5103,-4.6226,-4.7891,-4.6757,-4.5488,-4.5488,-4.3952,-4.2819,-4.2819,-4.2819,-4.2819,-4.2819,-4.312,-4.3216,-4.2867,-4.3048,-4.3072,-4.2723,-4.2506,-4.241,-4.241,-4.1846,-4.1557,-4.1557,-4.0715,-4.0258,-4.0258,-3.9826,-3.9609,-3.9609,-3.9609,-3.9561,-3.9513,-4.0475,-4.0667,-4.0258,-4.0258,-4.021,-4.0066,-3.9272,-3.8839,-3.8695,-3.8888,-3.9224,-3.9657,-4.0186,-4.0739,-4.1172,-4.1172,-4.1172,-4.1172,-4.1172,-4.1485,-4.1749,-4.1317,-4.2158,-4.3072,-4.2206,-4.2663,-4.3385,-4.3385,-4.3385,-4.3409,-4.3481,-4.3192,-4.2711,-4.211,-4.2038,-4.2289,-4.2723,-4.2904,-4.3144,-4.3457,-4.2808,-4.2182,-4.2049,-4.1605,-4.1317,-4.1317,-4.1701,-4.2073,-4.2169,-4.2097,-4.1966,-4.1966,-4.1485,-4.1172,-4.1172,-4.1172,-4.1172,-4.1172,-4.1172,-4.1172,-4.1172,-4.0763,-4.0499,-4.0403,-3.8811,-3.7964,-3.778,-3.6329,-3.5575,0.0,0.0,-3.2915,0.0,-3.5917,-3.738,0.0,-3.9476,-4.0802,-4.2527,-4.4887,-4.6925,-4.8028,-4.6757,-4.5488,-4.5488,-4.3952,-4.2819,-4.2819,-4.2819,-4.2819,-4.2819,-4.2891,-4.2891,-4.2819,-4.2399,-4.2158,-4.2086,-4.122,-4.0715,-4.0715,-4.021,-3.9922,-3.9922,-3.9777,-3.9705,-3.9705,-3.9633,-3.9609,-3.9609,-3.9609,-3.9369,-3.8936,-3.9537,-3.9777,-3.9705,-3.9705,-3.9441,-3.9056,-3.9369,-3.896,-3.819,-3.9128,-3.9537,-3.9657,-4.0186,-4.0739,-4.1172,-4.1172,-4.1172,-4.1172,-4.1172,-4.122,-4.1268,-4.1196,-4.1653,-4.2158,-4.2014,-4.2399,-4.2916,-4.2916,-4.2916,-4.2976,-4.3409,-4.3457,-4.3144,-4.2182,-4.2386,-4.2723,-4.2795,-4.3505,-4.3949,-4.3577,-4.3385,-4.3,-4.211,-4.1976,-4.187,-4.187,-4.1976,-4.2217,-4.2651,-4.2313,-4.1966,-4.1966,-4.1485,-4.1172,-4.1172,-4.1172,-4.1172,-4.1172,-4.1172,-4.1172,-4.1172,-4.1124,-4.086,-4.0403,-3.9453,-3.8573,-3.7803,-3.7508,-3.7121,-3.0532,-3.153,-3.266,0.0,-3.4962,-3.6431,-3.7667,-3.9144,-4.0721,-4.2259,-4.4198,-4.5873,-4.6594,-4.5255,-4.4181,-4.4489,-4.3037,-4.1774,-4.1485,-4.1437,-4.1317,-4.1028,-4.1004,-4.1124,-4.1413,-4.0956,-4.0763,-4.1076,-4.0379,-3.9946,-3.9946,-3.9729,-3.9609,-3.9609,-3.932,-3.9176,-3.9176,-3.8864,-3.8695,-3.8695,-3.8695,-3.8575,-3.8359,-3.8599,-3.8864,-3.9176,-3.9176,-3.9032,-3.8815,-3.8719,-3.8407,-3.8022,-3.8503,-3.908,-3.9633,-3.9874,-4.0475,-4.1172,-4.1172,-4.1172,-4.1172,-4.1172,-4.1172,-4.1172,-4.1172,-4.1557,-4.1966,-4.1966,-4.241,-4.2819,-4.2819,-4.2819,-4.2867,-4.3048,-4.3096,-4.288,-4.2134,-4.2458,-4.2819,-4.2819,-4.3361,-4.389,-4.3962,-4.3721,-4.3265,-4.2519,-4.2217,-4.187,-4.1581,-4.1798,-4.2121,-4.2362,-4.211,-4.1966,-4.1966,-4.1485,-4.1172,-4.1172,-4.1172,-4.1172,-4.1172,-4.1172,-4.1172,-4.1172,-4.1172,-4.1076,-4.0836,-4.051,-4.0103,-3.9689,-3.9066,-3.8665,0.0,0.0,-3.203,-3.2567,-3.4019,-3.5711,0.0,-3.8836,-4.0527,-4.211,-4.3291,-4.4207,-4.4735,-4.3625,-4.2792,-4.3038,-4.1811,-4.0643,-4.0258,-4.0186,-4.0042,-3.9657,-3.9609,-3.9753,-4.0162,-3.9826,-3.9777,-4.0162,-3.9705,-3.9417,-3.9417,-3.9272,-3.92,-3.92,-3.8815,-3.8599,-3.8599,-3.8046,-3.7781,-3.7781,-3.7781,-3.7781,-3.7781,-3.7926,-3.8214,-3.8599,-3.8599,-3.8599,-3.8575,-3.8142,-3.7974,-3.7998,-3.8142,-3.8695,-3.9441,-3.9705,-4.0306,-4.1004,-4.1124,-4.1172,-4.1172,-4.1172,-4.1172,-4.1172,-4.1172,-4.1461,-4.1774,-4.1774,-4.2062,-4.241,-4.241,-4.241,-4.2458,-4.2578,-4.2627,-4.2554,-4.223,-4.2434,-4.2651,-4.2795,-4.3072,-4.3481,-4.3973,-4.3794,-4.3385,-4.3,-4.2554,-4.2097,-4.1629,-4.1822,-4.2014,-4.2217,-4.2062,-4.1966,-4.1966,-4.1485,-4.1172,-4.1172,-4.1172,-4.1172,-4.1172,-4.1172,-4.1172,-4.1172,-4.1172,-4.1172,-4.1172,-4.1172,-4.1172,-4.1172,-4.0234,-3.9729,-2.9314,-3.0074,0.0,-3.1491,-3.3107,-3.5097,-3.6836,-3.8163,-3.9627,-4.1605,-4.2066,-4.2253,-4.2687,-4.2398,-4.1917,-4.1193,-4.0263,-3.9681,-3.9657,-3.9657,-3.9633,-3.9609,-3.9609,-3.9609,-3.9657,-3.9633,-3.9609,-3.9657,-3.9152,-3.8864,-3.8864,-3.8359,-3.807,-3.807,-3.8046,-3.8022,-3.8022,-3.7493,-3.7228,-3.7228,-3.7228,-3.7228,-3.7252,-3.7757,-3.7998,-3.8022,-3.8022,-3.8022,-3.8022,-3.7998,-3.7974,-3.8046,-3.8575,-3.8815,-3.8984,-3.9994,-4.0379,-4.0499,-4.1004,-4.1172,-4.1172,-4.1172,-4.1172,-4.1172,-4.1172,-4.1196,-4.122,-4.122,-4.1244,-4.1268,-4.1268,-4.1268,-4.1389,-4.1894,-4.2014,-4.2134,-4.2675,-4.241,-4.2217,-4.2723,-4.2843,-4.2952,-4.3457,-4.3529,-4.3505,-4.3481,-4.3048,-4.2771,-4.2747,-4.2313,-4.2217,-4.2723,-4.2338,-4.1966,-4.1966,-4.1485,-4.1172,-4.1172,-4.1172,-4.1172,-4.1172,-4.1172,-4.1172,-4.1172,-4.1172,-4.1172,-4.1172,-4.1172,-4.1172,-4.1172,-4.0619,-4.009,-3.0608,0.0,0.0,-3.1361,-3.2386,-3.3774,-3.5647,-3.7033,-3.8474,-4.0456,-4.0838,-4.071,-4.0233,-4.0926,-4.1381,-4.0935,-4.019,-3.9489,-3.9152,-3.9104,-3.896,-3.8599,-3.8551,-3.8695,-3.9056,-3.8767,-3.8719,-3.908,-3.8286,-3.7781,-3.7781,-3.7252,-3.6964,-3.6964,-3.6964,-3.6964,-3.6964,-3.6771,-3.6699,-3.6699,-3.6699,-3.6699,-3.6699,-3.7228,-3.7469,-3.7493,-3.7829,-3.7974,-3.7974,-3.7974,-3.7974,-3.7998,-3.819,-3.8503,-3.8864,-3.9248,-3.9801,-4.0427,-4.0619,-4.0908,-4.1172,-4.1172,-4.1172,-4.1172,-4.1172,-4.1172,-4.1172,-4.1172,-4.1172,-4.1172,-4.1172,-4.1172,-4.122,-4.1413,-4.1461,-4.1509,-4.1701,-4.1605,-4.1629,-4.2158,-4.2313,-4.2482,-4.2928,-4.3289,-4.3409,-4.3072,-4.294,-4.2699,-4.2362,-4.1798,-4.1533,-4.1725,-4.1581,-4.1605,-4.1942,-4.1485,-4.1317,-4.1677,-4.1365,-4.1172,-4.1172,-4.1172,-4.1172,-4.1172,-4.1172,-4.1172,-4.1172,-4.0836,-4.0691,-4.0667,-4.0138,-3.9777,-3.1235,-3.1009,0.0,-3.1639,-3.2187,-3.3014,-3.4793,-3.5848,-3.693,-3.8634,-3.9319,-3.9473,-3.8986,-3.9691,-4.0185,-3.9495,-3.9024,-3.8623,-3.807,-3.8166,-3.807,-3.7517,-3.7445,-3.7589,-3.7974,-3.7661,-3.7613,-3.7974,-3.7324,-3.6916,-3.6916,-3.6603,-3.6411,-3.6411,-3.6411,-3.6411,-3.6411,-3.6218,-3.6146,-3.6146,-3.6146,-3.6146,-3.617,-3.6699,-3.6916,-3.694,-3.73,-3.7661,-3.7974,-3.7974,-3.7974,-3.7974,-3.7974,-3.8214,-3.8551,-3.8743,-3.9272,-3.9922,-4.0282,-4.0619,-4.0956,-4.1124,-4.1172,-4.1172,-4.1172,-4.1172,-4.1172,-4.1172,-4.1172,-4.1172,-4.1172,-4.1172,-4.1172,-4.1172,-4.1172,-4.1172,-4.1172,-4.1172,-4.1293,-4.1629,-4.1701,-4.187,-4.2458,-4.276,-4.2928,-4.2843,-4.2675,-4.2434,-4.2073,-4.1509,-4.1172,-4.1172,-4.1172,-4.1389,-4.1918,-4.1485,-4.1413,-4.1942,-4.1485,-4.1172,-4.1172,-4.1172,-4.1172,-4.1172,-4.1172,-4.1172,-4.1172,-4.0643,-4.0499,-4.0643,-4.0114,-3.9874,0.0,0.0,0.0,-3.2209,-3.2567,-3.3041,-3.4192,-3.463,-3.514,-3.6334,-3.7528,-3.8431,-3.8859,-3.8791,-3.8184,-3.6594,-3.6795,-3.6988,-3.6483,-3.6843,-3.6988,-3.6459,-3.6411,-3.6411,-3.6411,-3.6411,-3.6386,-3.6386,-3.6362,-3.6362,-3.6338,-3.6338,-3.6338,-3.6362,-3.6362,-3.6362,-3.6362,-3.5857,-3.5593,-3.5593,-3.5593,-3.5593,-3.5617,-3.6146,-3.6386,-3.6386,-3.6386,-3.6988,-3.7926,-3.795,-3.795,-3.795,-3.7974,-3.7974,-3.8046,-3.8599,-3.8815,-3.896,-3.9994,-4.0355,-4.0451,-4.098,-4.1172,-4.1172,-4.1172,-4.1172,-4.1172,-4.1172,-4.1172,-4.1172,-4.1172,-4.1172,-4.1172,-4.1172,-4.1172,-4.1172,-4.1172,-4.1172,-4.1172,-4.1172,-4.1172,-4.1341,-4.187,-4.1966,-4.2217,-4.2723,-4.2303,-4.1966,-4.1966,-4.1509,-4.1172,-4.1172,-4.1172,-4.1413,-4.2,-4.1509,-4.1413,-4.1966,-4.1485,-4.1172,-4.1172,-4.1172,-4.1172,-4.1172,-4.1172,-4.1172,-4.1172,-4.0643,-4.0667,-4.1148,-4.0643,-4.0403,-3.132,0.0,0.0,0.0,0.0,0.0,-3.3692,-3.4202,-3.4826,-3.575,-3.6225,-3.6437,-3.6462,-3.6404,-3.5892,-3.4459,-3.5575,-3.6579,-3.6435,-3.6531,-3.6579,-3.6411,-3.6411,-3.6411,-3.6411,-3.6411,-3.6242,-3.5857,-3.5473,-3.5039,-3.4655,-3.4655,-3.4823,-3.5256,-3.5256,-3.5256,-3.5256,-3.5112,-3.4991,-3.4991,-3.4991,-3.4991,-3.5015,-3.5593,-3.5833,-3.5857,-3.6242,-3.6579,-3.6867,-3.7252,-3.7421,-3.7445,-3.7829,-3.7974,-3.7998,-3.8166,-3.8479,-3.8864,-3.9152,-3.9513,-3.9922,-4.0451,-4.0619,-4.0691,-4.1076,-4.1172,-4.1172,-4.1172,-4.1172,-4.1172,-4.1172,-4.1172,-4.1172,-4.1172,-4.1172,-4.1172,-4.1172,-4.1172,-4.1172,-4.1172,-4.1172,-4.122,-4.1365,-4.1725,-4.2073,-4.2217,-4.2121,-4.1966,-4.1966,-4.1509,-4.1172,-4.1172,-4.1172,-4.1557,-4.253,-4.1701,-4.1581,-4.2554,-4.1677,-4.1172,-4.1172,-4.1172,-4.1172,-4.1172,-4.1172,-4.1172,-4.1172,-4.0643,-4.0475,-4.0619,-4.0475,-4.0403,-3.2275,-3.2012,-3.1967,-3.2973,0.0,0.0,-3.289,-3.3293,-3.3688,-3.3533,-3.4082,-3.4588,-3.454,-3.4601,-3.4367,-3.3305,-3.4089,-3.4847,-3.5089,-3.528,-3.5328,-3.5136,-3.5112,-3.5112,-3.5112,-3.5112,-3.4968,-3.4679,-3.4366,-3.4054,-3.3741,-3.3717,-3.3861,-3.4174,-3.4198,-3.4198,-3.4198,-3.4198,-3.4294,-3.4462,-3.4462,-3.4558,-3.4799,-3.5136,-3.528,-3.5304,-3.5617,-3.5737,-3.5785,-3.6314,-3.6795,-3.7228,-3.7541,-3.7781,-3.7974,-3.7974,-3.819,-3.8503,-3.8743,-3.9032,-3.9369,-3.9898,-4.021,-4.0451,-4.0763,-4.1004,-4.1172,-4.1172,-4.1172,-4.1172,-4.1172,-4.1172,-4.1172,-4.1172,-4.1172,-4.1172,-4.1172,-4.1172,-4.1172,-4.1172,-4.1172,-4.1172,-4.1172,-4.1437,-4.1653,-4.1653,-4.1653,-4.1653,-4.1653,-4.1365,-4.1172,-4.1172,-4.1172,-4.1533,-4.241,-4.187,-4.1774,-4.2458,-4.1846,-4.1413,-4.1196,-4.1172,-4.1172,-4.1172,-4.1172,-4.1172,-4.1172,-4.0643,-4.0403,-4.0403,-4.0403,-4.0523,-3.3413,-3.2908,-3.2594,-3.4098,-3.3605,0.0,-3.2083,-3.2387,-3.2392,-3.0977,-3.1947,-3.3043,-3.3006,-3.3286,-3.33,-3.2695,-3.25,-3.2616,-3.3136,-3.3525,-3.3645,-3.3332,-3.3236,-3.3212,-3.3212,-3.3212,-3.314,-3.302,-3.2971,-3.2996,-3.3116,-3.3116,-3.3164,-3.3284,-3.3284,-3.3284,-3.3284,-3.3284,-3.3549,-3.3982,-3.3982,-3.427,-3.4775,-3.4775,-3.4775,-3.4775,-3.4775,-3.4775,-3.4823,-3.5328,-3.6146,-3.7108,-3.718,-3.7517,-3.7974,-3.7974,-3.7974,-3.8046,-3.8551,-3.8719,-3.8815,-3.9345,-3.9826,-4.0234,-4.0355,-4.0715,-4.11,-4.1172,-4.1148,-4.11,-4.11,-4.11,-4.11,-4.11,-4.1148,-4.1172,-4.1172,-4.1172,-4.1172,-4.11,-4.1148,-4.1172,-4.1172,-4.1172,-4.1172,-4.1172,-4.1172,-4.1172,-4.1172,-4.1172,-4.1172,-4.1172,-4.1172,-4.1389,-4.1918,-4.1976,-4.1976,-4.1966,-4.1918,-4.1677,-4.1196,-4.1172,-4.1172,-4.1172,-4.1172,-4.1172,-4.1172,-4.0715,-4.0475,-4.0475,-4.0475,-4.0739,-3.3823,-3.3165,-3.2608,-3.3542,-3.3517,0.0,-3.2644,-3.2869,-3.3071,-3.2664,-3.2682,-3.2717,-3.2418,-3.2326,-3.2121,-3.1534,-3.1356,-3.1631,-3.2533,-3.2346,-3.2418,-3.3188,-3.2923,-3.2659,-3.2659,-3.2659,-3.2298,-3.1408,-3.0951,-3.1072,-3.1982,-3.203,-3.244,-3.326,-3.3284,-3.3284,-3.3284,-3.3284,-3.3549,-3.3982,-3.3982,-3.427,-3.4775,-3.4775,-3.4775,-3.4775,-3.4775,-3.4775,-3.4799,-3.4895,-3.5617,-3.6603,-3.7036,-3.7517,-3.7974,-3.7974,-3.7974,-3.7998,-3.8094,-3.8142,-3.8238,-3.8791,-3.9032,-3.9272,-4.0138,-4.0475,-4.0643,-4.1076,-4.0884,-4.0547,-4.0547,-4.0547,-4.0547,-4.0547,-4.0884,-4.1172,-4.1172,-4.1172,-4.1052,-4.0643,-4.0884,-4.1172,-4.1172,-4.1172,-4.1172,-4.1172,-4.1172,-4.1172,-4.1172,-4.1172,-4.1172,-4.1172,-4.1172,-4.1389,-4.1918,-4.1581,-4.1533,-4.1942,-4.1581,-4.1293,-4.1196,-4.1172,-4.1172,-4.1172,-4.1172,-4.1172,-4.1172,-4.1076,-4.1028,-4.1028,-4.1028,-4.1076,-3.5157,-3.4166,-3.312,-3.4502,-3.4169,0.0,0.0,-3.2881,-3.3045,-3.2203,-3.2006,-3.1897,-3.1596,-3.1604,-3.1462,-3.084,-3.0701,-3.0813,-3.129,-3.1094,-3.1115,-3.1625,-3.1456,-3.1288,-3.1288,-3.1288,-3.1072,-3.0518,-3.023,-3.0326,-3.0855,-3.0922,-3.124,-3.2058,-3.2082,-3.2202,-3.2512,-3.2512,-3.2755,-3.3284,-3.3549,-3.3933,-3.439,-3.4655,-3.4775,-3.4775,-3.4775,-3.4775,-3.4775,-3.4775,-3.5304,-3.6074,-3.6603,-3.7132,-3.7613,-3.7878,-3.7974,-3.7974,-3.7974,-3.7974,-3.8022,-3.831,-3.8599,-3.896,-3.9753,-4.0379,-4.0787,-4.0787,-4.0595,-4.0331,-4.0066,-3.9994,-3.9994,-3.9994,-4.021,-4.0403,-4.0403,-4.0403,-4.0403,-4.0403,-4.0619,-4.0787,-4.0787,-4.1004,-4.1172,-4.1172,-4.1172,-4.1172,-4.1172,-4.1172,-4.1172,-4.1172,-4.1172,-4.1293,-4.1557,-4.1581,-4.1581,-4.1581,-4.1581,-4.1461,-4.1196,-4.1172,-4.1172,-4.1172,-4.1172,-4.1172,-4.1172,-4.1172,-4.1172,-4.1172,-4.1172,-4.1172,-3.6754,-3.5543,-3.4205,-3.5583,-3.4941,-3.3649,0.0,0.0,0.0,-3.1502,-3.1329,-3.1334,-3.1191,-3.1143,-3.103,-3.0705,-3.0373,-3.0214,-3.0259,-2.9911,-2.979,-3.0062,-2.9989,-2.9941,-2.9941,-2.9845,-2.9773,-2.9773,-2.9773,-2.9821,-2.9941,-2.9941,-3.0182,-3.0711,-3.0778,-3.1019,-3.1548,-3.1548,-3.1886,-3.2515,-3.2923,-3.3404,-3.3862,-3.439,-3.4631,-3.4631,-3.4775,-3.4775,-3.4775,-3.4775,-3.5088,-3.5521,-3.605,-3.6651,-3.7252,-3.7685,-3.7902,-3.7974,-3.7974,-3.7974,-3.7974,-3.7974,-3.8359,-3.8888,-3.932,-4.0114,-4.0787,-4.0355,-4.0162,-3.9994,-3.9561,-3.9465,-3.9465,-3.9465,-3.9537,-3.9609,-3.9609,-3.9609,-3.9729,-4.0162,-4.0331,-4.0427,-4.0523,-4.0908,-4.1172,-4.1172,-4.1172,-4.1172,-4.1172,-4.1172,-4.1172,-4.1172,-4.1172,-4.1172,-4.1172,-4.1581,-4.1629,-4.122,-4.1581,-4.1629,-4.1196,-4.1172,-4.1172,-4.1172,-4.1172,-4.1172,-4.1172,-4.1172,-4.1172,-4.1172,-4.1172,-4.1172,-3.7841,-3.7212,-3.6125,-3.546,-3.4883,-3.4104,-3.2545,0.0,-3.2747,-3.251,0.0,-3.1861,-3.2156,0.0,0.0,-3.1439,-3.0568,-2.9943,-3.0417,-2.917,-2.8697,-2.9959,-2.9677,-2.9388,-2.9388,-2.8955,-2.8691,-2.8691,-2.8691,-2.8907,-2.9364,-2.9388,-2.9629,-3.0158,-3.0182,-3.0422,-3.0995,-3.0995,-3.148,-3.2491,-3.2563,-3.2875,-3.3404,-3.3862,-3.4078,-3.4102,-3.4583,-3.4775,-3.4775,-3.4775,-3.4871,-3.4919,-3.5497,-3.6314,-3.7204,-3.7252,-3.7589,-3.7974,-3.7974,-3.7974,-3.7974,-3.7974,-3.8359,-3.8815,-3.8888,-3.932,-3.9777,-3.9705,-3.9369,-3.8984,-3.8912,-3.8912,-3.8912,-3.8912,-3.9272,-3.9609,-3.9609,-3.9609,-3.9633,-3.9681,-4.0066,-4.0547,-4.1004,-4.1148,-4.1172,-4.1172,-4.1172,-4.1172,-4.1172,-4.1172,-4.1172,-4.1172,-4.1172,-4.1172,-4.1172,-4.1244,-4.1244,-4.1172,-4.1244,-4.1244,-4.1172,-4.1172,-4.1172,-4.1172,-4.1172,-4.1172,-4.1172,-4.1172,-4.1172,-4.1172,-4.1172,-4.1172,-3.7614,-3.7101,-3.6259,-3.5817,-3.533,-3.4492,-3.2776,-3.2289,-3.2101,-3.1882,0.0,0.0,0.0,0.0,0.0,0.0,-3.0317,-2.9717,-2.9757,-2.8859,-2.8456,-2.923,-2.8771,-2.8618,-2.9307,-2.9135,-2.8905,-2.8586,-2.8856,-2.8846,-2.8378,-2.8667,-2.9076,-2.9605,-2.9629,-3.0037,-3.0898,-3.0922,-3.1308,-3.201,-3.2346,-3.2611,-3.2851,-3.3622,-3.3838,-3.3645,-3.4463,-3.4607,-3.4342,-3.4655,-3.4775,-3.4799,-3.5064,-3.5809,-3.6771,-3.7084,-3.7517,-3.7974,-3.7974,-3.7974,-3.7974,-3.7974,-3.8359,-3.8815,-3.8815,-3.9176,-3.9537,-3.9224,-3.8984,-3.8743,-3.8407,-3.8334,-3.8334,-3.8334,-3.8503,-3.8743,-3.908,-3.9152,-3.932,-3.9946,-4.0234,-4.0571,-4.11,-4.1172,-4.1172,-4.1172,-4.1172,-4.1172,-4.1172,-4.1172,-4.1172,-4.1172,-4.1172,-4.1172,-4.1172,-4.1172,-4.1172,-4.1172,-4.1172,-4.1172,-4.1172,-4.1172,-4.1172,-4.1172,-4.1172,-4.1172,-4.1172,-4.1172,-4.1172,-4.1172,-4.1172,-4.1172,-3.7271,-3.7127,-3.6631,-3.5662,-3.5376,-3.4705,-3.2395,-3.1989,-3.1889,-3.1235,-3.0955,0.0,0.0,0.0,-3.033,-3.0751,0.0,-2.954,-2.9277,-2.8612,-2.8208,-2.8344,-2.7965,-2.8028,-2.886,-2.9071,-2.8924,-2.8382,-2.885,-2.8729,-2.7753,-2.8234,-2.8691,-2.9076,-2.9076,-2.9532,-3.0422,-3.0446,-3.0783,-3.15,-3.1865,-3.213,-3.2298,-3.3212,-3.3428,-3.314,-3.415,-3.4342,-3.403,-3.4558,-3.4775,-3.4775,-3.4775,-3.5473,-3.6459,-3.6843,-3.7397,-3.7974,-3.7974,-3.7974,-3.7974,-3.7974,-3.8262,-3.8599,-3.8599,-3.8864,-3.908,-3.8695,-3.8599,-3.8503,-3.8094,-3.7974,-3.7974,-3.7974,-3.7974,-3.8094,-3.8503,-3.8599,-3.8912,-3.997,-4.0186,-4.0403,-4.1076,-4.1172,-4.1172,-4.1172,-4.1172,-4.1172,-4.1172,-4.1172,-4.1172,-4.1172,-4.1172,-4.1172,-4.1172,-4.1172,-4.1172,-4.1172,-4.1172,-4.1172,-4.1172,-4.1172,-4.1172,-4.1172,-4.1172,-4.1172,-4.1172,-4.1287,-4.1287,-4.1287,-4.123,-4.1172,-3.7186,-3.785,-3.7917,-3.4594,-3.4624,-3.4596,-3.1149,-3.1591,-3.241,-3.1168,-3.1578,-3.2058,-3.1813,-3.0809,-3.033,-3.1229,-3.025,0.0,0.0,-2.8461,-2.7681,-2.7297,-2.7531,-2.7729,-2.7753,-2.821,-2.8282,-2.7753,-2.821,-2.8282,-2.7753,-2.8234,-2.8522,-2.8546,-2.8546,-2.8787,-2.934,-2.934,-2.9869,-3.0946,-3.0927,-3.1235,-3.1741,-3.2298,-3.2539,-3.2587,-3.3574,-3.4006,-3.403,-3.4558,-3.4775,-3.4775,-3.4775,-3.5473,-3.6411,-3.6411,-3.7084,-3.7974,-3.7974,-3.7974,-3.7974,-3.7974,-3.7998,-3.8022,-3.8022,-3.8022,-3.8022,-3.8022,-3.8022,-3.7998,-3.7998,-3.7974,-3.7974,-3.7974,-3.7974,-3.7998,-3.7998,-3.8022,-3.8334,-3.9417,-3.9633,-3.997,-4.1004,-4.1172,-4.1172,-4.1172,-4.1172,-4.1172,-4.1172,-4.1172,-4.1172,-4.1172,-4.1172,-4.1172,-4.1172,-4.1172,-4.1172,-4.1172,-4.1172,-4.1172,-4.1172,-4.1172,-4.1172,-4.1172,-4.1172,-4.1172,-4.1172,-4.1435,-4.1606,-4.1606,-4.1344,-4.1172,-3.7573,-3.8293,-3.8325,-3.5466,-3.5142,-3.4619,-3.1226,-3.1193,-3.1462,-3.0033,-3.0528,-3.0994,-3.0176,-2.969,-2.9571,-2.9994,-2.9699,-2.9333,0.0,-2.8325,-2.7618,-2.7125,-2.8064,-2.8687,-2.8523,-2.8737,-2.8422,-2.7311,-2.7729,-2.7786,-2.72,-2.7666,-2.8138,-2.8498,-2.8522,-2.8763,-2.9292,-2.9292,-2.9653,-3.035,-3.0711,-3.1019,-3.1211,-3.2082,-3.2298,-3.2054,-3.3068,-3.3549,-3.3573,-3.4054,-3.4462,-3.4775,-3.4775,-3.5256,-3.593,-3.6266,-3.7084,-3.7974,-3.7974,-3.7974,-3.7974,-3.7974,-3.7974,-3.7974,-3.7974,-3.7974,-3.7974,-3.7974,-3.7974,-3.7974,-3.7974,-3.7974,-3.7974,-3.7974,-3.7974,-3.8094,-3.8455,-3.8527,-3.8743,-3.9465,-3.9898,-4.0234,-4.0595,-4.0956,-4.1172,-4.1172,-4.1172,-4.1172,-4.1172,-4.1172,-4.1172,-4.1172,-4.1172,-4.1172,-4.1172,-4.1172,-4.1172,-4.1172,-4.1172,-4.1172,-4.1172,-4.1172,-4.1172,-4.1172,-4.1402,-4.1435,-4.1435,-4.1802,-4.1915,-4.1915,-4.1802,-4.1688,-3.773,-3.8297,-3.8316,-3.599,-3.549,-3.4668,-3.1468,-3.137,-3.1497,-2.9942,-3.0302,-3.0827,-3.0603,-2.992,-2.9557,-3.0174,-2.9854,-2.9361,0.0,-2.8375,-2.8027,-2.7823,-2.8596,-2.8949,-2.8363,-2.8681,-2.8286,-2.6769,-2.7189,-2.7322,-2.6935,-2.7402,-2.7969,-2.8498,-2.8522,-2.8667,-2.9003,-2.9027,-2.9292,-2.9821,-3.035,-3.073,-3.0946,-3.1793,-3.2054,-3.1765,-3.2611,-3.3116,-3.3332,-3.3837,-3.4318,-3.4775,-3.4775,-3.516,-3.5689,-3.6218,-3.7084,-3.7974,-3.7974,-3.7974,-3.7974,-3.7974,-3.7974,-3.7974,-3.7974,-3.7974,-3.7974,-3.7974,-3.7974,-3.7974,-3.7974,-3.7974,-3.7974,-3.7974,-3.7974,-3.807,-3.8455,-3.8527,-3.8743,-3.9465,-3.9874,-4.0234,-4.0619,-4.0956,-4.1172,-4.1172,-4.1172,-4.1172,-4.1172,-4.1172,-4.1172,-4.1172,-4.1172,-4.1172,-4.1172,-4.1172,-4.1172,-4.1172,-4.1172,-4.123,-4.1344,-4.1344,-4.1571,-4.2074,-4.1858,-4.1973,-4.2339,-4.2258,-4.2256,-4.2256,-4.2369,-4.2256]},{"header":{"parameterUnit":"m.s-1","parameterCategory":1,"la1":30.6,"la2":29.2853,"lo1":-89.7004,"lo2":-87.6739,"dy":0.0162,"dx":0.0183,"nx":112,"ny":82,"refTime":"2023-08-08T12:00:00:Z","depth":0,"parameterNumber":3,"parameterNumberName":"V-component_of_WINDS"},"data":[0.0,0.0,0.0,0.0,0.0,0.0,0.0,0.0,0.0,0.0,0.0,0.0,0.0,0.0,0.0,0.0,0.0,0.0,0.0,0.0,0.0,0.0,0.0,0.0,0.0,0.0,0.0,0.0,0.0,0.0,0.0,0.0,0.0,0.0,0.0,0.0,0.0,0.0,0.0,0.0,0.0,0.0,0.0,0.0,0.0,0.0,0.0,0.0,0.0,0.0,0.0,0.0,0.0,0.0,0.0,0.0,0.0,0.0,0.0,0.0,0.0,0.0,0.0,0.0,0.0,0.0,0.0,0.0,0.0,0.0,0.0,0.0,0.0,0.0,0.0,0.0,0.0,0.0,0.0,0.0,0.0,0.0,0.0,0.0,0.0,0.0,0.0,0.0,0.0,0.0,-3.6603,-4.1238,-4.6752,-5.0473,-5.1488,-5.2435,-5.0947,-4.6177,0.0,0.0,0.0,0.0,0.0,0.0,0.0,0.0,0.0,0.0,0.0,0.0,0.0,0.0,0.0,0.0,0.0,0.0,0.0,0.0,0.0,0.0,0.0,0.0,0.0,0.0,0.0,0.0,0.0,0.0,0.0,0.0,0.0,0.0,0.0,0.0,0.0,0.0,0.0,0.0,0.0,0.0,0.0,0.0,0.0,0.0,0.0,0.0,0.0,0.0,0.0,0.0,0.0,0.0,0.0,0.0,0.0,0.0,0.0,0.0,0.0,0.0,0.0,0.0,0.0,0.0,0.0,0.0,0.0,0.0,0.0,0.0,0.0,0.0,0.0,0.0,0.0,0.0,0.0,0.0,0.0,0.0,0.0,0.0,0.0,0.0,0.0,0.0,0.0,0.0,0.0,0.0,0.0,0.0,0.0,0.0,0.0,0.0,0.0,0.0,0.0,0.0,0.0,0.0,-3.842,-4.3565,-4.7665,-5.0913,-5.2976,-5.1589,-4.9458,-4.6786,0.0,0.0,0.0,0.0,0.0,0.0,0.0,0.0,0.0,0.0,0.0,0.0,0.0,0.0,0.0,0.0,0.0,0.0,0.0,0.0,0.0,0.0,0.0,0.0,0.0,0.0,0.0,0.0,0.0,0.0,0.0,0.0,0.0,0.0,0.0,0.0,0.0,0.0,0.0,0.0,0.0,0.0,0.0,0.0,0.0,0.0,0.0,0.0,0.0,0.0,0.0,0.0,0.0,0.0,0.0,0.0,0.0,0.0,0.0,0.0,0.0,0.0,0.0,0.0,0.0,0.0,0.0,0.0,0.0,0.0,0.0,0.0,0.0,0.0,0.0,0.0,0.0,0.0,0.0,0.0,0.0,0.0,0.0,0.0,0.0,0.0,0.0,0.0,0.0,0.0,0.0,0.0,0.0,0.0,0.0,0.0,0.0,0.0,0.0,0.0,0.0,0.0,0.0,-3.8565,-4.117,-4.479,-4.8511,-5.1285,-5.2739,-5.1522,-4.9593,-4.6955,-4.5737,0.0,0.0,0.0,0.0,0.0,0.0,0.0,0.0,0.0,0.0,0.0,0.0,0.0,0.0,0.0,0.0,0.0,0.0,0.0,0.0,0.0,0.0,0.0,0.0,0.0,0.0,0.0,0.0,0.0,0.0,0.0,0.0,0.0,0.0,0.0,0.0,0.0,0.0,0.0,0.0,0.0,0.0,0.0,0.0,0.0,0.0,0.0,0.0,0.0,0.0,0.0,0.0,0.0,0.0,0.0,0.0,0.0,0.0,0.0,0.0,0.0,0.0,0.0,0.0,0.0,0.0,0.0,0.0,0.0,0.0,0.0,0.0,0.0,0.0,0.0,0.0,0.0,0.0,0.0,0.0,0.0,0.0,0.0,0.0,0.0,0.0,0.0,0.0,0.0,0.0,0.0,0.0,0.0,0.0,0.0,0.0,0.0,0.0,0.0,0.0,0.0,0.0,-4.0527,-4.3031,-4.5669,-4.8951,-5.1251,-5.1995,-5.0913,-4.9221,-4.6921,-4.4891,0.0,0.0,0.0,0.0,0.0,0.0,0.0,0.0,0.0,0.0,0.0,0.0,0.0,0.0,0.0,0.0,0.0,0.0,0.0,0.0,0.0,0.0,0.0,0.0,0.0,0.0,0.0,0.0,0.0,0.0,0.0,0.0,0.0,0.0,0.0,0.0,0.0,0.0,0.0,0.0,0.0,0.0,0.0,0.0,0.0,0.0,0.0,0.0,0.0,0.0,0.0,0.0,0.0,0.0,0.0,0.0,0.0,0.0,0.0,0.0,0.0,0.0,0.0,0.0,0.0,0.0,0.0,0.0,0.0,0.0,0.0,0.0,0.0,0.0,0.0,0.0,0.0,0.0,0.0,0.0,0.0,0.0,0.0,0.0,0.0,0.0,0.0,0.0,0.0,0.0,0.0,0.0,0.0,0.0,0.0,0.0,0.0,0.0,0.0,0.0,0.0,0.0,-4.073,-4.2692,-4.6312,-4.8781,-5.0473,-5.1217,-4.8714,-4.7022,-4.6819,-4.3436,0.0,0.0,0.0,0.0,0.0,0.0,0.0,0.0,0.0,0.0,0.0,0.0,0.0,0.0,0.0,0.0,0.0,0.0,0.0,0.0,0.0,0.0,0.0,0.0,0.0,0.0,0.0,0.0,0.0,0.0,0.0,0.0,0.0,0.0,0.0,0.0,0.0,0.0,0.0,0.0,0.0,0.0,0.0,0.0,0.0,0.0,0.0,0.0,0.0,0.0,0.0,0.0,0.0,0.0,0.0,0.0,0.0,0.0,0.0,0.0,0.0,0.0,0.0,0.0,0.0,0.0,0.0,0.0,0.0,0.0,0.0,0.0,0.0,0.0,0.0,0.0,0.0,0.0,0.0,0.0,0.0,0.0,0.0,0.0,0.0,0.0,0.0,0.0,0.0,0.0,0.0,0.0,0.0,0.0,0.0,0.0,0.0,0.0,0.0,0.0,0.0,0.0,-4.1542,-4.3673,-4.6481,-4.8781,-5.0405,-5.115,-4.9357,-4.7564,-4.621,0.0,0.0,0.0,0.0,0.0,0.0,0.0,0.0,0.0,0.0,0.0,0.0,0.0,0.0,0.0,0.0,0.0,0.0,0.0,0.0,0.0,0.0,0.0,0.0,0.0,0.0,0.0,0.0,0.0,0.0,0.0,0.0,0.0,0.0,0.0,0.0,0.0,0.0,0.0,0.0,0.0,0.0,0.0,0.0,0.0,0.0,0.0,0.0,0.0,0.0,0.0,0.0,0.0,0.0,0.0,0.0,0.0,0.0,0.0,0.0,0.0,0.0,0.0,0.0,0.0,0.0,0.0,0.0,0.0,0.0,0.0,0.0,0.0,0.0,0.0,0.0,0.0,0.0,0.0,0.0,0.0,0.0,0.0,0.0,0.0,0.0,0.0,0.0,0.0,0.0,0.0,0.0,0.0,0.0,0.0,0.0,0.0,0.0,0.0,0.0,0.0,0.0,-4.0257,-4.2185,-4.4282,-4.6549,-4.8578,-4.9965,-5.0473,-4.8714,-4.7056,-4.5805,0.0,0.0,0.0,0.0,0.0,0.0,0.0,0.0,0.0,0.0,0.0,0.0,0.0,0.0,0.0,0.0,0.0,0.0,0.0,0.0,0.0,0.0,0.0,0.0,0.0,0.0,0.0,0.0,0.0,0.0,0.0,0.0,0.0,0.0,0.0,0.0,0.0,0.0,0.0,0.0,0.0,0.0,0.0,0.0,0.0,0.0,0.0,0.0,0.0,0.0,0.0,0.0,0.0,0.0,0.0,0.0,0.0,0.0,0.0,0.0,0.0,0.0,0.0,0.0,0.0,0.0,0.0,0.0,0.0,0.0,0.0,0.0,0.0,0.0,0.0,0.0,0.0,0.0,0.0,0.0,0.0,0.0,0.0,0.0,0.0,0.0,0.0,0.0,0.0,0.0,0.0,0.0,0.0,0.0,0.0,0.0,0.0,0.0,0.0,0.0,0.0,0.0,-4.1035,-4.2489,-4.4282,-4.6549,-4.8139,-4.9018,-4.9018,-4.6312,-4.4925,0.0,0.0,0.0,0.0,0.0,0.0,0.0,0.0,0.0,0.0,0.0,0.0,0.0,0.0,0.0,0.0,0.0,0.0,0.0,0.0,0.0,0.0,0.0,0.0,0.0,0.0,0.0,0.0,0.0,0.0,0.0,0.0,0.0,0.0,0.0,0.0,0.0,0.0,0.0,0.0,0.0,0.0,0.0,0.0,0.0,0.0,0.0,0.0,0.0,0.0,0.0,0.0,0.0,0.0,0.0,0.0,0.0,0.0,0.0,0.0,0.0,0.0,0.0,0.0,0.0,0.0,0.0,0.0,0.0,0.0,0.0,0.0,0.0,0.0,0.0,0.0,0.0,0.0,0.0,0.0,0.0,0.0,0.0,0.0,0.0,0.0,0.0,0.0,0.0,0.0,0.0,0.0,0.0,0.0,0.0,0.0,0.0,0.0,0.0,0.0,0.0,0.0,0.0,-4.1711,-4.2828,-4.4282,-4.6549,-4.8578,-4.9763,-4.9763,-4.8511,-4.7361,-4.6515,0.0,0.0,0.0,0.0,0.0,0.0,0.0,0.0,0.0,0.0,0.0,0.0,0.0,0.0,0.0,0.0,0.0,0.0,0.0,0.0,0.0,0.0,0.0,0.0,0.0,0.0,0.0,0.0,0.0,0.0,0.0,0.0,0.0,0.0,0.0,0.0,0.0,0.0,0.0,0.0,0.0,0.0,0.0,0.0,0.0,0.0,0.0,0.0,0.0,0.0,0.0,0.0,0.0,0.0,0.0,0.0,0.0,0.0,0.0,0.0,0.0,0.0,0.0,0.0,0.0,0.0,0.0,0.0,0.0,0.0,0.0,0.0,0.0,0.0,0.0,0.0,0.0,0.0,0.0,0.0,0.0,0.0,0.0,0.0,0.0,0.0,0.0,0.0,0.0,0.0,0.0,0.0,0.0,0.0,0.0,0.0,0.0,0.0,0.0,0.0,0.0,0.0,-4.2455,-4.3403,-4.4756,-4.6989,-4.8951,-5.0101,-5.0101,-4.9424,-4.824,-4.6481,0.0,0.0,0.0,0.0,0.0,0.0,0.0,0.0,0.0,0.0,0.0,0.0,0.0,0.0,0.0,0.0,0.0,0.0,0.0,0.0,0.0,0.0,0.0,0.0,0.0,0.0,0.0,0.0,0.0,0.0,0.0,0.0,0.0,0.0,0.0,0.0,0.0,0.0,0.0,0.0,0.0,0.0,0.0,0.0,0.0,0.0,0.0,0.0,0.0,0.0,0.0,0.0,0.0,0.0,0.0,0.0,0.0,0.0,0.0,0.0,0.0,0.0,0.0,0.0,0.0,0.0,0.0,0.0,0.0,0.0,0.0,0.0,0.0,0.0,0.0,0.0,0.0,0.0,0.0,0.0,0.0,0.0,0.0,0.0,0.0,0.0,0.0,0.0,0.0,0.0,0.0,0.0,0.0,0.0,0.0,0.0,0.0,0.0,0.0,0.0,0.0,0.0,-4.3105,-4.4147,-4.55,-4.7669,-4.9289,-5.0202,-5.0202,-4.9593,-4.8308,-4.6143,0.0,0.0,0.0,0.0,0.0,0.0,0.0,0.0,0.0,0.0,0.0,0.0,0.0,0.0,0.0,0.0,0.0,0.0,0.0,0.0,0.0,0.0,0.0,0.0,0.0,0.0,0.0,0.0,0.0,0.0,0.0,0.0,0.0,0.0,0.0,0.0,0.0,0.0,0.0,0.0,0.0,0.0,0.0,0.0,0.0,0.0,0.0,0.0,0.0,0.0,0.0,0.0,0.0,0.0,0.0,0.0,0.0,0.0,0.0,0.0,-4.3831,-4.3792,0.0,0.0,0.0,0.0,0.0,0.0,0.0,0.0,0.0,0.0,0.0,0.0,0.0,0.0,0.0,0.0,0.0,0.0,0.0,0.0,0.0,0.0,0.0,0.0,0.0,0.0,0.0,0.0,0.0,0.0,0.0,0.0,0.0,0.0,0.0,0.0,0.0,0.0,0.0,0.0,-4.3172,-4.4621,-4.6109,-4.7703,-4.9763,-5.098,-5.098,-5.0845,-5.0033,-4.8409,-4.594,0.0,0.0,0.0,0.0,0.0,0.0,0.0,0.0,0.0,0.0,0.0,0.0,0.0,0.0,0.0,0.0,0.0,0.0,0.0,0.0,0.0,0.0,0.0,0.0,0.0,0.0,0.0,0.0,0.0,0.0,0.0,0.0,0.0,0.0,0.0,0.0,0.0,0.0,0.0,0.0,0.0,0.0,0.0,0.0,0.0,0.0,0.0,0.0,0.0,0.0,0.0,0.0,0.0,0.0,0.0,0.0,0.0,0.0,0.0,-4.6884,-4.5806,0.0,0.0,0.0,0.0,0.0,0.0,0.0,0.0,0.0,0.0,0.0,0.0,0.0,0.0,0.0,0.0,0.0,0.0,0.0,0.0,0.0,0.0,0.0,0.0,0.0,0.0,0.0,0.0,0.0,0.0,0.0,0.0,0.0,0.0,0.0,0.0,0.0,0.0,0.0,0.0,-4.4282,-4.5196,-4.6549,-4.8714,-5.0642,-5.1725,-5.1725,-5.2097,-5.1352,-4.9154,-4.7225,0.0,0.0,0.0,0.0,0.0,0.0,0.0,0.0,0.0,0.0,0.0,0.0,0.0,0.0,0.0,0.0,0.0,0.0,0.0,0.0,0.0,0.0,0.0,0.0,0.0,0.0,0.0,0.0,0.0,0.0,0.0,0.0,0.0,0.0,0.0,0.0,0.0,0.0,0.0,0.0,0.0,0.0,0.0,0.0,0.0,0.0,0.0,0.0,0.0,0.0,0.0,0.0,0.0,-5.2039,-5.2178,-5.281,-5.4665,-5.5075,-5.4145,-5.1059,-4.8937,-4.7733,-4.7462,0.0,0.0,0.0,0.0,0.0,0.0,0.0,0.0,0.0,0.0,0.0,0.0,0.0,0.0,0.0,0.0,0.0,0.0,0.0,0.0,0.0,0.0,-4.8646,-4.9286,-4.9625,-4.8917,-4.5698,0.0,0.0,0.0,0.0,0.0,0.0,0.0,0.0,0.0,0.0,0.0,-4.5466,-4.6041,-4.7327,-4.9999,-5.1488,-5.23,-5.23,-5.2909,-5.2131,-4.9357,-4.8511,-4.7158,0.0,0.0,0.0,0.0,0.0,0.0,0.0,0.0,0.0,0.0,0.0,0.0,0.0,0.0,0.0,0.0,0.0,0.0,0.0,0.0,0.0,0.0,0.0,0.0,0.0,0.0,0.0,0.0,0.0,0.0,0.0,0.0,-4.0426,-4.1238,0.0,0.0,0.0,0.0,0.0,0.0,0.0,0.0,0.0,0.0,0.0,0.0,0.0,-5.2559,-5.41,-5.471,-5.5484,-5.6435,-5.728,-5.7704,-5.7774,-5.7599,-5.8097,-5.9143,-5.8668,0.0,-5.1488,-5.0168,0.0,0.0,0.0,0.0,0.0,0.0,0.0,0.0,0.0,0.0,0.0,0.0,0.0,0.0,0.0,0.0,0.0,0.0,0.0,0.0,0.0,0.0,-5.0843,-5.1102,-5.2058,-5.2637,-5.1679,-4.8938,-4.6447,-4.5703,-4.4553,-4.3612,0.0,0.0,0.0,0.0,0.0,0.0,-4.5669,-4.7394,-4.9221,-5.0879,-5.1792,-5.23,-5.23,-5.2401,-5.1725,-5.0067,-4.9255,-4.8139,-4.6583,-4.5805,0.0,0.0,0.0,0.0,0.0,0.0,0.0,0.0,0.0,0.0,0.0,0.0,0.0,0.0,0.0,0.0,0.0,0.0,0.0,0.0,0.0,0.0,0.0,0.0,0.0,0.0,0.0,0.0,0.0,-4.1482,-4.2895,-4.1914,-4.3886,-4.5058,0.0,0.0,0.0,0.0,0.0,0.0,0.0,0.0,0.0,-5.2881,-5.4857,-5.6621,-5.8136,-5.9033,-6.0082,-6.1222,-6.1813,-6.2263,-6.2634,-6.3244,-6.3869,-6.4478,-6.4478,-6.2956,-6.0114,-5.5683,-5.2807,-5.0913,0.0,0.0,0.0,0.0,-4.9627,-5.0845,-5.2841,-5.3247,-5.2875,-5.2604,0.0,0.0,0.0,0.0,0.0,0.0,0.0,-4.8037,-4.9661,-5.2297,-5.4635,-5.5145,-5.6098,-5.6643,-5.5553,-5.3239,-5.0701,-4.8609,-4.6955,-4.5911,-4.5911,-4.4525,0.0,0.0,0.0,-4.5669,-4.7327,-4.8409,-4.9729,-5.1623,-5.2503,-5.2807,-5.2334,-5.2706,-5.2164,-5.0202,-4.939,-4.8511,-4.7462,-4.6718,-4.5974,0.0,0.0,0.0,0.0,0.0,0.0,0.0,0.0,0.0,0.0,0.0,0.0,0.0,0.0,0.0,0.0,0.0,0.0,0.0,0.0,0.0,0.0,0.0,0.0,0.0,0.0,0.0,0.0,-4.3132,-4.4541,-4.3,-4.4959,-4.6227,0.0,0.0,0.0,0.0,0.0,0.0,-5.1558,-5.2791,-5.4532,-5.6992,-5.9315,-6.1328,-6.3099,-6.3827,-6.4962,-6.6434,-6.635,-6.6609,-6.7151,-6.8064,-6.8402,-6.8199,-6.8199,-6.7895,-6.6914,-6.0554,-5.7171,-5.5716,-5.2706,-5.1995,-5.2706,-5.3281,-5.4093,-5.5243,-5.7645,-5.8084,-5.7476,-5.6393,-5.5006,-5.3044,-4.939,0.0,0.0,0.0,0.0,-5.1758,-5.4025,-5.6163,-5.7935,-5.9128,-5.9852,-5.9859,-5.8525,-5.6781,-5.4465,-5.111,-4.9218,-4.8206,-4.8206,-4.6148,0.0,-4.6583,-4.6346,-4.6718,-4.8748,-4.9492,-5.0541,-5.2401,-5.3145,-5.3281,-5.2672,-5.2976,-5.2401,-5.0507,-4.9864,-4.9154,-4.821,-4.7665,-4.6921,-4.6007,0.0,0.0,0.0,0.0,0.0,0.0,0.0,0.0,0.0,0.0,0.0,0.0,0.0,0.0,0.0,0.0,0.0,0.0,0.0,0.0,0.0,0.0,0.0,0.0,0.0,0.0,0.0,0.0,0.0,-4.4147,-4.7396,0.0,0.0,0.0,0.0,-5.3351,-5.4972,-5.6264,-5.7055,-5.9287,-6.132,-6.2942,-6.5103,-6.7335,-6.9611,-6.9748,-7.051,-7.1966,-7.1278,-7.1007,-7.1007,-7.0364,-6.9688,-6.9045,-6.9045,-6.9011,-6.8571,-6.326,-6.0588,-5.9539,-5.6596,-5.5886,-5.6528,-5.6562,-5.7509,-5.8863,-5.9708,-5.9979,-6.0283,-6.2347,-6.0554,-5.7306,-5.5716,-5.3687,0.0,0.0,-5.3788,-5.4871,-5.7103,-5.8436,-5.9808,-6.2211,-6.2248,-6.1565,-6.0782,-5.8725,-5.5893,-5.2153,-5.0091,-4.8951,-4.8951,0.0,-4.7496,-4.6887,-4.8511,-4.9627,-4.9086,-5.0845,-5.2469,-5.3348,-5.3484,-5.3484,-5.345,-5.2773,-5.2029,-5.1217,-5.1083,-5.0439,-4.9018,-4.8917,-4.8206,-4.6752,-4.4587,0.0,0.0,0.0,0.0,0.0,0.0,0.0,0.0,0.0,0.0,0.0,0.0,0.0,0.0,0.0,0.0,0.0,0.0,0.0,0.0,0.0,0.0,0.0,0.0,0.0,0.0,0.0,0.0,-4.932,-5.2193,0.0,-5.4487,-5.5296,-5.6396,-5.7739,-5.8962,-6.0517,-6.2659,-6.45,-6.6371,-6.8455,-6.9705,-7.0998,-7.2257,-7.2293,-7.2563,-7.3105,-7.2834,-7.2699,-7.2699,-7.1954,-7.1481,-7.1176,-7.0229,-7.0094,-7.0297,-6.7489,-6.5561,-6.414,-6.1163,-6.0452,-6.1129,-6.1129,-6.1738,-6.2787,-6.4005,-6.4106,-6.3429,-6.1839,-5.9208,-5.6571,-5.6062,-5.5009,-5.433,-5.6027,-5.6974,-5.7848,-5.9641,-6.0887,-6.19,-6.2795,-6.2984,-6.2795,-6.2039,-6.0617,-5.8795,-5.6474,-5.2972,-5.0574,-5.1048,-4.9357,-4.8277,-4.9458,-4.9492,-4.9627,-5.0338,-5.1522,-5.2401,-5.2706,-5.2739,-5.2536,-5.2063,-5.1319,-5.0574,-4.983,-4.9357,-4.8818,-4.8311,-4.7394,-4.6413,-4.5399,-4.4587,-4.3301,0.0,0.0,0.0,0.0,0.0,0.0,0.0,0.0,0.0,0.0,0.0,0.0,0.0,0.0,0.0,0.0,0.0,0.0,0.0,0.0,0.0,0.0,0.0,0.0,0.0,-4.8951,-5.2263,-5.392,-5.6883,-5.9032,-5.9602,-6.0257,-6.134,-6.3029,-6.4106,-6.573,-6.8199,-6.9248,-7.0601,-7.236,-7.2902,-7.351,-7.4221,-7.4221,-7.4221,-7.4221,-7.4221,-7.4086,-7.3849,-7.3375,-7.265,-7.1833,-7.13,-7.0951,-7.0815,-7.0317,-6.9388,-6.8116,-6.5365,-6.4546,-6.4952,-6.4715,-6.4918,-6.5493,-6.6558,-6.6633,-6.5718,-6.278,-6.0377,-5.8615,-5.8343,-5.7693,-5.7488,-5.942,-6.0129,-6.0668,-6.243,-6.3183,-6.3559,-6.3798,-6.3927,-6.3666,-6.2557,-6.1513,-6.0369,-5.8925,-5.5654,-5.3112,-5.3078,-5.1251,-5.0202,-5.1386,-5.0744,-5.0473,-5.1454,-5.2232,-5.2706,-5.2706,-5.2706,-5.2401,-5.1657,-5.0913,-4.9932,-4.8714,-4.7936,-4.7327,-4.6819,-4.6109,-4.5365,-4.4615,-4.4316,-4.3335,-4.1576,0.0,0.0,0.0,0.0,0.0,0.0,0.0,0.0,0.0,0.0,0.0,0.0,0.0,0.0,0.0,0.0,0.0,0.0,0.0,0.0,0.0,0.0,0.0,-4.7225,-5.1522,-5.5587,-5.7741,-6.1374,-6.3668,-6.3573,-6.5691,-6.7726,-6.918,-7.0669,-7.209,-7.3477,-7.3544,-7.3883,-7.4627,-7.4661,-7.4999,-7.5676,-7.5709,-7.5709,-7.5709,-7.5709,-7.5337,-7.4661,-7.4627,-7.3231,-7.097,-7.2144,-7.1705,-7.015,-7.1433,-7.1854,-7.1362,-6.8895,-6.7929,-6.7861,-6.7083,-6.6812,-6.6812,-6.7063,-6.7146,-6.695,-6.5579,-6.4551,-6.3645,-6.2931,-6.2063,-6.1637,-6.3057,-6.3108,-6.3198,-6.5338,-6.5147,-6.4568,-6.5293,-6.5034,-6.4108,-6.2327,-6.1329,-6.0432,-5.9241,-5.7848,-5.6359,-5.4905,-5.4059,-5.3315,-5.2503,-5.2367,0.0,-5.23,-5.301,-5.3484,-5.3484,-5.345,-5.3145,-5.2334,-5.1589,-5.0204,-4.8041,-4.7192,-4.6109,-4.4716,-4.5263,-4.5297,-4.4581,-4.3775,-4.3031,-4.232,0.0,0.0,0.0,0.0,0.0,0.0,0.0,0.0,0.0,0.0,0.0,0.0,0.0,0.0,0.0,0.0,0.0,0.0,0.0,0.0,0.0,-5.0879,-5.2909,-5.2503,-5.6494,-6.0664,-6.3905,-6.6701,-6.92,-7.123,-7.2553,-7.3443,-7.3849,-7.4796,-7.527,-7.51,-7.51,-7.5202,-7.5405,-7.5405,-7.5506,-7.5709,-7.5709,-7.5709,-7.5709,-7.5709,-7.5574,-7.5371,-7.4864,-7.3945,-7.2733,-7.2734,-7.2101,-7.1176,-7.1766,-7.1942,-7.1684,-6.973,-6.8913,-6.8605,-6.7286,-6.6812,-6.6745,-6.6287,-6.6083,-6.5888,-6.4436,-6.3905,-6.3645,-6.2931,-6.2518,-6.2411,-6.2819,-6.3114,-6.3447,-6.4217,-6.4318,-6.4277,-6.4637,-6.3752,-6.2758,-6.2235,-6.0847,-5.9604,-5.929,-5.8329,-5.7306,-5.6359,-5.5581,-5.4837,-5.4059,-5.3957,-5.3551,-5.2435,-5.301,-5.3281,-5.2706,-5.2638,-5.2334,-5.1589,-5.0338,-4.912,-4.7973,-4.6718,-4.5838,-4.5399,-4.4519,-4.3944,-4.3741,-4.2997,-4.276,0.0,0.0,0.0,0.0,0.0,0.0,0.0,0.0,0.0,0.0,0.0,0.0,0.0,0.0,0.0,0.0,0.0,0.0,0.0,0.0,0.0,0.0,-5.548,-5.8761,-5.9979,-6.2144,-6.4884,-6.8301,-7.0669,-7.2732,-7.4458,-7.5574,-7.6183,-7.6183,-7.6657,-7.669,-7.6217,-7.5879,-7.5709,-7.5709,-7.5709,-7.5709,-7.5709,-7.5709,-7.5709,-7.5709,-7.5709,-7.5709,-7.5676,-7.4931,-7.3952,-7.2814,-7.2847,-7.2191,-7.1131,-7.1951,-7.203,-7.1533,0.0,0.0,0.0,0.0,-6.6812,-6.6745,-6.6464,-6.6336,-6.6098,-6.4686,-6.4217,-6.4053,-6.3033,-6.2615,-6.2644,-6.2944,-6.3114,-6.3351,-6.4047,-6.4176,-6.4025,-6.3871,-6.3155,-6.2367,-6.1639,-6.0327,-5.9293,-5.9183,-5.8462,0.0,-5.734,-5.6393,-5.5446,-5.4702,-5.4329,-5.3822,-5.2909,-5.3213,-5.3315,-5.2841,-5.2807,-5.2367,-5.1286,-5.0135,0.0,0.0,0.0,-4.5094,-4.4756,-4.3882,0.0,0.0,0.0,-4.347,-4.391,-4.347,0.0,0.0,-4.2726,-4.2625,0.0,0.0,0.0,0.0,0.0,0.0,0.0,0.0,0.0,0.0,0.0,0.0,0.0,0.0,0.0,0.0,-6.0723,-6.5087,-6.8098,-6.8132,-6.8808,-7.1481,-7.3477,-7.4728,-7.4965,-7.6149,-7.6927,-7.7029,-7.6961,-7.6893,-7.6893,-7.6149,0.0,0.0,0.0,-7.5709,-7.5709,-7.5608,-7.5574,-7.5574,-7.5574,-7.5574,-7.5574,-7.4999,-7.3749,-7.2111,-7.2971,-7.2282,-7.069,-7.209,-7.1993,-7.0889,-6.9909,-6.9391,-6.8982,-6.7371,-6.6812,-6.6812,-6.6995,0.0,0.0,-6.5465,-6.4875,-6.4369,-6.3226,-6.2809,-6.2753,-6.3362,-6.3176,-6.3096,-6.4427,-6.4381,-6.3747,-6.3136,-6.2863,-6.2275,-6.069,-5.9735,-5.9084,-5.8933,-5.8355,-5.7881,-5.7881,-5.6799,-5.5716,-5.4938,-5.4228,-5.3721,-5.3619,-5.3551,-5.3518,-5.3518,-5.3518,0.0,-5.1352,-5.0507,-4.8917,-4.6143,-4.5263,-4.4485,-4.368,-4.3646,-4.4012,-4.4716,-4.4716,-4.4784,-4.4852,-4.4852,-4.5162,-4.5771,-4.3673,-4.3464,0.0,0.0,0.0,0.0,0.0,0.0,0.0,0.0,0.0,0.0,0.0,0.0,0.0,0.0,0.0,-6.0452,-6.4444,-6.8301,-7.1887,-7.3308,-7.4187,-7.4796,-7.4695,-7.5337,-7.7164,-7.7063,-7.713,-7.7739,-7.7232,-7.6893,-7.6893,-7.6149,-7.5709,-7.5709,-7.5709,-7.5709,-7.5709,-7.51,-7.483,-7.483,-7.483,0.0,-7.483,-7.527,-7.4668,-7.3244,-7.4366,-7.3628,-7.1732,-7.2416,-7.1498,-6.9583,-6.8834,-6.8174,-6.7588,-6.6998,-6.6812,-6.6711,-6.6177,-6.5119,-6.4085,-6.4525,-6.3773,-6.2849,-6.3876,-6.4214,0.0,-6.3632,-6.3429,-6.3441,-6.3911,-6.3514,-6.3013,-6.2996,-6.1964,-6.0727,-5.9738,-5.8809,-5.8157,-5.8118,-5.7983,-5.7881,-5.7881,-5.7645,-5.7205,-5.6494,-5.575,-5.5074,-5.4465,-5.3856,-5.3518,-5.3518,-5.3518,-5.2875,-5.1352,-5.0507,-4.9357,-4.7597,-4.6786,-4.6041,-4.5297,-4.5263,-4.5331,-4.5466,-4.55,-4.5771,-4.6346,-4.6346,-4.6447,-4.6549,-4.5534,-4.5534,0.0,0.0,0.0,0.0,0.0,0.0,0.0,0.0,0.0,0.0,0.0,-5.3044,-5.5277,0.0,-6.1806,-6.5189,-6.8538,-7.1481,-7.3747,-7.4999,-7.5845,-7.6251,-7.598,-7.6217,-7.7333,-7.7435,-7.7739,-7.8483,-7.7874,-7.7435,-7.7435,-7.6318,-7.5709,-7.5709,-7.5709,-7.5709,-7.5709,-7.4965,-7.4627,-7.4627,-7.4627,-7.4424,-7.4052,-7.483,-7.4606,-7.3741,-7.4026,-7.3635,-7.2716,-7.1763,-7.043,-6.8857,-6.8069,-6.7604,-6.7304,-6.6938,-6.6812,-6.6779,-6.6373,-6.5438,-6.4464,-6.4421,-6.3919,-6.3425,-6.3752,-6.4177,-6.4444,-6.3734,-6.3531,-6.3328,-6.2702,-6.2266,-6.1864,-6.1159,-6.0374,-5.9519,-5.8739,-5.8225,-5.7881,-5.7881,-5.7881,-5.7881,-5.7881,-5.7881,-5.7645,-5.69,-5.5852,-5.5006,-5.4634,-5.3957,-5.3518,-5.3518,-5.3518,-5.3044,-5.186,-5.0405,-4.9086,-4.7973,-4.7225,-4.6616,-4.6278,-4.6244,-4.6244,-4.6244,-4.6244,-4.6413,-4.6786,-4.6786,-4.6989,-4.7361,-4.6989,-4.7022,0.0,0.0,0.0,0.0,0.0,0.0,0.0,-4.8984,-5.0644,-5.4262,-5.6325,-5.8423,-6.1569,-6.4072,-6.6576,-6.9316,-7.1853,-7.3747,-7.4492,-7.5236,-7.5879,-7.6386,-7.6589,-7.6724,-7.6893,-7.7299,-7.7908,-7.8822,-7.8044,-7.7671,-7.7976,-7.6521,-7.5709,-7.5709,-7.5709,-7.5642,-7.5473,-7.4762,-7.4322,-7.4187,-7.4187,-7.3849,-7.3308,-7.4098,-7.4272,-7.3844,-7.3331,-7.3142,-7.312,-7.0915,-6.9453,-6.8534,-6.757,-6.7146,-6.7112,-6.6896,-6.6711,-6.6534,-6.6365,-6.5632,-6.4673,-6.4308,-6.4157,-6.4036,-6.3891,-6.4372,-6.4809,-6.3735,-6.3458,-6.3047,-6.1239,-6.0796,-6.0393,-5.8883,-5.8513,-5.8312,-5.7573,-5.7517,-5.7662,-5.7662,-5.7772,-5.7881,-5.7881,-5.7881,-5.7679,-5.7103,-5.5886,-5.5006,-5.5006,-5.4262,-5.3721,-5.3721,-5.3585,-5.3179,-5.2367,-5.0541,-4.9187,-4.8582,-4.7868,-4.7361,-4.7225,-4.709,-4.7022,-4.7022,-4.7022,-4.709,-4.7225,-4.7225,-4.753,-4.8108,-4.8108,-4.8108,-4.5055,-4.5263,-4.6515,-4.8883,-4.8984,-5.0101,0.0,-5.663,-5.6697,-5.981,-6.211,-6.3937,-6.4986,-6.759,-7.0094,-7.1751,-7.2834,-7.3747,-7.4492,-7.5236,-7.5506,-7.4931,-7.5439,-7.6115,-7.6826,-7.6318,-7.6555,-7.801,-7.6758,-7.6555,-7.7908,-7.6521,-7.5709,-7.5709,-7.5709,-7.5405,-7.4728,-7.3984,-7.3274,-7.2665,-7.2665,-7.2597,-7.2563,-7.3537,-7.398,-7.3844,-7.3331,-7.2834,-7.2288,-7.0464,-6.9286,-6.8534,-6.757,-6.6618,-6.5875,-6.6567,-6.6406,-6.5714,-6.4886,-6.3133,-6.1567,-6.3628,-6.3265,-6.2626,-6.5511,-6.6458,-6.6104,-6.3866,-6.3212,-6.2543,-5.9595,-5.886,-5.8502,-5.7004,-5.6719,-5.6483,-5.5726,-5.6192,-5.6729,-5.6729,-5.7368,-5.7881,-5.7881,-5.7881,-5.7848,-5.778,-5.707,-5.6562,-5.6562,-5.5344,-5.4465,-5.4465,-5.389,-5.3179,-5.2367,-5.1488,-5.0914,-5.0813,-5.0135,-4.9424,-4.8781,-4.8139,-4.78,-4.78,-4.78,-4.8105,-4.8748,-4.8748,-4.8815,-4.8883,-4.8883,-4.8883,-4.6684,-4.6752,-4.7597,-5.0135,-5.1826,-5.3991,-5.8084,-5.9539,-6.1028,-6.4444,-6.6576,-6.847,-7.05,-7.1921,-7.2969,-7.3578,-7.395,-7.4086,-7.3984,-7.4221,-7.3815,-7.2225,-7.3071,-7.4424,-7.6048,-7.5506,-7.5709,-7.7232,-7.5946,-7.5337,-7.598,-7.5405,-7.5067,-7.5067,-7.5473,-7.554,-7.5236,-7.4525,-7.3874,-7.3266,-7.2458,-7.1707,-7.1043,-7.1852,-7.2471,-7.2788,-7.3118,-7.2267,-7.0576,-6.98,-6.843,-6.6637,-6.6249,-6.547,-6.4642,-6.5592,-6.5126,-6.3969,-6.3535,-6.2521,-6.1491,-6.2983,-6.3338,-6.3429,-6.488,-6.534,-6.4963,-6.3112,-6.1913,-6.0739,-5.8896,-5.7913,-5.7135,-5.651,-5.6025,-5.5799,-5.602,-5.6342,-5.6729,-5.7256,-5.7662,-5.7881,-5.7881,-5.7881,-5.7746,-5.7306,-5.7002,-5.6799,-5.6799,-5.5513,-5.4431,-5.4025,-5.3687,-5.3382,-5.3044,-5.23,-5.186,-5.186,-5.115,-5.0608,-5.0304,-4.9968,-4.9627,-4.9187,-4.9187,-4.912,-4.9018,-4.9424,-4.9627,-4.9627,-4.9627,-4.9627,-4.7496,-4.8176,-4.9427,-5.2097,-5.5175,-5.8186,-6.0622,-6.2753,-6.5121,-6.8199,-6.9891,-7.1447,-7.3612,-7.4153,-7.4289,-7.4289,-7.4119,-7.3815,-7.3274,-7.2834,-7.1819,-6.9789,-7.0331,-7.1548,-7.3375,-7.3815,-7.4627,-7.6149,-7.5033,-7.439,-7.4593,-7.4627,-7.4627,-7.4627,-7.5337,-7.5608,-7.5405,-7.4911,-7.4119,-7.3034,-7.2166,-7.1003,-6.9713,-7.0861,-7.1394,-7.1512,-7.2186,-7.1165,-6.8934,-6.8392,-6.7001,-6.5153,-6.4955,-6.4132,-6.3224,-6.3923,-6.3499,-6.2437,-6.1966,-6.1359,-6.0921,-6.1905,-6.2676,-6.3364,-6.4118,-6.4324,-6.3981,-6.1976,-6.0717,-5.9511,-5.762,-5.6486,-5.5826,-5.5432,-5.4952,-5.4778,-5.5393,-5.5716,-5.6074,-5.6696,-5.7185,-5.7517,-5.7517,-5.7735,-5.7712,-5.7171,-5.7103,-5.6968,-5.6562,-5.5378,-5.4329,-5.3585,-5.3518,-5.3518,-5.3518,-5.2976,-5.2638,-5.2638,-5.1928,-5.1522,-5.1522,-5.1319,-5.0947,-5.0405,-5.0405,-5.0135,-4.9627,-5.0135,-5.0405,-5.0405,-5.0168,-5.0101,-4.6413,-4.8917,-5.1995,-5.5716,-5.9438,-6.2956,-6.5899,-6.7793,-6.935,-7.0906,-7.1819,-7.236,-7.2462,-7.3037,-7.351,-7.351,-7.2935,-7.2462,-7.2428,-7.1176,-6.9722,-6.8166,-6.7387,-6.7286,-6.8064,-7.077,-7.3071,-7.4559,-7.395,-7.3849,-7.4559,-7.4627,-7.4627,-7.4627,-7.5337,-7.5371,-7.4661,-7.4861,-7.3581,-7.0921,-7.1128,-7.0394,-6.901,-7.1031,-7.1322,-7.0185,-7.0193,-6.9349,-6.7778,-6.5853,-6.4961,-6.4864,-6.4103,-6.2811,-6.1357,-6.1405,-6.1549,-6.1491,-5.9975,-5.8936,-5.86,-6.0225,-6.0777,-6.1261,-6.3843,-6.4607,-6.3908,-6.0662,-6.0205,-5.962,-5.5019,-5.4283,-5.4407,-5.3127,-5.2819,-5.2788,-5.2788,-5.3477,-5.4105,-5.4105,-5.5474,-5.6652,-5.6652,-5.7331,-5.7881,-5.7848,-5.7848,-5.734,-5.5919,-5.5074,-5.4329,-5.3585,-5.3518,-5.3518,-5.3518,-5.3484,-5.345,-5.345,-5.2706,-5.2266,-5.2266,-5.1589,-5.1217,-5.1183,-5.1183,-5.1183,-5.1117,-5.1183,-5.1183,-5.1151,-5.0439,-5.0101,-4.8173,-5.1183,-5.46,-5.9336,-6.2956,-6.5967,-6.847,-6.9857,-7.0703,-7.121,-7.0297,-6.9248,-6.8774,-6.847,-6.8301,-6.8301,-6.9383,-7.0195,-7.0195,-7.0195,-6.8702,-6.4613,-6.4762,-6.4481,-6.2649,-6.6239,-6.9519,-7.1515,-7.1447,-7.1616,-7.2394,-7.3341,-7.4086,-7.4593,-7.5337,-7.5337,-7.4627,-7.4357,-7.3156,-7.0966,-6.955,-6.8331,-6.7388,-6.8576,-6.9092,-6.909,-6.8519,-6.7781,-6.6796,-6.5437,-6.4224,-6.3145,-6.2922,-6.2063,-6.0862,-5.9961,-5.971,-5.9642,-5.8647,-5.8128,-5.8165,-5.9361,-6.0068,-6.0757,-6.2435,-6.2529,-6.1698,-6.0065,-5.9029,-5.7806,-5.5628,-5.4884,-5.4468,-5.3591,-5.3375,-5.3511,-5.4121,-5.4108,-5.4274,-5.5345,-5.6123,-5.6614,-5.6614,-5.7331,-5.7712,-5.7239,-5.7171,-5.6799,-5.5852,-5.5074,-5.4329,-5.3585,-5.3518,-5.3518,-5.3518,-5.3518,-5.3518,-5.3518,-5.3247,-5.3112,-5.3112,-5.2875,-5.2469,-5.1961,-5.1928,-5.1454,-5.0473,-5.1454,-5.1691,-5.1185,-5.0947,-5.0845,-5.0676,-5.4465,-5.8349,-6.2381,-6.5462,-6.7913,-6.9637,-7.0208,-7.0186,-6.9769,-6.7895,-6.5933,-6.4647,-6.3599,-6.3091,-6.3599,-6.5155,-6.6677,-6.7726,-6.7827,-6.6745,-6.3777,-6.3601,-6.3082,-6.1603,-6.39,-6.6445,-6.8707,-6.9379,-7.0052,-7.0872,-7.2563,-7.3713,-7.4187,-7.5168,-7.5147,-7.4037,-7.3989,-7.2701,-7.0184,-6.7912,-6.6518,-6.5859,-6.6942,-6.7282,-6.6998,-6.6538,-6.5799,-6.4887,-6.3837,-6.2748,-6.1753,-6.1753,-6.1224,-6.0301,-5.9193,-5.8639,-5.8331,-5.7703,-5.7611,-5.7943,-5.8971,-5.9744,-6.0439,-6.1294,-6.111,-6.0384,-5.9093,-5.8141,-5.7098,-5.5442,-5.4853,-5.4498,-5.3853,-5.3714,-5.3913,-5.4733,-5.4366,-5.4166,-5.5173,-5.5798,-5.6113,-5.6113,-5.711,-5.7712,-5.7273,-5.6968,-5.6427,-5.5446,-5.4668,-5.4025,-5.3551,-5.3518,-5.3518,-5.3518,-5.3246,-5.3041,-5.3041,-5.3041,-5.3041,-5.3041,-5.3348,-5.3281,-5.2739,-5.2739,-5.2266,-5.1319,-5.2266,-5.2503,-5.2029,-5.1455,-5.132,-5.389,-5.866,-6.3026,-6.4839,-6.7003,-6.8804,-6.9462,-6.897,-6.7995,-6.677,-6.4674,-6.2341,-6.0013,-5.8454,-5.8048,-5.9532,-6.0574,-6.2263,-6.52,-6.4457,-6.4045,-6.5335,-6.3647,-6.2904,-6.4173,-6.3482,-6.387,-6.6199,-6.7836,-6.9148,-7.0185,-7.2326,-7.351,-7.3477,-7.4897,-7.4757,-7.2895,-7.3514,-7.2026,-6.8437,-6.6299,-6.5007,-6.4551,-6.6199,-6.5947,-6.422,-6.4228,-6.3502,-6.2221,-6.1226,-6.0794,-6.0794,-6.0794,-6.0393,-5.9747,-5.907,-5.8393,-5.7765,-5.7087,-5.7272,-5.7912,-5.8829,-5.957,-6.0171,-6.0508,-6.0554,-6.0052,-5.7806,-5.7674,-5.7476,-5.4498,-5.4191,-5.4498,-5.3853,-5.3745,-5.3914,-5.4591,-5.4191,-5.3775,-5.3775,-5.46,-5.5353,-5.5434,-5.6806,-5.7881,-5.7881,-5.7273,-5.6292,-5.4837,-5.4025,-5.3551,-5.3518,-5.3484,-5.3416,-5.3416,-5.2694,-5.2236,-5.2236,-5.2236,-5.2236,-5.2236,-5.2972,-5.3382,-5.3382,-5.3416,-5.3416,-5.3382,-5.345,-5.3484,-5.3416,-5.1961,-5.1657,-5.8287,-6.2178,-6.5249,-6.6819,-6.8314,-6.9224,-6.8517,-6.6697,-6.47,-6.304,-5.9559,-5.5944,-5.3146,-5.2739,-5.3454,-5.5372,-5.8195,-6.1086,-6.3895,-6.4407,-6.4125,-6.2923,-6.23,-6.1599,-6.0735,-6.0899,-6.2002,-6.4379,-6.7122,-6.9382,-7.0962,-7.3138,-7.4052,-7.351,-7.439,-7.3749,-7.1404,-6.9272,-6.7594,-6.6301,-6.5186,-6.4621,-6.4468,-6.4555,-6.4419,-6.4139,-6.2973,-6.2382,-6.2221,-6.1226,-6.0794,-6.0794,-6.0794,-6.0701,-6.0455,-5.9778,-5.9101,-5.8423,-5.7795,-5.7333,-5.7197,-5.7934,-5.8262,-5.8643,-5.9902,-5.9931,-5.9439,-5.8827,-5.8053,-5.6941,-5.4962,-5.456,-5.4498,-5.3853,-5.4068,-5.4621,-5.5315,-5.4945,-5.4437,-5.4437,-5.4917,-5.5716,-5.6996,-5.7591,-5.7881,-5.7881,-5.7273,-5.6461,-5.5547,-5.4769,-5.4093,-5.3551,-5.2972,-5.2624,-5.2624,-5.1878,-5.1406,-5.1406,-5.1406,-5.1406,-5.1406,-5.159,-5.17,-5.17,-5.2307,-5.2324,-5.1724,-5.2909,-5.3179,-5.2604,-5.2198,-5.2131,-6.1129,-6.4681,-6.7201,-6.7208,-6.7637,-6.7424,-6.4949,-6.2881,-6.0457,-5.6806,-5.3756,-5.0723,-4.7461,-4.7374,-4.8585,-5.0968,-5.4157,-5.7644,-6.14,-6.2275,-6.2566,-6.2677,-6.2385,-6.193,-6.1355,-6.1471,-6.2475,-6.4591,-6.6493,-6.8619,-7.1154,-7.3105,-7.3916,-7.351,-7.3763,-7.2543,-6.9777,-6.6332,-6.4741,-6.5037,-6.4342,-6.3893,-6.3669,-6.3954,-6.3756,-6.3123,-6.2507,-6.2022,-6.1602,-6.1021,-6.0794,-6.0794,-6.0794,-6.0794,-6.0671,-5.9716,-5.9101,-5.8639,-5.7734,-5.7118,-5.6933,-5.7611,-5.8011,-5.8418,-5.9301,-5.9121,-5.859,-5.859,-5.7809,-5.6606,-5.5116,-5.4683,-5.4498,-5.3853,-5.4191,-5.4868,-5.5561,-5.5407,-5.507,-5.488,-5.5302,-5.6075,-5.7139,-5.7662,-5.7881,-5.7881,-5.7543,-5.69,-5.5852,-5.5074,-5.4329,-5.3585,-5.2799,-5.2307,-5.2307,-5.1252,-5.0576,-5.0576,-5.0576,-5.0576,-5.0576,-5.0919,-5.1107,-5.1107,-5.1878,-5.2108,-5.1609,-5.2874,-5.3281,-5.2807,-5.2469,-5.2503,-6.31,-6.6314,-6.8489,-6.6679,-6.5876,-6.4536,-6.0446,-5.8281,-5.5564,-4.9971,-4.8,-4.6221,-4.2898,-4.2813,-4.4266,-4.7165,-4.992,-5.3447,-5.8438,-5.9306,-6.0412,-6.3156,-6.298,-6.2884,-6.3544,-6.3415,-6.3966,-6.5577,-6.5853,-6.7439,-7.0812,-7.2431,-7.3137,-7.2935,-7.2346,-7.0692,-6.788,-6.4401,-6.315,-6.4208,-6.3514,-6.2978,-6.2643,-6.3723,-6.3344,-6.184,-6.2425,-6.1963,-6.0794,-6.0794,-6.0763,-6.0671,-6.0671,-6.0609,-6.0393,-5.9224,-5.8731,-5.8485,-5.7364,-5.6871,-5.6933,-5.7611,-5.8227,-5.867,-5.8762,-5.8362,-5.7919,-5.7857,-5.7333,-5.6532,-5.5191,-5.4683,-5.4437,-5.4083,-5.4314,-5.4898,-5.5684,-5.5745,-5.5596,-5.521,-5.5655,-5.6204,-5.6552,-5.7218,-5.7772,-5.7881,-5.7881,-5.7408,-5.6021,-5.5209,-5.4397,-5.345,-5.259,-5.2125,-5.2116,-5.064,-4.9773,-4.9867,-4.9773,-4.971,-4.971,-5.0384,-5.0767,-5.0767,-5.1586,-5.1951,-5.1951,-5.2903,-5.3348,-5.3348,-5.2707,-5.2841,-6.5257,-6.6953,-6.7751,-6.6163,-6.4608,-6.2378,-5.8422,-5.4236,-5.016,-4.6504,-4.4106,-4.211,-4.0289,-4.102,-4.2956,-4.6202,-4.8599,-5.179,-5.6575,-5.8221,-5.9652,-6.1502,-6.209,-6.2407,-6.2534,-6.3001,-6.3666,-6.4615,-6.5218,-6.6703,-6.9334,-7.087,-7.1149,-6.9973,-6.7926,-6.625,-6.5116,-6.3472,-6.2726,-6.2922,-6.2234,-6.2152,-6.256,-6.2393,-6.213,-6.1809,-6.1933,-6.1532,-6.0794,-6.0794,-6.0455,-5.9963,-5.9963,-5.9624,-5.9101,-5.8885,-5.8423,-5.7949,-5.7734,-5.7272,-5.6933,-5.7611,-5.7888,-5.8104,-5.8608,-5.8701,-5.8485,-5.798,-5.7333,-5.6625,-5.5745,-5.4699,-5.4145,-5.513,-5.5037,-5.5068,-5.6347,-5.6115,-5.572,-5.5808,-5.5486,-5.5495,-5.6441,-5.6729,-5.7067,-5.7808,-5.7881,-5.7577,-5.6731,-5.5987,-5.4728,-5.2722,-5.1806,-5.1291,-5.1136,-4.9734,-4.9099,-4.9718,-4.9192,-4.8811,-4.8811,-4.8975,-4.9025,-4.9025,-4.9868,-5.0338,-5.0338,-5.1769,-5.2485,-5.252,-5.3078,-5.3382,-6.4664,-6.6179,-6.6886,-6.5909,-6.3501,-6.0076,-5.5282,-5.0749,-4.6347,-4.2002,-4.0483,-3.9534,-3.8144,-3.9281,-4.1205,-4.3567,-4.5696,-4.882,-5.3929,-5.553,-5.7232,-6.0142,-6.1095,-6.15,-6.15,-6.2435,-6.3184,-6.3579,-6.4577,-6.6512,-6.9523,-7.0338,-7.0002,-6.8432,-6.6159,-6.4464,-6.3579,-6.227,-6.1857,-6.2145,-6.1888,-6.2074,-6.2703,-6.2809,-6.2856,-6.2825,-6.2487,-6.1963,-6.1286,-6.0948,-6.0393,-5.9778,-5.9778,-5.9378,-5.8793,-5.8793,-5.8577,-5.8239,-5.7949,-5.7611,-5.7333,-5.7303,-5.7303,-5.7487,-5.8454,-5.8547,-5.827,-5.83,-5.7857,-5.7087,-5.5961,-5.5222,-5.4822,-5.513,-5.4945,-5.4868,-5.5561,-5.5684,-5.5517,-5.4926,-5.5202,-5.547,-5.5269,-5.5995,-5.6729,-5.7181,-5.7218,-5.6951,-5.6215,-5.5443,-5.4386,-5.3003,-5.141,-5.0466,-5.0382,-4.9284,-4.8758,-4.9097,-4.9158,-4.9004,-4.8635,-4.8974,-4.9004,-4.8635,-4.9868,-5.0499,-5.0499,-5.2131,-5.2903,-5.2938,-5.3314,-5.3518,-6.2945,-6.4626,-6.5655,-6.5006,-6.1824,-5.7459,-5.207,-4.7673,-4.3318,-3.833,-3.7592,-3.7526,-3.6477,-3.7584,-3.9154,0.0,-4.2633,-4.5803,-5.1097,-5.2914,-5.513,-5.8916,-6.0209,-6.0794,-6.0794,-6.2025,-6.2825,-6.2825,-6.4118,-6.6176,-6.9116,-6.9253,-6.8617,-6.7045,-6.5073,-6.3569,-6.261,-6.1409,-6.1071,-6.1594,-6.1594,-6.1963,-6.261,-6.3164,-6.3379,-6.3349,-6.2825,-6.221,-6.1563,-6.1009,-6.0301,-5.9562,-5.9562,-5.9162,-5.8577,-5.8577,-5.867,-5.8701,-5.8177,-5.8042,-5.7919,-5.7241,-5.6933,-5.7025,-5.8073,-5.8134,-5.7888,-5.8239,-5.8134,-5.7549,-5.6238,-5.5807,-5.553,-5.4837,-5.4806,-5.4837,-5.4714,-5.513,-5.513,-5.396,-5.4677,-5.5197,-5.4155,-5.5312,-5.6342,-5.6342,-5.6498,-5.6338,-5.5551,-5.4579,-5.3783,-5.3372,-5.152,-5.0231,-5.0102,-4.9326,-4.885,-4.885,-4.922,-4.9189,-4.8635,-4.9312,-4.9343,-4.8635,-5.0231,-5.1005,-5.0843,-5.2449,-5.3246,-5.3246,-5.3416,-5.3518,-6.0674,-6.2312,-6.3724,-6.2418,-5.8848,-5.4348,-4.9432,-4.5023,-4.0951,-3.7339,-3.6168,-3.5736,-3.5614,-3.5768,0.0,0.0,0.0,-4.3556,-4.8327,-5.1713,-5.4791,-5.7623,-5.9624,-6.0794,-6.0794,-6.2025,-6.2825,-6.2825,-6.4118,-6.5306,-6.627,-6.6301,-6.5936,-6.5146,-6.3726,-6.2624,-6.1902,-6.1163,-6.0824,-6.0886,-6.0886,-6.1255,-6.1902,-6.1963,-6.1994,-6.1994,-6.1933,-6.1502,-6.0886,-6.0824,-6.0055,-5.8885,-5.8885,-5.8454,-5.7919,-5.7919,-5.8288,-5.8762,-5.8701,-5.8701,-5.8577,-5.7949,-5.7303,-5.684,-5.6964,-5.7395,-5.7703,-5.7148,-5.7395,-5.7641,-5.6902,-5.6176,-5.553,-5.4837,-5.5191,-5.5438,-5.4806,-5.4745,-5.4607,-5.3868,-5.3821,-5.3937,-5.4005,-5.4819,-5.5434,-5.5434,-5.6074,-5.6309,-5.5417,-5.4022,-5.3111,-5.3067,-5.2226,-5.1393,-5.0696,-4.997,-4.9589,-4.9589,-4.9035,-4.8696,-4.8604,-4.9312,-4.9343,-4.8635,-5.0138,-5.062,-5.0026,-5.1623,-5.2414,-5.2414,-5.3178,-5.3518,-5.7878,-6.0041,-6.1515,-6.0696,-5.6627,-5.1946,-4.8745,-4.3416,-3.8631,-3.6846,-3.5675,-3.4905,-3.4905,-3.5244,0.0,0.0,0.0,0.0,-4.4972,-4.7465,-5.0605,-5.5376,-5.7377,-5.9008,-6.064,-6.2025,-6.3164,-6.3995,-6.418,-6.4364,-6.4641,-6.5072,-6.5165,-6.4918,-6.3533,-6.2487,-6.1809,-6.1132,-6.0794,-6.0794,-6.0794,-6.1163,-6.1809,-6.1809,-6.2025,-6.2394,-6.1994,-6.1656,-6.1379,-6.0978,-6.024,-5.9378,-5.9378,-5.8978,-5.8423,-5.8824,-5.9162,-5.9378,-5.9378,-5.9378,-5.9285,-5.8608,-5.798,-5.7426,-5.7426,-5.7611,-5.7765,-5.7487,-5.7611,-5.7672,-5.6994,-5.6594,-5.6053,-5.4929,-5.4914,-5.4822,-5.3745,-5.3791,-5.3883,-5.3252,-5.3437,-5.3589,-5.325,-5.3965,-5.4527,-5.4527,-5.4819,-5.4943,-5.4569,-5.3498,-5.2841,-5.2841,-5.1845,-5.0867,-5.0155,-4.9835,-4.9497,-4.9066,-4.9189,-4.9066,-4.8635,-4.9712,-4.9996,-4.9381,-5.085,-5.1514,-5.1364,-5.2449,-5.3007,-5.3007,-5.3348,-5.3518,-5.4223,-5.6944,-5.8798,-5.8332,-5.4295,-4.9804,-4.7253,-4.1925,-3.7184,-3.6107,-3.4968,-3.4197,-3.4197,-3.4566,0.0,0.0,0.0,-3.8785,-4.2515,-4.4664,-4.7711,-5.2667,-5.4791,-5.6854,-5.9347,-6.1563,-6.3379,-6.4795,-6.4057,-6.3626,-6.381,-6.3933,-6.418,-6.458,-6.3225,-6.2394,-6.2117,-6.1225,-6.0794,-6.0794,-6.0794,-6.104,-6.1502,-6.1502,-6.1779,-6.221,-6.1717,-6.1502,-6.1471,-6.1009,-6.0393,-5.9778,-5.9778,-5.9501,-5.9131,-5.9624,-5.9932,-6.0086,-6.0086,-6.0086,-5.9993,-5.9285,-5.8762,-5.8331,-5.8165,-5.7857,-5.758,-5.7765,-5.7672,-5.7426,-5.6933,-5.681,-5.6532,-5.5284,-5.4806,-5.4375,-5.3252,-5.3221,-5.3283,-5.279,-5.3098,-5.3283,-5.279,-5.3434,-5.3891,-5.3664,-5.3805,-5.3891,-5.3664,-5.3069,-5.2698,-5.2698,-5.1867,-5.1005,-5.0328,-5.0112,-4.9682,-4.8974,-4.922,-4.9253,-4.9006,-5.035,-5.0923,-5.0579,-5.1997,-5.2712,-5.2638,-5.2969,-5.3144,-5.3144,-5.3144,-5.3144,-4.9601,-5.2712,-5.5608,-5.4914,-5.1652,-4.7742,-4.4394,-4.0481,-3.6938,-3.4936,-3.3921,-3.3429,-3.3429,-3.3429,0.0,0.0,0.0,0.0,-4.1217,-4.4479,-4.7373,-4.9497,-5.2113,-5.4545,-5.6656,-6.0455,-6.3379,-6.4795,-6.3595,-6.3133,-6.3779,-6.2579,-6.2456,-6.3779,-6.2517,-6.2148,-6.2794,-6.1471,-6.0794,-6.0794,-6.0794,-6.0794,-6.0824,-6.0824,-6.0824,-6.0824,-6.0824,-6.0824,-6.0824,-6.0794,-6.0393,-5.9778,-5.9778,-5.9778,-5.9778,-5.9778,-6.0209,-6.0794,-6.0794,-6.0794,-6.0671,-5.9993,-5.9778,-5.9655,-5.8978,-5.7888,-5.6964,-5.7641,-5.7333,-5.681,-5.681,-5.681,-5.6625,-5.5869,-5.5191,-5.4498,-5.3868,-5.3191,-5.2729,-5.2698,-5.2729,-5.2729,-5.2698,-5.3434,-5.3707,-5.2833,-5.3434,-5.3707,-5.2833,-5.2729,-5.2698,-5.2698,-5.2698,-5.2421,-5.1744,-5.1067,-5.0389,-4.9712,-4.9004,-4.8975,-4.9829,-5.1227,-5.2052,-5.2139,-5.3616,-5.4026,-5.3404,-5.2638,-5.2307,-5.2307,-5.2307,-5.2307,-4.5618,-4.7804,-4.9312,-4.8635,-4.5772,-4.2658,-4.1155,-3.7646,-3.4506,-3.386,-3.3183,-3.2721,-3.2721,-3.309,0.0,0.0,0.0,0.0,0.0,-4.4787,-4.7711,-5.0697,-5.5899,-5.9686,-6.0794,-6.2487,-6.3903,-6.4826,-6.4026,-6.341,-6.3133,-6.2302,-6.221,-6.3102,-6.2271,-6.1902,-6.2117,-6.1255,-6.0794,-6.0794,-6.0794,-6.0794,-6.0794,-6.0794,-6.0794,-6.0794,-6.0794,-6.0794,-6.0794,-6.0794,-6.0671,-6.0486,-6.0486,-6.0486,-6.0486,-6.0486,-6.0609,-6.0794,-6.0794,-6.0794,-6.0701,-6.0024,-5.947,-5.907,-5.8854,-5.8146,-5.7457,-5.721,-5.6964,-5.6686,-5.6146,-5.644,-5.6532,-5.5315,-5.4837,-5.4498,-5.3822,-5.3191,-5.2698,-5.2698,-5.2698,-5.2698,-5.2698,-5.2922,-5.3024,-5.2743,-5.2935,-5.3024,-5.2743,-5.2698,-5.2698,-5.2698,-5.2698,-5.2452,-5.1775,-5.1097,-5.0389,-4.9712,-4.9004,-4.9015,-4.9868,-5.0753,-5.178,-5.3,-5.3419,-5.3853,-5.4219,-5.2921,-5.2023,-5.148,-5.148,-5.148,0.0,-4.3464,-4.4603,-4.4202,-4.1894,-3.949,-3.86,-3.5799,-3.3336,-3.3059,-3.269,-3.2382,-3.2382,-3.2721,-3.3829,0.0,0.0,0.0,-4.1401,-4.4141,-4.7496,-5.1929,-5.71,-6.0855,-6.2302,-6.3287,-6.4241,-6.5195,-6.4149,-6.3256,-6.2825,-6.1933,-6.1625,-6.2056,-6.1656,-6.1563,-6.1809,-6.1132,-6.0794,-6.0794,-6.0794,-6.0794,-6.0794,-6.0794,-6.0794,-6.0794,-6.0794,-6.0794,0.0,-6.0794,-6.0794,-6.0794,-6.0794,-6.0794,-6.0794,-6.0794,-6.0794,-6.0794,-6.0794,-6.064,-6.0332,-5.9932,-5.9347,-5.8731,-5.8485,-5.8165,-5.7672,-5.6994,-5.681,-5.6656,-5.5869,-5.6023,-5.6084,-5.4976,-5.4498,-5.4191,-5.3806,-5.3191,-5.2698,-5.2698,-5.2698,-5.2698,-5.2698,-5.2698,-5.2698,-5.2698,-5.2698,-5.2698,-5.2698,-5.2698,-5.2698,-5.2698,-5.2698,-5.2452,-5.1775,-5.1313,-5.079,-5.0112,-4.9404,-4.9295,-4.99,-5.085,-5.1997,-5.332,-5.3581,-5.3838,-5.4089,-5.2298,-5.1269,-5.1,-5.0434,-5.0538,0.0,-3.9554,-4.1093,-4.1093,-3.9616,-3.78,-3.6569,-3.4752,0.0,-3.2536,-3.2444,-3.2475,-3.2475,-3.2536,-3.3275,-3.5306,-3.5737,-3.6969,-4.0197,-4.3248,-4.7342,-5.3221,-5.6423,-5.907,-6.1502,-6.3041,-6.4426,-6.575,-6.3995,-6.2856,-6.2825,-6.1563,-6.0855,-6.0794,-6.0794,-6.1101,-6.1717,-6.1101,-6.0794,-6.0794,-6.0794,-6.0794,-6.0794,-6.0794,-6.0794,-6.0794,-6.0794,-6.0794,-6.0794,-6.0794,-6.0794,-6.0794,-6.0794,-6.0794,-6.0794,-6.0794,-6.0763,-6.0732,-6.0732,-6.027,-5.9716,-5.9655,-5.9193,-5.8516,-5.7949,-5.7795,-5.7672,-5.6994,-5.681,-5.6625,-5.5807,-5.5653,-5.553,-5.4822,-5.416,-5.373,-5.3745,-5.3221,-5.276,-5.2729,-5.2698,-5.2698,-5.2698,-5.2698,-5.2729,-5.276,-5.279,-5.279,-5.2852,-5.2821,-5.279,-5.279,-5.2729,-5.2452,-5.1775,-5.1713,-5.1374,-5.0667,-5.002,-4.976,-4.99,-5.1257,-5.2359,-5.311,-5.3945,-5.3907,-5.3071,-5.1001,-5.0279,-5.079,-4.9367,-4.9599,-3.3614,0.0,-3.6168,-3.6168,-3.5368,-3.4506,0.0,0.0,-3.2598,-3.2413,0.0,-3.3152,-3.3152,-3.4044,-3.5245,-3.6784,-3.8323,-3.9985,-4.1863,-4.7127,-5.2113,-5.5622,-5.9347,-6.1471,-6.1071,-6.3225,-6.4795,-6.5103,-6.418,-6.3349,-6.2856,-6.2025,-6.1317,-6.0824,-6.0794,-6.0886,-6.104,-6.0886,-6.0794,-6.0794,-6.0794,-6.0794,-6.0794,-6.0794,-6.0794,-6.0794,-6.0794,-6.0794,-6.0794,-6.0794,-6.0794,-6.0794,-6.0794,-6.0794,-6.0794,-6.0794,-6.0486,-6.0024,-6.0024,-5.9593,-5.8947,-5.8423,-5.7826,-5.7241,-5.7087,-5.7395,-5.7672,-5.6994,-5.681,-5.6532,-5.5284,-5.5315,-5.5407,-5.4237,-5.4191,-5.4314,-5.3791,-5.3591,-5.3345,-5.2821,-5.2698,-5.2698,-5.2698,-5.2698,-5.2883,-5.3406,-5.3468,-5.3683,-5.4129,-5.376,-5.3468,-5.3468,-5.3037,-5.2452,-5.1775,-5.1713,-5.119,-4.9989,-4.9774,-4.976,-4.99,-5.0263,-5.1069,-5.2436,-5.3487,-5.3335,-5.1891,-5.1446,-5.0785,-4.9987,-4.9824,-4.9962,-3.2382,-3.3183,-3.4012,-3.4012,-3.3706,-3.3398,-3.3398,0.0,0.0,0.0,0.0,0.0,-3.3336,-3.4014,-3.5276,-3.7584,-3.8631,-4.0385,-4.3925,-4.8943,-5.3498,-5.6871,-5.9993,-6.2086,-6.2641,-6.3718,-6.4549,-6.4857,-6.3656,-6.2733,-6.2364,-6.1717,-6.1163,-6.0824,-6.0794,-6.0794,-6.0794,-6.0794,-6.0794,-6.0794,-6.0794,-6.0794,-6.0794,-6.0794,-6.0794,-6.0794,-6.0794,-6.0794,-6.0763,-6.0455,-6.0332,-6.0301,-5.9993,-5.987,-5.987,-5.987,-5.9624,-5.9316,-5.9316,-5.8885,-5.8258,-5.758,-5.7118,-5.681,-5.681,-5.7056,-5.7272,-5.6902,-5.681,-5.6502,-5.5099,-5.5222,-5.5284,-5.3652,-5.3775,-5.4037,-5.3406,-5.3252,-5.3252,-5.3191,-5.2914,-5.2914,-5.3529,-5.3375,-5.3314,-5.3683,-5.3714,-5.3699,-5.3806,-5.3498,-5.3388,-5.3775,-5.3183,-5.2653,-5.2408,-5.1977,-5.1128,-4.9774,-4.9682,-4.9552,-4.93,-4.967,-5.05,-5.1869,-5.2294,-5.2172,-5.1426,-5.1141,-5.0659,-4.9987,-5.0331,-5.0632,-3.2505,-3.3059,-3.3521,-3.3306,-3.3336,-3.3398,-3.3398,0.0,0.0,0.0,0.0,0.0,0.0,-3.4044,-3.5276,-3.82,-3.8785,-4.094,-4.685,-5.0359,-5.3683,-5.7395,-5.9655,-6.1779,-6.3903,-6.3841,-6.3933,-6.4518,-6.2856,-6.1809,-6.1809,-6.1163,-6.0794,-6.0794,-6.0794,-6.0794,-6.0794,-6.0794,-6.0794,-6.0794,-6.0794,-6.0794,-6.0794,-6.0794,-6.0794,-6.0794,-6.0794,-6.0794,-6.0763,-6.0086,-5.9778,-5.9716,-5.9039,-5.8793,-5.8793,-5.8793,-5.8793,-5.8762,-5.867,-5.8177,-5.758,-5.6994,-5.681,-5.681,-5.681,-5.681,-5.681,-5.681,-5.681,-5.6532,-5.5191,-5.5222,-5.5099,-5.3283,-5.3314,-5.3529,-5.2852,-5.279,-5.3006,-5.3468,-5.3191,-5.3221,-5.4345,-5.4129,-5.3899,-5.4022,-5.3929,-5.3714,-5.3221,-5.3006,-5.3179,-5.408,-5.3409,-5.2958,-5.3179,-5.2282,-5.116,-4.98,-4.9704,-4.9416,-4.8718,-4.9501,-5.0351,-5.1318,-5.108,-5.1086,-5.1403,-5.0809,-5.0486,-5.0362,-5.0943,-5.1366,-3.309,-3.3767,-3.4073,-3.2844,-3.2967,-3.3398,-3.3398,0.0,0.0,0.0,0.0,0.0,0.0,-3.703,-3.8754,-3.9244,-4.2633,-4.6942,-5.1929,-5.4052,-5.5745,-5.7611,-6.0086,-6.1379,-6.064,-6.2025,-6.301,-6.3133,-6.2302,-6.1809,-6.1809,-6.1163,-6.0794,-6.0794,-6.0794,-6.0794,-6.0794,-6.0794,-6.0794,-6.0794,-6.0794,-6.0794,-6.0794,-6.0794,-6.0794,-6.0794,-6.0794,-6.0794,-6.0763,-6.0086,-5.9778,-5.9716,-5.9039,-5.8793,-5.8793,-5.8793,-5.8793,-5.8701,-5.8165,-5.7518,-5.6964,-5.684,-5.681,-5.681,-5.681,-5.681,-5.681,-5.681,-5.681,-5.6625,-5.5745,-5.5222,-5.4621,-5.3775,-5.3652,-5.3529,-5.2852,-5.316,-5.3437,-5.2944,-5.3252,-5.3622,-5.3837,-5.4222,-5.476,-5.5315,-5.4914,-5.473,-5.5191,-5.4268,-5.3892,-5.4731,-5.4226,-5.365,-5.3258,-5.2458,-5.1379,-4.9962,-4.976,-4.9542,-4.921,-4.9622,-5.016,-5.0614,-5.0858,-5.125,-5.183,-5.1777,-5.1372,-5.0684,-5.2048,-5.1869,-3.2782,-3.3367,-3.3737,-3.309,-3.3737,-3.4445,-3.4075,-3.3983,0.0,0.0,0.0,0.0,0.0,-3.8723,-4.0997,-4.3919,-4.7804,-5.1221,-5.3361,-5.5191,-5.6686,-5.7703,-5.9501,-6.0763,-6.0886,-6.1717,-6.2271,-6.2271,-6.1656,-6.1255,-6.1255,-6.0978,-6.0794,-6.0794,-6.0794,-6.0794,-6.0794,-6.0794,-6.0794,-6.0794,-6.0794,-6.0794,-6.0794,-6.0794,-6.0794,-6.0763,-6.0424,-6.024,-6.0178,-5.9131,-5.8701,-5.8639,-5.8011,-5.7734,-5.7734,-5.7734,-5.7734,-5.7703,-5.7395,-5.7087,-5.681,-5.681,-5.681,-5.681,-5.681,-5.681,-5.681,-5.681,-5.681,-5.6656,-5.5869,-5.5745,-5.5468,-5.4052,-5.3991,-5.3945,-5.2944,-5.2944,-5.3314,-5.3714,-5.3775,-5.4083,-5.5161,-5.5315,-5.5345,-5.5653,-5.5438,-5.5099,-5.4668,-5.4083,-5.3923,-5.4427,-5.3765,-5.3427,-5.3728,-5.2258,-5.0684,-4.9281,-4.9367,-4.9429,-4.9291,-4.9693,-5.001,-5.0175,-5.0327,-5.0443,-5.0483,-5.09,-5.0694,-4.9978,-5.172,-5.1982,-3.2598,-3.3121,-3.3614,-3.3429,0.0,-3.5306,-3.5429,-3.546,-3.5768,0.0,0.0,0.0,0.0,-4.0724,-4.3525,-4.8327,-5.1959,-5.436,-5.4853,-5.6392,-5.7765,-5.8393,-5.9408,-6.0424,-6.1471,-6.1563,-6.1563,-6.1563,-6.1101,-6.0794,-6.0794,-6.0794,-6.0794,-6.0794,-6.0794,-6.0794,-6.0794,-6.0794,-6.0794,-6.0794,-6.0794,-6.0701,-6.0578,-6.0578,-6.0486,-6.0301,-5.9778,-5.9562,-5.947,-5.827,-5.7826,-5.7765,-5.7087,-5.681,-5.681,-5.681,-5.681,-5.684,-5.6994,-5.6933,-5.681,-5.681,-5.681,-5.681,-5.681,-5.681,-5.681,-5.681,-5.6686,-5.644,-5.5838,-5.5869,-5.5684,-5.4299,-5.4068,-5.3976,-5.3129,-5.2821,-5.3006,-5.4006,-5.3914,-5.4237,-5.5776,-5.5869,-5.5684,-5.5684,-5.5684,-5.5284,-5.4114,-5.3837,-5.3799,-5.3985,-5.339,-5.3239,-5.3897,-5.2115,-5.0356,-4.8943,-4.9109,-4.9331,-4.9331,-4.9693,-4.9892,-4.9892,-4.9812,-4.9676,-4.9509,-5.0039,-4.9998,-4.9459,-5.1417,-5.202,-3.3152,-3.386,-3.4258,-3.3552,-3.3983,-3.5213,-3.7646,-3.8231,-3.897,-4.1555,-4.2109,-4.1955,-4.1463,-4.3987,-4.7127,-5.0051,-5.3375,-5.6207,-5.8146,-5.907,-5.9809,-6.0486,-6.0671,-6.0763,-6.0855,-6.0886,-6.0886,-6.0886,-6.0824,-6.0794,-6.0794,-6.0794,-6.0794,-6.0794,-6.0794,-6.0794,-6.0794,-6.0794,-6.0794,-6.0794,-6.0794,-6.0455,-5.987,-5.987,-5.9532,-5.8916,-5.8885,-5.8854,-5.8793,-5.8134,-5.7826,-5.7765,-5.7087,-5.681,-5.681,-5.681,-5.681,-5.6902,-5.7518,-5.7333,-5.681,-5.681,-5.681,-5.681,-5.681,-5.681,-5.681,-5.681,-5.6317,-5.5745,-5.5715,-5.4822,-5.4052,-5.4498,-5.3745,-5.3006,-5.3529,-5.316,-5.2729,-5.2852,-5.3345,-5.3775,-5.3929,-5.4914,-5.5684,-5.5684,-5.5684,-5.5438,-5.4714,-5.4068,-5.3799,-5.3985,-5.3934,-5.3649,-5.3123,-5.2292,-5.1215,-4.9693,-4.9388,-4.9331,-4.9331,-4.9693,-4.9892,-4.9892,-4.9501,-4.9643,-5.0227,-5.0289,-5.0082,-4.9716,-5.1952,-5.1982,-3.346,-3.3921,-3.4536,-3.466,-3.4936,0.0,0.0,-3.8877,-4.0416,-4.2725,-4.3895,-4.4633,-4.5218,-4.7773,-5.0513,-5.2821,-5.6053,-5.867,-5.987,-6.0609,-6.0978,-6.0824,-6.0794,-6.0794,-6.0794,-6.0794,-6.0794,-6.0794,-6.0794,-6.0794,-6.0794,-6.0794,-6.0794,-6.0794,-6.0794,-6.0794,-6.0794,-6.0794,-6.0578,-6.0178,-6.0178,-6.0055,-5.9778,-5.9347,-5.9008,-5.8731,-5.7949,-5.758,-5.7487,-5.633,-5.6115,-5.6453,-5.6207,-5.6084,-5.6084,-5.6084,-5.644,-5.684,-5.7118,-5.7025,-5.681,-5.681,-5.681,-5.6717,-5.6286,-5.6084,-5.6023,-5.5622,-5.5007,-5.4668,-5.5468,-5.5315,-5.4822,-5.4237,-5.3976,-5.376,-5.3221,-5.2883,-5.2821,-5.3252,-5.356,-5.3822,-5.4222,-5.476,-5.5222,-5.5622,-5.5684,-5.5468,-5.4775,-5.4468,-5.4036,-5.325,-5.3201,-5.2922,-5.2238,-5.1927,-5.1165,-4.9785,-4.9823,-4.9727,-4.9331,-4.9452,-4.9721,-5.016,-4.9274,-4.9223,-4.9904,-4.947,-4.9171,-4.9046,-5.0961,-5.1447,-3.349,-3.4075,-3.4874,-3.5121,0.0,0.0,-3.8477,-4.0201,-4.2325,-4.5218,-4.6203,-4.6819,-4.7742,-4.9835,-5.2052,-5.4037,-5.7254,-5.9778,-6.0671,-6.1194,-6.1317,-6.0855,-6.0794,-6.0794,-6.0794,-6.0794,-6.0794,-6.0794,-6.0794,-6.0794,-6.0794,-6.0794,-6.0794,-6.0794,-6.0794,-6.0701,-6.0486,-6.0486,-6.0147,-5.947,-5.9039,-5.8947,-5.9131,-5.867,-5.8362,-5.8134,-5.6964,-5.6471,-5.6378,-5.5191,-5.4976,-5.5376,-5.5161,-5.5315,-5.5653,-5.5222,-5.5653,-5.6471,-5.6471,-5.6471,-5.6502,-5.6717,-5.6656,-5.6378,-5.5838,-5.5561,-5.5284,-5.4806,-5.4191,-5.3929,-5.4822,-5.4914,-5.4576,-5.3899,-5.3899,-5.3899,-5.3191,-5.2852,-5.2852,-5.3314,-5.3406,-5.356,-5.3976,-5.4222,-5.4637,-5.5284,-5.5376,-5.5222,-5.4745,-5.4498,-5.3914,-5.2821,-5.2698,-5.2513,-5.2052,-5.2021,-5.1528,-5.0389,-5.0379,-5.0019,-4.9118,-4.9056,-4.9274,-4.974,-4.9016,-4.885,-4.9343,-4.885,-4.8728,-4.9056,-5.0499,-5.1336,-3.3244,-3.4445,-3.5367,-3.469,0.0,0.0,-4.1309,-4.2663,-4.4972,-4.9743,-4.962,-4.8593,-4.8666,-4.9774,-5.1374,-5.3361,-5.6577,-5.9255,-6.0609,-6.0794,-6.0794,-6.0794,-6.0794,-6.0794,-6.0794,-6.0794,-6.0794,-6.0794,-6.0794,-6.0763,-6.0763,-6.0763,-6.0763,-6.0763,-6.0763,-6.0455,-5.9778,-5.9778,-5.9439,-5.8731,-5.7457,-5.7148,-5.7826,-5.7795,-5.7426,-5.6748,-5.5992,-5.5684,-5.5622,-5.4976,-5.4683,-5.4591,-5.3945,-5.4514,-5.5499,-5.4206,-5.4545,-5.5684,-5.5684,-5.5684,-5.5807,-5.6563,-5.6269,-5.5715,-5.5684,-5.5253,-5.4683,-5.4652,-5.4191,-5.3714,-5.3714,-5.3221,-5.2883,-5.3514,-5.3221,-5.2914,-5.356,-5.3191,-5.2729,-5.2729,-5.2729,-5.2729,-5.2729,-5.3283,-5.3929,-5.456,-5.4683,-5.4683,-5.4683,-5.4145,-5.3468,-5.279,-5.2698,-5.2698,-5.2698,-5.2698,-5.2421,-5.1744,-5.1067,-5.0082,-4.8696,-4.8604,-4.8604,-4.8635,-4.8604,-4.8604,-4.8635,-4.8604,-4.9056,-4.9908,-5.0849,-5.174,-3.503,-3.5861,0.0,-3.7246,0.0,0.0,0.0,-4.4726,0.0,-5.1128,-5.0934,-5.0255,-5.1274,-5.2124,-5.3219,-5.4804,-5.6792,-5.8701,-6.0547,-6.0393,-6.027,-6.0732,-6.0794,-6.0794,-6.0794,-6.0363,-6.0086,-6.0086,-5.9655,-5.9378,-5.9378,-5.9378,-5.9378,-5.9378,-5.9378,-5.9285,-5.907,-5.8608,-5.8073,-5.7395,-5.6453,-5.6638,-5.7765,-5.63,-5.5776,-5.593,-5.4791,-5.4299,-5.4299,-5.4083,-5.3745,-5.3345,-5.3622,-5.396,-5.4268,-5.3868,-5.4268,-5.5007,-5.5007,-5.5315,-5.5745,-5.593,-5.6255,-5.6269,-5.5315,-5.4837,-5.4468,-5.3591,-5.316,-5.3006,-5.3006,-5.2852,-5.276,-5.2975,-5.3591,-5.3883,-5.3191,-5.3545,-5.3991,-5.3453,-5.3406,-5.3406,-5.3406,-5.3191,-5.3252,-5.3883,-5.3976,-5.3976,-5.3976,-5.3437,-5.2944,-5.2729,-5.2698,-5.2698,-5.2698,-5.2698,-5.2421,-5.1744,-5.1498,-5.079,-4.9435,-4.8881,-4.885,-4.9343,-4.8881,-4.8881,-4.9374,-4.9468,-4.963,-4.9947,-5.1331,-5.2131,-3.5922,-3.6661,0.0,-3.8967,-4.0539,-4.2694,-4.6388,-4.805,-4.9627,-5.2444,-5.2122,-5.1435,-5.2013,-5.2644,-5.3567,-5.4988,-5.669,-5.835,-5.9778,-5.9655,-5.9532,-5.9963,-6.024,-6.0301,-6.0024,-5.987,-5.9686,-5.9408,-5.9008,-5.8793,-5.8793,-5.8516,-5.8362,-5.8362,-5.8116,-5.7839,-5.7562,-5.7161,-5.6607,-5.5961,-5.5253,-5.5499,-5.6515,-5.5284,-5.4945,-5.5253,-5.4176,-5.356,-5.3314,-5.3037,-5.2667,-5.2359,-5.276,-5.3098,-5.3314,-5.3314,-5.3745,-5.4283,-5.4283,-5.4576,-5.4945,-5.5222,-5.5592,-5.5745,-5.4668,-5.4468,-5.4406,-5.3098,-5.2914,-5.3129,-5.3129,-5.3129,-5.3037,-5.276,-5.3345,-5.3668,-5.2883,-5.3345,-5.3853,-5.3745,-5.3714,-5.3714,-5.3714,-5.3375,-5.3252,-5.3652,-5.3714,-5.3622,-5.3345,-5.2975,-5.2698,-5.2698,-5.2698,-5.2698,-5.2698,-5.2698,-5.2544,-5.2144,-5.1867,-5.1344,-5.0513,-4.9805,-4.9651,-5.0082,-4.9404,-4.9251,-4.9682,-4.9846,-5.0065,-5.0416,-5.1696,-5.2449,-3.6045,-3.7029,-3.8137,-4.0071,-4.2289,-4.5033,-4.8912,-5.1775,-5.3607,-5.3507,-5.3014,-5.2366,-5.1621,-5.2137,-5.3086,-5.4447,-5.6396,-5.798,-5.867,-5.8731,-5.8701,-5.8762,-5.9316,-5.947,-5.8854,-5.9224,-5.9255,-5.8639,-5.8485,-5.8423,-5.8423,-5.7839,-5.75,-5.75,-5.6964,-5.6269,-5.5622,-5.553,-5.5222,-5.4591,-5.396,-5.396,-5.4498,-5.4498,-5.4498,-5.4468,-5.3853,-5.3252,-5.2575,-5.2021,-5.1713,-5.1621,-5.1682,-5.2082,-5.2637,-5.2637,-5.3037,-5.3622,-5.3622,-5.3683,-5.3837,-5.4406,-5.4621,-5.456,-5.3883,-5.416,-5.4406,-5.316,-5.3283,-5.3806,-5.3806,-5.3806,-5.3652,-5.3037,-5.2883,-5.2852,-5.2729,-5.2821,-5.3067,-5.3637,-5.3806,-5.3791,-5.3899,-5.3806,-5.3714,-5.3652,-5.3622,-5.3406,-5.279,-5.2698,-5.2698,-5.2698,-5.2698,-5.2698,-5.2698,-5.2698,-5.2698,-5.2698,-5.2144,-5.1805,-5.1805,-5.1097,-5.0697,-5.0697,-5.0082,-4.9743,-4.9682,-5.0053,-5.0512,-5.1107,-5.198,-5.2761,-3.6039,-3.7445,0.0,-4.0548,-4.4136,-4.7845,-4.9977,-5.1744,-5.3024,-5.3416,-5.3296,-5.3216,-5.3567,-5.3786,-5.4378,-5.5842,-5.661,-5.7457,-5.8608,-5.8331,-5.8177,-5.8731,-5.8916,-5.8947,-5.8793,-5.8011,-5.7395,-5.7241,-5.6207,-5.5592,-5.5592,-5.5468,-5.5376,-5.5376,-5.5253,-5.5099,-5.4945,-5.4422,-5.4083,-5.3883,-5.3252,-5.3006,-5.316,-5.316,-5.316,-5.3129,-5.3006,-5.2544,-5.1959,-5.2329,-5.1867,-5.0974,-5.1498,-5.1805,-5.1929,-5.1929,-5.2359,-5.2944,-5.2944,-5.3283,-5.3699,-5.3899,-5.4252,-5.456,-5.3883,-5.416,-5.4498,-5.3745,-5.3991,-5.4468,-5.4468,-5.4468,-5.4437,-5.4283,-5.4252,-5.3976,-5.2944,-5.356,-5.4283,-5.4437,-5.4468,-5.4668,-5.5191,-5.4422,-5.3529,-5.3006,-5.2944,-5.2883,-5.2729,-5.2698,-5.2698,-5.2698,-5.2698,-5.2698,-5.2698,-5.2698,-5.2698,-5.2698,-5.2575,-5.2483,-5.2483,-5.1344,-5.0697,-5.0697,-5.0543,-5.0205,-4.9682,-5.1573,-5.2017,-5.1107,-5.2511,-5.2945,-3.6459,0.0,0.0,-4.201,0.0,-4.9151,-5.0408,-5.1448,-5.2245,-5.2408,-5.2635,-5.2696,-5.2278,-5.2851,-5.36,-5.436,-5.5189,-5.6053,-5.673,-5.6546,-5.6453,-5.6792,-5.71,-5.7192,-5.6884,-5.6484,-5.6115,-5.5807,-5.513,-5.4683,-5.4683,-5.4375,-5.4191,-5.4191,-5.3622,-5.3283,-5.3283,-5.2606,-5.2267,-5.2267,-5.1929,-5.1744,-5.1775,-5.2421,-5.2544,-5.2236,-5.2236,-5.2021,-5.1682,-5.1374,-5.0851,-5.0236,-5.0605,-5.0944,-5.1251,-5.159,-5.2144,-5.2698,-5.2698,-5.2944,-5.3252,-5.3252,-5.3637,-5.4068,-5.3437,-5.4145,-5.4976,-5.3991,-5.4422,-5.5191,-5.5191,-5.5191,-5.5191,-5.5191,-5.4945,-5.4406,-5.3406,-5.3745,-5.4283,-5.4621,-5.4683,-5.4898,-5.5592,-5.4607,-5.3545,-5.3252,-5.2914,-5.2698,-5.2698,-5.3006,-5.3191,-5.3191,-5.3191,-5.3191,-5.3191,-5.2883,-5.2698,-5.2698,-5.2698,-5.2698,-5.2698,-5.2021,-5.1652,-5.1652,-5.1344,-5.1005,-5.0636,-5.1922,-5.2189,-5.1524,-5.2373,-5.2548,-3.6665,0.0,-3.992,-4.3243,-4.6467,0.0,-4.9818,-5.0573,-5.0979,-5.0541,-5.1317,-5.1678,-5.0247,-5.1251,-5.2328,-5.2328,-5.3675,-5.4683,-5.4683,-5.4683,-5.4683,-5.4683,-5.5191,-5.5315,-5.4745,-5.5099,-5.513,-5.456,-5.4283,-5.416,-5.416,-5.356,-5.3191,-5.3191,-5.2113,-5.1528,-5.1528,-5.0974,-5.0697,-5.0697,-5.0697,-5.0636,-5.0574,-5.1805,-5.2052,-5.1528,-5.1528,-5.1467,-5.1282,-5.0266,-4.9712,-4.9528,-4.9774,-5.0205,-5.0759,-5.1436,-5.2144,-5.2698,-5.2698,-5.2698,-5.2698,-5.2698,-5.3098,-5.3437,-5.2883,-5.396,-5.513,-5.4022,-5.4607,-5.553,-5.553,-5.553,-5.5561,-5.5653,-5.5284,-5.4668,-5.3899,-5.3806,-5.4006,-5.456,-5.4914,-5.5222,-5.5622,-5.4791,-5.3991,-5.3699,-5.3252,-5.2883,-5.2883,-5.3375,-5.373,-5.3853,-5.376,-5.3714,-5.3714,-5.3098,-5.2698,-5.2698,-5.2698,-5.2698,-5.2698,-5.2698,-5.2698,-5.2698,-5.2175,-5.1836,-5.1713,-5.2092,-5.2134,-5.1881,-5.2004,-5.2004,0.0,0.0,-4.0196,0.0,-4.4952,-4.6783,0.0,-4.8102,-4.8626,-4.7335,-4.9308,-5.1097,-5.017,-5.1251,-5.2328,-5.2328,-5.3675,-5.4683,-5.4683,-5.4683,-5.4683,-5.4683,-5.4775,-5.4775,-5.4683,-5.4268,-5.396,-5.3868,-5.276,-5.2113,-5.2113,-5.1467,-5.1097,-5.1097,-5.0913,-5.082,-5.082,-5.0728,-5.0697,-5.0697,-5.0697,-5.0389,-4.9835,-5.0605,-5.0913,-5.082,-5.082,-5.0482,-4.9989,-5.0389,-4.9866,-4.8881,-5.0082,-5.0605,-5.0759,-5.1436,-5.2144,-5.2698,-5.2698,-5.2698,-5.2698,-5.2698,-5.276,-5.2821,-5.2729,-5.3314,-5.396,-5.3775,-5.4268,-5.4806,-5.4806,-5.4806,-5.5007,-5.5561,-5.5622,-5.5222,-5.3991,-5.4129,-5.456,-5.4652,-5.5684,-5.6378,-5.5776,-5.553,-5.5037,-5.3899,-5.3607,-5.3591,-5.3591,-5.3607,-5.3914,-5.4468,-5.4037,-5.3714,-5.3714,-5.3098,-5.2698,-5.2698,-5.2698,-5.2698,-5.2698,-5.2698,-5.2698,-5.2698,-5.2637,-5.2298,-5.1713,-5.3075,-5.3092,-5.1913,-5.1982,-5.1683,-3.6387,-3.7743,-3.9444,0.0,-4.3465,-4.519,-4.5897,-4.6753,-4.7155,-4.6524,-4.75,-4.8446,-4.846,-4.9713,-5.0825,-5.1179,-5.2557,-5.3468,-5.3098,-5.3037,-5.2883,-5.2513,-5.2483,-5.2637,-5.3006,-5.2421,-5.2175,-5.2575,-5.1682,-5.1128,-5.1128,-5.0851,-5.0697,-5.0697,-5.0328,-5.0143,-5.0143,-4.9743,-4.9528,-4.9528,-4.9528,-4.9374,-4.9097,-4.9404,-4.9743,-5.0143,-5.0143,-4.9959,-4.9682,-4.9558,-4.9158,-4.8666,-4.9281,-5.002,-5.0728,-5.1036,-5.1805,-5.2698,-5.2698,-5.2698,-5.2698,-5.2698,-5.2698,-5.2698,-5.2698,-5.3191,-5.3714,-5.3714,-5.416,-5.4683,-5.4683,-5.4683,-5.4745,-5.5099,-5.5161,-5.4884,-5.3929,-5.4222,-5.4683,-5.4683,-5.5499,-5.6176,-5.6269,-5.5961,-5.5376,-5.4422,-5.3914,-5.3591,-5.3221,-5.3498,-5.3791,-5.4099,-5.3899,-5.3714,-5.3714,-5.3098,-5.2698,-5.2698,-5.2698,-5.2698,-5.2698,-5.2698,-5.2698,-5.2698,-5.2698,-5.2575,-5.2267,-5.2914,-5.2978,-5.2312,-5.1608,-5.1078,0.0,0.0,-3.8597,-4.0127,-4.1917,-4.3611,0.0,-4.5171,-4.5507,-4.5654,-4.5619,-4.5878,-4.6833,-4.8238,-4.9444,-5.0058,-5.1289,-5.2021,-5.1528,-5.1436,-5.1251,-5.0759,-5.0697,-5.0882,-5.1405,-5.0974,-5.0913,-5.1405,-5.082,-5.0451,-5.0451,-5.0266,-5.0174,-5.0174,-4.9682,-4.9404,-4.9404,-4.8696,-4.8358,-4.8358,-4.8358,-4.8358,-4.8358,-4.8543,-4.8912,-4.9404,-4.9404,-4.9404,-4.9374,-4.882,-4.8604,-4.8635,-4.882,-4.9528,-5.0482,-5.082,-5.159,-5.2483,-5.2637,-5.2698,-5.2698,-5.2698,-5.2698,-5.2698,-5.2698,-5.3067,-5.3468,-5.3468,-5.3837,-5.416,-5.416,-5.416,-5.4222,-5.4375,-5.4437,-5.4345,-5.4052,-5.4191,-5.4468,-5.4652,-5.513,-5.5653,-5.6409,-5.6053,-5.553,-5.5037,-5.4345,-5.376,-5.3283,-5.3529,-5.3775,-5.3914,-5.3837,-5.3714,-5.3714,-5.3098,-5.2698,-5.2698,-5.2698,-5.2698,-5.2698,-5.2698,-5.2698,-5.2698,-5.2698,-5.2698,-5.2698,-5.2698,-5.2698,-5.2698,-5.1498,-5.0851,-3.5013,-3.616,0.0,-3.8888,-4.0341,-4.1735,-4.2562,-4.2852,-4.3056,-4.3556,-4.3656,-4.4234,-4.6078,-4.7607,-4.8755,-4.9419,-5.0279,-5.079,-5.0759,-5.0759,-5.0728,-5.0697,-5.0697,-5.0697,-5.0759,-5.0728,-5.0697,-5.0759,-5.0112,-4.9743,-4.9743,-4.9097,-4.8727,-4.8727,-4.8696,-4.8666,-4.8666,-4.7989,-4.765,-4.765,-4.765,-4.765,-4.7681,-4.8327,-4.8635,-4.8666,-4.8666,-4.8666,-4.8666,-4.8635,-4.8604,-4.8696,-4.9374,-4.9682,-4.9897,-5.119,-5.1682,-5.1836,-5.2483,-5.2698,-5.2698,-5.2698,-5.2698,-5.2698,-5.2698,-5.2729,-5.276,-5.276,-5.279,-5.2821,-5.2821,-5.2821,-5.2975,-5.3622,-5.3775,-5.3929,-5.4498,-5.416,-5.3914,-5.456,-5.4714,-5.4976,-5.5622,-5.5715,-5.5684,-5.5653,-5.5099,-5.4621,-5.4591,-5.4037,-5.3914,-5.456,-5.4068,-5.3714,-5.3714,-5.3098,-5.2698,-5.2698,-5.2698,-5.2698,-5.2698,-5.2698,-5.2698,-5.2698,-5.2698,-5.2698,-5.2698,-5.2698,-5.2698,-5.2698,-5.199,-5.1313,-3.6477,0.0,0.0,-3.8641,-3.9113,-3.9631,-4.1008,-4.1401,-4.1621,-4.2169,-4.2289,-4.2899,-4.488,-4.6667,-4.8237,-4.9329,-5.0188,-5.0543,-5.0112,-5.0051,-4.9866,-4.9404,-4.9343,-4.9528,-4.9989,-4.962,-4.9558,-5.002,-4.9004,-4.8358,-4.8358,-4.7681,-4.7311,-4.7311,-4.7311,-4.7311,-4.7311,-4.7065,-4.6973,-4.6973,-4.6973,-4.6973,-4.6973,-4.765,-4.7958,-4.7989,-4.8419,-4.8604,-4.8604,-4.8604,-4.8604,-4.8635,-4.8881,-4.9281,-4.9743,-5.0236,-5.0944,-5.1744,-5.199,-5.2359,-5.2698,-5.2698,-5.2698,-5.2698,-5.2698,-5.2698,-5.2698,-5.2698,-5.2698,-5.2698,-5.2698,-5.2698,-5.276,-5.3006,-5.3067,-5.3129,-5.3375,-5.3252,-5.3283,-5.396,-5.4037,-5.4252,-5.4945,-5.5407,-5.5561,-5.513,-5.4837,-5.4529,-5.4099,-5.3498,-5.316,-5.3406,-5.3221,-5.3252,-5.3683,-5.3098,-5.2883,-5.3345,-5.2944,-5.2698,-5.2698,-5.2698,-5.2698,-5.2698,-5.2698,-5.2698,-5.2698,-5.2267,-5.2082,-5.2052,-5.1374,-5.0913,-3.7225,-3.6956,0.0,-3.7957,-3.7853,-3.7811,-3.8897,-3.9207,-3.943,-4.0182,-4.0716,-4.1596,-4.3584,-4.5359,-4.6947,-4.8339,-4.9169,-4.9435,-4.8727,-4.885,-4.8727,-4.8019,-4.7927,-4.8112,-4.8604,-4.8204,-4.8142,-4.8604,-4.7773,-4.725,-4.725,-4.685,-4.6603,-4.6603,-4.6603,-4.6603,-4.6603,-4.6357,-4.6265,-4.6265,-4.6265,-4.6265,-4.6296,-4.6973,-4.725,-4.7281,-4.7742,-4.8204,-4.8604,-4.8604,-4.8604,-4.8604,-4.8604,-4.8912,-4.9343,-4.9589,-5.0266,-5.1097,-5.1559,-5.199,-5.2421,-5.2637,-5.2698,-5.2698,-5.2698,-5.2698,-5.2698,-5.2698,-5.2698,-5.2698,-5.2698,-5.2698,-5.2698,-5.2698,-5.2698,-5.2698,-5.2698,-5.2698,-5.2852,-5.3283,-5.3375,-5.3591,-5.4222,-5.473,-5.4945,-5.4714,-5.4498,-5.4191,-5.373,-5.3129,-5.2698,-5.2698,-5.2698,-5.2975,-5.3652,-5.3098,-5.3006,-5.3683,-5.3098,-5.2698,-5.2698,-5.2698,-5.2698,-5.2698,-5.2698,-5.2698,-5.2698,-5.2021,-5.1836,-5.2021,-5.1344,-5.1036,0.0,0.0,0.0,-3.6646,-3.6328,-3.6216,-3.6267,-3.6175,-3.6388,-3.7625,-3.8861,-4.0322,-4.2222,-4.3653,-4.4906,-4.6211,-4.7096,-4.7342,-4.6696,-4.7157,-4.7342,-4.6665,-4.6603,-4.6603,-4.6603,-4.6603,-4.6573,-4.6573,-4.6542,-4.6542,-4.6511,-4.6511,-4.6511,-4.6542,-4.6542,-4.6542,-4.6542,-4.5895,-4.5557,-4.5557,-4.5557,-4.5557,-4.5588,-4.6265,-4.6573,-4.6573,-4.6573,-4.7342,-4.8543,-4.8573,-4.8573,-4.8573,-4.8604,-4.8604,-4.8696,-4.9404,-4.9682,-4.9866,-5.119,-5.1652,-5.1775,-5.2452,-5.2698,-5.2698,-5.2698,-5.2698,-5.2698,-5.2698,-5.2698,-5.2698,-5.2698,-5.2698,-5.2698,-5.2698,-5.2698,-5.2698,-5.2698,-5.2698,-5.2698,-5.2698,-5.2698,-5.2914,-5.3591,-5.3714,-5.3914,-5.456,-5.4145,-5.3714,-5.3714,-5.3129,-5.2698,-5.2698,-5.2698,-5.3006,-5.3637,-5.3129,-5.3006,-5.3714,-5.3098,-5.2698,-5.2698,-5.2698,-5.2698,-5.2698,-5.2698,-5.2698,-5.2698,-5.2021,-5.2052,-5.2667,-5.2021,-5.1713,-3.7409,0.0,0.0,0.0,0.0,0.0,-3.5504,-3.534,-3.544,-3.694,-3.7512,-3.8229,-3.9704,-4.0967,-4.1932,-4.2364,-4.4925,-4.6819,-4.6634,-4.6757,-4.6819,-4.6603,-4.6603,-4.6603,-4.6603,-4.6603,-4.6388,-4.5895,-4.5403,-4.4949,-4.4456,-4.4456,-4.4671,-4.5126,-4.5126,-4.5126,-4.5126,-4.4941,-4.4887,-4.4887,-4.4887,-4.4887,-4.4918,-4.5557,-4.5865,-4.5895,-4.6388,-4.6819,-4.7188,-4.7681,-4.7896,-4.7927,-4.8419,-4.8604,-4.8635,-4.885,-4.9251,-4.9743,-5.0112,-5.0574,-5.1097,-5.1775,-5.199,-5.2082,-5.2575,-5.2698,-5.2698,-5.2698,-5.2698,-5.2698,-5.2698,-5.2698,-5.2698,-5.2698,-5.2698,-5.2698,-5.2698,-5.2698,-5.2698,-5.2698,-5.2698,-5.276,-5.2944,-5.3406,-5.373,-5.3914,-5.3791,-5.3714,-5.3714,-5.3129,-5.2698,-5.2698,-5.2698,-5.3191,-5.4314,-5.3375,-5.3221,-5.4345,-5.3345,-5.2698,-5.2698,-5.2698,-5.2698,-5.2698,-5.2698,-5.2698,-5.2698,-5.2021,-5.1805,-5.199,-5.1805,-5.1713,-3.7623,-3.6663,-3.5974,-3.5748,0.0,0.0,-3.3836,-3.3879,-3.3983,-3.4573,-3.5293,-3.6052,-3.6798,-3.8176,-3.9274,-3.9516,-4.191,-4.4006,-4.4811,-4.5157,-4.5218,-4.4972,-4.4941,-4.4941,-4.4941,-4.4941,-4.4756,-4.4387,-4.3987,-4.3587,-4.3187,-4.3156,-4.334,-4.3741,-4.3771,-4.3771,-4.3771,-4.3771,-4.3895,-4.4209,-4.4209,-4.4332,-4.4641,-4.4972,-4.5157,-4.5187,-4.5588,-4.5741,-4.5803,-4.648,-4.7096,-4.765,-4.805,-4.8358,-4.8604,-4.8604,-4.8881,-4.9281,-4.9589,-4.9959,-5.0389,-5.1067,-5.1467,-5.1775,-5.2175,-5.2483,-5.2698,-5.2698,-5.2698,-5.2698,-5.2698,-5.2698,-5.2698,-5.2698,-5.2698,-5.2698,-5.2698,-5.2698,-5.2698,-5.2698,-5.2698,-5.2698,-5.2698,-5.3037,-5.3314,-5.3314,-5.3314,-5.3314,-5.3314,-5.2944,-5.2698,-5.2698,-5.2698,-5.316,-5.416,-5.3591,-5.3468,-5.4222,-5.356,-5.3006,-5.2729,-5.2698,-5.2698,-5.2698,-5.2698,-5.2698,-5.2698,-5.2021,-5.1713,-5.1713,-5.1713,-5.1867,-3.7354,-3.6548,-3.5883,-3.4622,-3.3459,0.0,-3.1943,-3.2246,-3.2463,-3.1937,-3.301,-3.4068,-3.4104,-3.5617,-3.6983,-3.7363,-3.856,-4.0188,-4.2222,-4.291,-4.3063,-4.2663,-4.254,-4.2509,-4.2509,-4.2509,-4.2417,-4.2263,-4.2202,-4.2232,-4.2386,-4.2386,-4.2448,-4.2602,-4.2602,-4.2602,-4.2602,-4.2602,-4.294,-4.3593,-4.3593,-4.3963,-4.461,-4.461,-4.461,-4.461,-4.461,-4.461,-4.4671,-4.5218,-4.6265,-4.7496,-4.7588,-4.8019,-4.8604,-4.8604,-4.8604,-4.8696,-4.9343,-4.9558,-4.9682,-5.0359,-5.0974,-5.1498,-5.1652,-5.2113,-5.2606,-5.2698,-5.2667,-5.2606,-5.2606,-5.2606,-5.2606,-5.2606,-5.2667,-5.2698,-5.2698,-5.2698,-5.2698,-5.2606,-5.2667,-5.2698,-5.2698,-5.2698,-5.2698,-5.2698,-5.2698,-5.2698,-5.2698,-5.2698,-5.2698,-5.2698,-5.2698,-5.2975,-5.3652,-5.3607,-5.3607,-5.3714,-5.3652,-5.3345,-5.2729,-5.2698,-5.2698,-5.2698,-5.2698,-5.2698,-5.2698,-5.2113,-5.1805,-5.1805,-5.1805,-5.2144,-3.5487,-3.4494,-3.362,-3.3688,-3.2937,0.0,-3.2431,-3.2371,-3.2499,-3.3457,-3.333,-3.3076,-3.3424,-3.459,-3.5363,-3.4946,-3.6713,-3.8975,-4.1454,-4.1401,-4.1494,-4.2479,-4.214,-4.1801,-4.1801,-4.1801,-4.134,-4.0201,-3.9616,-3.977,-4.0843,-4.0905,-4.1427,-4.2571,-4.2602,-4.2602,-4.2602,-4.2602,-4.294,-4.3593,-4.3593,-4.3963,-4.461,-4.461,-4.461,-4.461,-4.461,-4.461,-4.4641,-4.4764,-4.5588,-4.685,-4.7404,-4.8019,-4.8604,-4.8604,-4.8604,-4.8635,-4.8758,-4.882,-4.8943,-4.9651,-4.9959,-5.0266,-5.1374,-5.1805,-5.2021,-5.2575,-5.2329,-5.1898,-5.1898,-5.1898,-5.1898,-5.1898,-5.2329,-5.2698,-5.2698,-5.2698,-5.2544,-5.2021,-5.2329,-5.2698,-5.2698,-5.2698,-5.2698,-5.2698,-5.2698,-5.2698,-5.2698,-5.2698,-5.2698,-5.2698,-5.2698,-5.2975,-5.3652,-5.3221,-5.316,-5.3683,-5.3221,-5.2852,-5.2729,-5.2698,-5.2698,-5.2698,-5.2698,-5.2698,-5.2698,-5.2575,-5.2513,-5.2513,-5.2513,-5.2575,-3.5388,-3.439,-3.3556,-3.4053,-3.2996,0.0,0.0,-3.2525,-3.2191,-3.2485,-3.257,-3.2458,-3.2152,-3.3014,-3.3739,-3.3729,-3.5163,-3.6967,-3.8899,-3.9355,-3.9736,-4.0478,-4.0262,-4.0047,-4.0047,-4.0047,-3.977,-3.9062,-3.8692,-3.8816,-3.9493,-3.949,-3.9985,-4.1032,-4.1063,-4.1217,-4.152,-4.152,-4.1925,-4.2602,-4.294,-4.3433,-4.4117,-4.4456,-4.461,-4.461,-4.461,-4.461,-4.461,-4.461,-4.5187,-4.6172,-4.685,-4.7527,-4.8142,-4.8481,-4.8604,-4.8604,-4.8604,-4.8604,-4.8666,-4.9035,-4.9404,-4.9866,-5.0882,-5.1682,-5.2206,-5.2206,-5.1959,-5.1621,-5.1282,-5.119,-5.119,-5.119,-5.1467,-5.1713,-5.1713,-5.1713,-5.1713,-5.1713,-5.199,-5.2206,-5.2206,-5.2483,-5.2698,-5.2698,-5.2698,-5.2698,-5.2698,-5.2698,-5.2698,-5.2698,-5.2698,-5.2852,-5.3191,-5.3221,-5.3221,-5.3221,-5.3221,-5.3067,-5.2729,-5.2698,-5.2698,-5.2698,-5.2698,-5.2698,-5.2698,-5.2698,-5.2698,-5.2698,-5.2698,-5.2698,-3.5493,-3.4776,-3.413,-3.4512,-3.3376,-3.2353,0.0,0.0,0.0,-3.1364,-3.1811,-3.2025,-3.1123,-3.183,-3.2698,-3.3217,-3.4255,-3.5377,-3.6463,-3.7351,-3.8044,-3.8477,-3.8385,-3.8323,-3.8323,-3.82,-3.8108,-3.8108,-3.8108,-3.8169,-3.8323,-3.8323,-3.8631,-3.9308,-3.9305,-3.9613,-4.029,-4.029,-4.072,-4.1617,-4.214,-4.2756,-4.3439,-4.4117,-4.4425,-4.4425,-4.451,-4.461,-4.461,-4.461,-4.491,-4.5464,-4.6142,-4.6911,-4.7681,-4.8235,-4.8512,-4.8604,-4.8604,-4.8604,-4.8604,-4.8604,-4.9097,-4.9774,-5.0328,-5.1344,-5.2206,-5.1652,-5.1405,-5.119,-5.0636,-5.0513,-5.0513,-5.0513,-5.0605,-5.0697,-5.0697,-5.0697,-5.0851,-5.1405,-5.1621,-5.1744,-5.1867,-5.2359,-5.2698,-5.2698,-5.2698,-5.2698,-5.2698,-5.2698,-5.2698,-5.2698,-5.2698,-5.2698,-5.2698,-5.3221,-5.3283,-5.276,-5.3221,-5.3283,-5.2729,-5.2698,-5.2698,-5.2698,-5.2698,-5.2698,-5.2698,-5.2698,-5.2698,-5.2698,-5.2698,-5.2698,-3.4447,-3.4324,-3.4058,-3.402,-3.4055,-3.3955,-3.3409,0.0,-3.2605,-3.251,0.0,-3.1723,-3.1256,0.0,0.0,-3.3494,-3.4551,-3.5606,-3.633,-3.5941,-3.632,-3.826,-3.7984,-3.7615,-3.7615,-3.7061,-3.6722,-3.6722,-3.6722,-3.6999,-3.7584,-3.7615,-3.7923,-3.86,-3.8631,-3.8939,-3.9582,-3.9582,-4.0293,-4.1586,-4.1678,-4.2078,-4.2756,-4.3439,-4.3716,-4.3747,-4.4363,-4.461,-4.461,-4.461,-4.4633,-4.4795,-4.5434,-4.648,-4.7619,-4.7681,-4.8112,-4.8604,-4.8604,-4.8604,-4.8604,-4.8604,-4.9097,-4.9682,-4.9774,-5.0328,-5.0913,-5.082,-5.0389,-4.9897,-4.9805,-4.9805,-4.9805,-4.9805,-5.0266,-5.0697,-5.0697,-5.0697,-5.0728,-5.079,-5.1282,-5.1898,-5.2483,-5.2667,-5.2698,-5.2698,-5.2698,-5.2698,-5.2698,-5.2698,-5.2698,-5.2698,-5.2698,-5.2698,-5.2698,-5.279,-5.279,-5.2698,-5.279,-5.279,-5.2698,-5.2698,-5.2698,-5.2698,-5.2698,-5.2698,-5.2698,-5.2698,-5.2698,-5.2698,-5.2698,-5.2698,-3.4694,-3.4673,-3.4484,-3.4438,-3.4267,-3.4118,-3.4164,-3.3656,-3.3241,-3.3451,0.0,0.0,0.0,0.0,0.0,0.0,-3.4876,-3.5337,-3.515,-3.5086,-3.5614,-3.6995,-3.666,-3.6383,-3.6434,-3.6221,-3.5854,-3.5459,-3.5793,-3.6102,-3.6322,-3.6692,-3.7215,-3.7892,-3.7923,-3.8446,-3.9459,-3.949,-3.9982,-4.097,-4.1401,-4.174,-4.2048,-4.3131,-4.3408,-4.3063,-4.411,-4.4394,-4.4055,-4.4456,-4.461,-4.4641,-4.488,-4.5834,-4.7065,-4.7465,-4.8019,-4.8604,-4.8604,-4.8604,-4.8604,-4.8604,-4.9097,-4.9682,-4.9682,-5.0143,-5.0605,-5.0205,-4.9897,-4.9589,-4.9158,-4.9066,-4.9066,-4.9066,-4.9281,-4.9589,-5.002,-5.0112,-5.0328,-5.1128,-5.1498,-5.1929,-5.2606,-5.2698,-5.2698,-5.2698,-5.2698,-5.2698,-5.2698,-5.2698,-5.2698,-5.2698,-5.2698,-5.2698,-5.2698,-5.2698,-5.2698,-5.2698,-5.2698,-5.2698,-5.2698,-5.2698,-5.2698,-5.2698,-5.2698,-5.2698,-5.2698,-5.2698,-5.2698,-5.2698,-5.2698,-5.2698,-3.5291,-3.5386,-3.5451,-3.5045,-3.4612,-3.4403,-3.4739,-3.453,-3.4196,-3.4162,-3.4835,0.0,0.0,0.0,-3.4968,-3.4911,0.0,-3.5282,-3.4737,-3.4632,-3.4911,-3.5553,-3.5554,-3.5554,-3.5639,-3.582,-3.5638,-3.4971,-3.5547,-3.5795,-3.5522,-3.6138,-3.6722,-3.7215,-3.7215,-3.78,-3.8939,-3.897,-3.94,-4.0228,-4.0786,-4.1124,-4.134,-4.2509,-4.2786,-4.2417,-4.371,-4.4055,-4.3655,-4.4332,-4.461,-4.461,-4.461,-4.5403,-4.6665,-4.7157,-4.7865,-4.8604,-4.8604,-4.8604,-4.8604,-4.8604,-4.8974,-4.9404,-4.9404,-4.9743,-5.002,-4.9528,-4.9404,-4.9281,-4.8758,-4.8604,-4.8604,-4.8604,-4.8604,-4.8758,-4.9281,-4.9404,-4.9805,-5.1159,-5.1436,-5.1713,-5.2575,-5.2698,-5.2698,-5.2698,-5.2698,-5.2698,-5.2698,-5.2698,-5.2698,-5.2698,-5.2698,-5.2698,-5.2698,-5.2698,-5.2698,-5.2698,-5.2698,-5.2698,-5.2698,-5.2698,-5.2698,-5.2698,-5.2698,-5.2698,-5.2698,-5.2608,-5.2608,-5.2608,-5.2653,-5.2698,-3.5832,-3.6551,-3.7098,-3.5667,-3.531,-3.5282,-3.4976,-3.5472,-3.5681,-3.454,-3.5536,-3.5997,-3.3893,-3.4442,-3.5278,-3.5531,-3.5654,0.0,0.0,-3.4603,-3.388,-3.424,-3.5001,-3.5491,-3.5522,-3.6107,-3.6199,-3.5522,-3.6107,-3.6199,-3.5522,-3.6138,-3.6507,-3.6538,-3.6538,-3.6846,-3.7554,-3.7554,-3.8231,-3.9521,-3.9585,-3.989,-4.0536,-4.134,-4.1648,-4.1709,-4.3069,-4.3624,-4.3655,-4.4332,-4.461,-4.461,-4.461,-4.5403,-4.6603,-4.6603,-4.7465,-4.8604,-4.8604,-4.8604,-4.8604,-4.8604,-4.8635,-4.8666,-4.8666,-4.8666,-4.8666,-4.8666,-4.8666,-4.8635,-4.8635,-4.8604,-4.8604,-4.8604,-4.8604,-4.8635,-4.8635,-4.8666,-4.9066,-5.0451,-5.0728,-5.1159,-5.2483,-5.2698,-5.2698,-5.2698,-5.2698,-5.2698,-5.2698,-5.2698,-5.2698,-5.2698,-5.2698,-5.2698,-5.2698,-5.2698,-5.2698,-5.2698,-5.2698,-5.2698,-5.2698,-5.2698,-5.2698,-5.2698,-5.2698,-5.2698,-5.2698,-5.2442,-5.2306,-5.2306,-5.2563,-5.2698,-3.6443,-3.7384,-3.8241,-3.6887,-3.6549,-3.6401,-3.6001,-3.6442,-3.6674,-3.5633,-3.6543,-3.7019,-3.541,-3.5462,-3.5714,-3.5666,-3.5709,-3.5505,0.0,-3.4209,-3.3578,-3.3274,-3.3969,-3.4569,-3.4755,-3.4171,-3.3722,-3.3576,-3.4243,-3.4699,-3.4814,-3.5491,-3.6014,-3.6476,-3.6507,-3.6815,-3.7492,-3.7492,-3.7954,-3.8846,-3.9308,-3.9613,-3.9859,-4.1063,-4.134,-4.0935,-4.2325,-4.294,-4.2971,-4.3685,-4.4209,-4.461,-4.461,-4.5126,-4.5988,-4.6419,-4.7465,-4.8604,-4.8604,-4.8604,-4.8604,-4.8604,-4.8604,-4.8604,-4.8604,-4.8604,-4.8604,-4.8604,-4.8604,-4.8604,-4.8604,-4.8604,-4.8604,-4.8604,-4.8604,-4.8758,-4.922,-4.9312,-4.9589,-5.0513,-5.1067,-5.1498,-5.1959,-5.2421,-5.2698,-5.2698,-5.2698,-5.2698,-5.2698,-5.2698,-5.2698,-5.2698,-5.2698,-5.2698,-5.2698,-5.2698,-5.2698,-5.2698,-5.2698,-5.2698,-5.2698,-5.2698,-5.2698,-5.2698,-5.2518,-5.2442,-5.2442,-5.22,-5.2109,-5.2109,-5.22,-5.2291,-3.7566,-3.838,-3.9075,-3.8008,-3.7727,-3.7586,-3.6926,-3.7469,-3.7871,-3.6975,-3.7337,-3.7563,-3.6633,-3.6135,-3.5776,-3.5565,-3.5579,-3.5381,0.0,-3.4269,-3.3848,-3.3306,-3.3779,-3.4196,-3.433,-3.3655,-3.3119,-3.291,-3.3575,-3.4119,-3.4475,-3.5152,-3.5799,-3.6476,-3.6507,-3.6692,-3.7123,-3.7153,-3.7492,-3.8169,-3.8846,-3.9244,-3.9521,-4.0693,-4.0935,-4.0566,-4.174,-4.2386,-4.2663,-4.331,-4.4024,-4.461,-4.461,-4.5003,-4.568,-4.6357,-4.7465,-4.8604,-4.8604,-4.8604,-4.8604,-4.8604,-4.8604,-4.8604,-4.8604,-4.8604,-4.8604,-4.8604,-4.8604,-4.8604,-4.8604,-4.8604,-4.8604,-4.8604,-4.8604,-4.8727,-4.922,-4.9312,-4.9589,-5.0513,-5.1036,-5.1498,-5.199,-5.2421,-5.2698,-5.2698,-5.2698,-5.2698,-5.2698,-5.2698,-5.2698,-5.2698,-5.2698,-5.2698,-5.2698,-5.2698,-5.2698,-5.2698,-5.2698,-5.2653,-5.2563,-5.2563,-5.2733,-5.3132,-5.2505,-5.2414,-5.2871,-5.2184,-5.1834,-5.1834,-5.1741,-5.1834]}]]